Mertens, Christian; Dennert, Peter (2026): Physical oceanography during RV METEOR cruise M188 [dataset]. PANGAEA, https://doi.org/10.1594/PANGAEA.989353
Always quote citation above when using data! You can download the citation in several formats below.
Published: 2026-01-19 • DOI registered: 2026-02-17
Abstract:
During RV Meteor cruise M188 in the eastern South Atlantic (7 March - 13 April, 2023) conductivity, temperature, and depth (CTD) measurements were made using a Sea-Bird 9plus instrument. Calibration for conductivity was performed at sea using water samples. The CTD data were processed using the standard Seabird algorithms. Downcast data were separated and averaged over 1 dbar intervals. The accuracy of the calibrated CTD measurements is: 1 dbar for pressure, 0.002 °C for temperature, 0.003 psu for salinity.
Related to:
Mertens, Christian; Lage, Mariana; Oelerich, Ria; Boatwright, Victoria; Methale Puthukkottu, Subeesh; Stake, Jürgen; Meiritz, Luisa Chiara; Breunig, Emelie; Welsch, Andreas; Bracamontes Ramirez, Joel; Leimann, Ilmar; Dennert, Peter; Epke, Moritz; Kourkouraidou, Zoi; Aschenbeck, Lara Jane; Duong, Buu Lik; Rosenau, Silvano; Enneper, Che; Suter, Patrick (2025): Synoptic Observations - A Nested Approach to Study Energy Transfer & Turbulence in the Ocean in the Eastern South Atlantic/Walvis Ridge, Cruise No. M188, March 7 - April 13, 2023, Walvis Bay (Namibia) - Walvis Bay (Namibia). METEOR-Berichte, Begutachtungspanel Forschungsschiffe, M188, 43 pp, https://doi.org/10.48433/cr_m188
Funding:
German Research Foundation (DFG), grant/award no. 274762653: TRR 181: Energietransfer in der Atmosphäre und im Ozean
Coverage:
Median Latitude: -32.885537 * Median Longitude: 5.474521 * South-bound Latitude: -34.126800 * West-bound Longitude: 3.564500 * North-bound Latitude: -31.645200 * East-bound Longitude: 7.409200
Date/Time Start: 2023-03-10T10:28:00 * Date/Time End: 2023-04-10T05:30:00
Minimum DEPTH, water: 0.0 m * Maximum DEPTH, water: 5271.6 m
Event(s):
M188_1-1 * Latitude: -32.666780 * Longitude: 6.933750 * Date/Time: 2023-03-10T11:59:00 * Elevation: -5120.0 m * Location: Eastern South Atlantic * Campaign: M188 (SONETT II) * Basis: Meteor (1986) * Method/Device: CTD/Rosette (CTD-RO) * Comment: SLmax = 5060m
M188_1-2 * Latitude: -32.666800 * Longitude: 6.933750 * Date/Time: 2023-03-10T15:17:00 * Elevation: -5120.0 m * Location: Eastern South Atlantic * Campaign: M188 (SONETT II) * Basis: Meteor (1986) * Method/Device: CTD/Rosette (CTD-RO) * Comment: SLmax = 5077m
M188_7-1 * Latitude: -32.215850 * Longitude: 4.802620 * Date/Time: 2023-03-23T22:45:00 * Elevation: -5081.0 m * Location: Eastern South Atlantic * Campaign: M188 (SONETT II) * Basis: Meteor (1986) * Method/Device: CTD/Rosette (CTD-RO) * Comment: SLmax = 5067m
Parameter(s):
| # | Name | Short Name | Unit | Principal Investigator | Method/Device | Comment |
|---|---|---|---|---|---|---|
| 1 | Event label | Event | Mertens, Christian | |||
| 2 | DATE/TIME | Date/Time | Mertens, Christian | Geocode | ||
| 3 | LATITUDE | Latitude | Mertens, Christian | Geocode | ||
| 4 | LONGITUDE | Longitude | Mertens, Christian | Geocode | ||
| 5 | DEPTH, water | Depth water | m | Mertens, Christian | Geocode | |
| 6 | Pressure, water | Press | dbar | Mertens, Christian | CTD, Sea-Bird, SBE 9plus | |
| 7 | Temperature, water | Temp | °C | Mertens, Christian | CTD, Sea-Bird, SBE 9plus | |
| 8 | Salinity | Sal | Mertens, Christian | CTD, Sea-Bird, SBE 9plus | PSU |
License:
Creative Commons Attribution 4.0 International (CC-BY-4.0)
Status:
Curation Level: Enhanced curation (CurationLevelC) * Processing Level: PANGAEA data processing level 3 (ProcLevel3)
Size:
944079 data points
Data
| 1 Event | 2 Date/Time | 3 Latitude | 4 Longitude | 5 Depth water [m] | 6 Press [dbar] | 7 Temp [°C] | 8 Sal |
|---|---|---|---|---|---|---|---|
| M188_1-1 | 2023-03-10T10:28:00 | -32.6665 | 6.9345 | 0.0 | 0.0 | 21.2748 | 35.6883 |
| M188_1-1 | 2023-03-10T10:28:00 | -32.6665 | 6.9345 | 1.0 | 1.0 | 21.2748 | 35.6883 |
| M188_1-1 | 2023-03-10T10:28:00 | -32.6665 | 6.9345 | 2.0 | 2.0 | 21.2748 | 35.6883 |
| M188_1-1 | 2023-03-10T10:28:00 | -32.6665 | 6.9345 | 3.0 | 3.0 | 21.2748 | 35.6883 |
| M188_1-1 | 2023-03-10T10:28:00 | -32.6665 | 6.9345 | 4.0 | 4.0 | 21.2748 | 35.6883 |
| M188_1-1 | 2023-03-10T10:28:00 | -32.6665 | 6.9345 | 5.0 | 5.0 | 21.2424 | 35.7804 |
| M188_1-1 | 2023-03-10T10:28:00 | -32.6665 | 6.9345 | 6.0 | 6.0 | 21.2623 | 35.6952 |
| M188_1-1 | 2023-03-10T10:28:00 | -32.6665 | 6.9345 | 7.0 | 7.0 | 21.2615 | 35.6683 |
| M188_1-1 | 2023-03-10T10:28:00 | -32.6665 | 6.9345 | 7.9 | 8.0 | 21.2439 | 35.6951 |
| M188_1-1 | 2023-03-10T10:28:00 | -32.6665 | 6.9345 | 8.9 | 9.0 | 21.2540 | 35.4747 |
| M188_1-1 | 2023-03-10T10:28:00 | -32.6665 | 6.9345 | 9.9 | 10.0 | 21.2729 | 35.0221 |
| M188_1-1 | 2023-03-10T10:28:00 | -32.6665 | 6.9345 | 10.9 | 11.0 | 21.2440 | 35.7303 |
| M188_1-1 | 2023-03-10T10:28:00 | -32.6665 | 6.9345 | 11.9 | 12.0 | 21.2388 | 35.8126 |
| M188_1-1 | 2023-03-10T10:28:00 | -32.6665 | 6.9345 | 12.9 | 13.0 | 21.2300 | 35.8833 |
| M188_1-1 | 2023-03-10T10:28:00 | -32.6665 | 6.9345 | 13.9 | 14.0 | 21.2310 | 35.8804 |
| M188_1-1 | 2023-03-10T10:28:00 | -32.6665 | 6.9345 | 14.9 | 15.0 | 21.2317 | 35.8802 |
| M188_1-1 | 2023-03-10T10:28:00 | -32.6665 | 6.9345 | 15.9 | 16.0 | 21.2307 | 35.8804 |
| M188_1-1 | 2023-03-10T10:28:00 | -32.6665 | 6.9345 | 16.9 | 17.0 | 21.2308 | 35.8805 |
| M188_1-1 | 2023-03-10T10:28:00 | -32.6665 | 6.9345 | 17.9 | 18.0 | 21.2308 | 35.8804 |
| M188_1-1 | 2023-03-10T10:28:00 | -32.6665 | 6.9345 | 18.9 | 19.0 | 21.2309 | 35.8805 |
| M188_1-1 | 2023-03-10T10:28:00 | -32.6665 | 6.9345 | 19.9 | 20.0 | 21.2312 | 35.8805 |
| M188_1-1 | 2023-03-10T10:28:00 | -32.6665 | 6.9345 | 20.9 | 21.0 | 21.2313 | 35.8806 |
| M188_1-1 | 2023-03-10T10:28:00 | -32.6665 | 6.9345 | 21.8 | 22.0 | 21.2322 | 35.8805 |
| M188_1-1 | 2023-03-10T10:28:00 | -32.6665 | 6.9345 | 22.8 | 23.0 | 21.2322 | 35.8805 |
| M188_1-1 | 2023-03-10T10:28:00 | -32.6665 | 6.9345 | 23.8 | 24.0 | 21.2324 | 35.8804 |
| M188_1-1 | 2023-03-10T10:28:00 | -32.6665 | 6.9345 | 24.8 | 25.0 | 21.2329 | 35.8804 |
| M188_1-1 | 2023-03-10T10:28:00 | -32.6665 | 6.9345 | 25.8 | 26.0 | 21.2335 | 35.8803 |
| M188_1-1 | 2023-03-10T10:28:00 | -32.6665 | 6.9345 | 26.8 | 27.0 | 21.2339 | 35.8804 |
| M188_1-1 | 2023-03-10T10:28:00 | -32.6665 | 6.9345 | 27.8 | 28.0 | 21.2339 | 35.8803 |
| M188_1-1 | 2023-03-10T10:28:00 | -32.6665 | 6.9345 | 28.8 | 29.0 | 21.2337 | 35.8805 |
| M188_1-1 | 2023-03-10T10:28:00 | -32.6665 | 6.9345 | 29.8 | 30.0 | 21.2335 | 35.8805 |
| M188_1-1 | 2023-03-10T10:28:00 | -32.6665 | 6.9345 | 30.8 | 31.0 | 21.2337 | 35.8805 |
| M188_1-1 | 2023-03-10T10:28:00 | -32.6665 | 6.9345 | 31.8 | 32.0 | 21.2341 | 35.8804 |
| M188_1-1 | 2023-03-10T10:28:00 | -32.6665 | 6.9345 | 32.8 | 33.0 | 21.2323 | 35.8807 |
| M188_1-1 | 2023-03-10T10:28:00 | -32.6665 | 6.9345 | 33.8 | 34.0 | 21.2295 | 35.8806 |
| M188_1-1 | 2023-03-10T10:28:00 | -32.6665 | 6.9345 | 34.8 | 35.0 | 21.2290 | 35.8807 |
| M188_1-1 | 2023-03-10T10:28:00 | -32.6665 | 6.9345 | 35.7 | 36.0 | 21.2266 | 35.8808 |
| M188_1-1 | 2023-03-10T10:28:00 | -32.6665 | 6.9345 | 36.7 | 37.0 | 21.2256 | 35.8808 |
| M188_1-1 | 2023-03-10T10:28:00 | -32.6665 | 6.9345 | 37.7 | 38.0 | 21.2256 | 35.8806 |
| M188_1-1 | 2023-03-10T10:28:00 | -32.6665 | 6.9345 | 38.7 | 39.0 | 21.2259 | 35.8805 |
| M188_1-1 | 2023-03-10T10:28:00 | -32.6665 | 6.9345 | 39.7 | 40.0 | 21.2262 | 35.8808 |
| M188_1-1 | 2023-03-10T10:28:00 | -32.6665 | 6.9345 | 40.7 | 41.0 | 21.2262 | 35.8809 |
| M188_1-1 | 2023-03-10T10:28:00 | -32.6665 | 6.9345 | 41.7 | 42.0 | 21.2259 | 35.8808 |
| M188_1-1 | 2023-03-10T10:28:00 | -32.6665 | 6.9345 | 42.7 | 43.0 | 21.2261 | 35.8808 |
| M188_1-1 | 2023-03-10T10:28:00 | -32.6665 | 6.9345 | 43.7 | 44.0 | 21.2263 | 35.8808 |
| M188_1-1 | 2023-03-10T10:28:00 | -32.6665 | 6.9345 | 44.7 | 45.0 | 21.2251 | 35.8807 |
| M188_1-1 | 2023-03-10T10:28:00 | -32.6665 | 6.9345 | 45.7 | 46.0 | 21.2250 | 35.8808 |
| M188_1-1 | 2023-03-10T10:28:00 | -32.6665 | 6.9345 | 46.7 | 47.0 | 21.2254 | 35.8808 |
| M188_1-1 | 2023-03-10T10:28:00 | -32.6665 | 6.9345 | 47.7 | 48.0 | 21.2253 | 35.8810 |
| M188_1-1 | 2023-03-10T10:28:00 | -32.6665 | 6.9345 | 48.7 | 49.0 | 21.2245 | 35.8808 |
| M188_1-1 | 2023-03-10T10:28:00 | -32.6665 | 6.9345 | 49.6 | 50.0 | 21.2239 | 35.8807 |
| M188_1-1 | 2023-03-10T10:28:00 | -32.6665 | 6.9345 | 50.6 | 51.0 | 21.2240 | 35.8807 |
| M188_1-1 | 2023-03-10T10:28:00 | -32.6665 | 6.9345 | 51.6 | 52.0 | 21.2231 | 35.8806 |
| M188_1-1 | 2023-03-10T10:28:00 | -32.6665 | 6.9345 | 52.6 | 53.0 | 21.2200 | 35.8804 |
| M188_1-1 | 2023-03-10T10:28:00 | -32.6665 | 6.9345 | 53.6 | 54.0 | 21.2185 | 35.8802 |
| M188_1-1 | 2023-03-10T10:28:00 | -32.6665 | 6.9345 | 54.6 | 55.0 | 21.2157 | 35.8796 |
| M188_1-1 | 2023-03-10T10:28:00 | -32.6665 | 6.9345 | 55.6 | 56.0 | 21.2100 | 35.8790 |
| M188_1-1 | 2023-03-10T10:28:00 | -32.6665 | 6.9345 | 56.6 | 57.0 | 21.1996 | 35.8774 |
| M188_1-1 | 2023-03-10T10:28:00 | -32.6665 | 6.9345 | 57.6 | 58.0 | 21.1955 | 35.8768 |
| M188_1-1 | 2023-03-10T10:28:00 | -32.6665 | 6.9345 | 58.6 | 59.0 | 21.1897 | 35.8761 |
| M188_1-1 | 2023-03-10T10:28:00 | -32.6665 | 6.9345 | 59.6 | 60.0 | 21.1882 | 35.8760 |
| M188_1-1 | 2023-03-10T10:28:00 | -32.6665 | 6.9345 | 60.6 | 61.0 | 21.1811 | 35.8748 |
| M188_1-1 | 2023-03-10T10:28:00 | -32.6665 | 6.9345 | 61.6 | 62.0 | 21.0660 | 35.8622 |
| M188_1-1 | 2023-03-10T10:28:00 | -32.6665 | 6.9345 | 62.5 | 63.0 | 20.9677 | 35.8547 |
| M188_1-1 | 2023-03-10T10:28:00 | -32.6665 | 6.9345 | 63.5 | 64.0 | 20.3908 | 35.7936 |
| M188_1-1 | 2023-03-10T10:28:00 | -32.6665 | 6.9345 | 64.5 | 65.0 | 19.6598 | 35.7597 |
| M188_1-1 | 2023-03-10T10:28:00 | -32.6665 | 6.9345 | 65.5 | 66.0 | 19.4473 | 35.7459 |
| M188_1-1 | 2023-03-10T10:28:00 | -32.6665 | 6.9345 | 66.5 | 67.0 | 19.2650 | 35.7323 |
| M188_1-1 | 2023-03-10T10:28:00 | -32.6665 | 6.9345 | 67.5 | 68.0 | 19.2256 | 35.7257 |
| M188_1-1 | 2023-03-10T10:28:00 | -32.6665 | 6.9345 | 68.5 | 69.0 | 19.1276 | 35.7112 |
| M188_1-1 | 2023-03-10T10:28:00 | -32.6665 | 6.9345 | 69.5 | 70.0 | 18.8442 | 35.7036 |
| M188_1-1 | 2023-03-10T10:28:00 | -32.6665 | 6.9345 | 70.5 | 71.0 | 18.6497 | 35.6921 |
| M188_1-1 | 2023-03-10T10:28:00 | -32.6665 | 6.9345 | 71.5 | 72.0 | 18.4708 | 35.6905 |
| M188_1-1 | 2023-03-10T10:28:00 | -32.6665 | 6.9345 | 72.5 | 73.0 | 18.3174 | 35.6847 |
| M188_1-1 | 2023-03-10T10:28:00 | -32.6665 | 6.9345 | 73.5 | 74.0 | 18.1984 | 35.6769 |
| M188_1-1 | 2023-03-10T10:28:00 | -32.6665 | 6.9345 | 74.5 | 75.0 | 18.0428 | 35.6630 |
| M188_1-1 | 2023-03-10T10:28:00 | -32.6665 | 6.9345 | 75.5 | 76.0 | 17.9871 | 35.6548 |
| M188_1-1 | 2023-03-10T10:28:00 | -32.6665 | 6.9345 | 76.4 | 77.0 | 17.9104 | 35.6490 |
| M188_1-1 | 2023-03-10T10:28:00 | -32.6665 | 6.9345 | 77.4 | 78.0 | 17.9117 | 35.6461 |
| M188_1-1 | 2023-03-10T10:28:00 | -32.6665 | 6.9345 | 78.4 | 79.0 | 17.8461 | 35.6404 |
| M188_1-1 | 2023-03-10T10:28:00 | -32.6665 | 6.9345 | 79.4 | 80.0 | 17.7623 | 35.6298 |
| M188_1-1 | 2023-03-10T10:28:00 | -32.6665 | 6.9345 | 80.4 | 81.0 | 17.7183 | 35.6274 |
| M188_1-1 | 2023-03-10T10:28:00 | -32.6665 | 6.9345 | 81.4 | 82.0 | 17.6724 | 35.6256 |
| M188_1-1 | 2023-03-10T10:28:00 | -32.6665 | 6.9345 | 82.4 | 83.0 | 17.6387 | 35.6222 |
| M188_1-1 | 2023-03-10T10:28:00 | -32.6665 | 6.9345 | 83.4 | 84.0 | 17.5734 | 35.6257 |
| M188_1-1 | 2023-03-10T10:28:00 | -32.6665 | 6.9345 | 84.4 | 85.0 | 17.5561 | 35.6245 |
| M188_1-1 | 2023-03-10T10:28:00 | -32.6665 | 6.9345 | 85.4 | 86.0 | 17.5135 | 35.6244 |
| M188_1-1 | 2023-03-10T10:28:00 | -32.6665 | 6.9345 | 86.4 | 87.0 | 17.4743 | 35.6254 |
| M188_1-1 | 2023-03-10T10:28:00 | -32.6665 | 6.9345 | 87.4 | 88.0 | 17.4583 | 35.6314 |
| M188_1-1 | 2023-03-10T10:28:00 | -32.6665 | 6.9345 | 88.4 | 89.0 | 17.3922 | 35.6305 |
| M188_1-1 | 2023-03-10T10:28:00 | -32.6665 | 6.9345 | 89.3 | 90.0 | 17.3586 | 35.6301 |
| M188_1-1 | 2023-03-10T10:28:00 | -32.6665 | 6.9345 | 90.3 | 91.0 | 17.2688 | 35.6290 |
| M188_1-1 | 2023-03-10T10:28:00 | -32.6665 | 6.9345 | 91.3 | 92.0 | 17.2156 | 35.6226 |
| M188_1-1 | 2023-03-10T10:28:00 | -32.6665 | 6.9345 | 92.3 | 93.0 | 17.1681 | 35.6210 |
| M188_1-1 | 2023-03-10T10:28:00 | -32.6665 | 6.9345 | 93.3 | 94.0 | 17.1435 | 35.6187 |
| M188_1-1 | 2023-03-10T10:28:00 | -32.6665 | 6.9345 | 94.3 | 95.0 | 17.1269 | 35.6174 |
| M188_1-1 | 2023-03-10T10:28:00 | -32.6665 | 6.9345 | 95.3 | 96.0 | 17.0924 | 35.6149 |
| M188_1-1 | 2023-03-10T10:28:00 | -32.6665 | 6.9345 | 96.3 | 97.0 | 17.0609 | 35.6135 |
| M188_1-1 | 2023-03-10T10:28:00 | -32.6665 | 6.9345 | 97.3 | 98.0 | 17.0468 | 35.6126 |
| M188_1-1 | 2023-03-10T10:28:00 | -32.6665 | 6.9345 | 98.3 | 99.0 | 17.0233 | 35.6114 |
| M188_1-1 | 2023-03-10T10:28:00 | -32.6665 | 6.9345 | 99.3 | 100.0 | 16.9610 | 35.6084 |
| M188_1-1 | 2023-03-10T10:28:00 | -32.6665 | 6.9345 | 100.3 | 101.0 | 16.8784 | 35.6028 |
| M188_1-1 | 2023-03-10T10:28:00 | -32.6665 | 6.9345 | 101.3 | 102.0 | 16.8174 | 35.5987 |
| M188_1-1 | 2023-03-10T10:28:00 | -32.6665 | 6.9345 | 102.3 | 103.0 | 16.7678 | 35.5962 |
| M188_1-1 | 2023-03-10T10:28:00 | -32.6665 | 6.9345 | 103.2 | 104.0 | 16.7167 | 35.5905 |
| M188_1-1 | 2023-03-10T10:28:00 | -32.6665 | 6.9345 | 104.2 | 105.0 | 16.6109 | 35.5878 |
| M188_1-1 | 2023-03-10T10:28:00 | -32.6665 | 6.9345 | 105.2 | 106.0 | 16.6850 | 35.5918 |
| M188_1-1 | 2023-03-10T10:28:00 | -32.6665 | 6.9345 | 106.2 | 107.0 | 16.6484 | 35.5874 |
| M188_1-1 | 2023-03-10T10:28:00 | -32.6665 | 6.9345 | 107.2 | 108.0 | 16.5186 | 35.5844 |
| M188_1-1 | 2023-03-10T10:28:00 | -32.6665 | 6.9345 | 108.2 | 109.0 | 16.4829 | 35.5827 |
| M188_1-1 | 2023-03-10T10:28:00 | -32.6665 | 6.9345 | 109.2 | 110.0 | 16.4571 | 35.5824 |
| M188_1-1 | 2023-03-10T10:28:00 | -32.6665 | 6.9345 | 110.2 | 111.0 | 16.4301 | 35.5818 |
| M188_1-1 | 2023-03-10T10:28:00 | -32.6665 | 6.9345 | 111.2 | 112.0 | 16.3662 | 35.5803 |
| M188_1-1 | 2023-03-10T10:28:00 | -32.6665 | 6.9345 | 112.2 | 113.0 | 16.3117 | 35.5787 |
| M188_1-1 | 2023-03-10T10:28:00 | -32.6665 | 6.9345 | 113.2 | 114.0 | 16.2629 | 35.5732 |
| M188_1-1 | 2023-03-10T10:28:00 | -32.6665 | 6.9345 | 114.2 | 115.0 | 16.1609 | 35.5547 |
| M188_1-1 | 2023-03-10T10:28:00 | -32.6665 | 6.9345 | 115.2 | 116.0 | 15.9732 | 35.5291 |
| M188_1-1 | 2023-03-10T10:28:00 | -32.6665 | 6.9345 | 116.1 | 117.0 | 15.9452 | 35.5235 |
| M188_1-1 | 2023-03-10T10:28:00 | -32.6665 | 6.9345 | 117.1 | 118.0 | 15.9124 | 35.5223 |
| M188_1-1 | 2023-03-10T10:28:00 | -32.6665 | 6.9345 | 118.1 | 119.0 | 15.8780 | 35.5226 |
| M188_1-1 | 2023-03-10T10:28:00 | -32.6665 | 6.9345 | 119.1 | 120.0 | 15.8637 | 35.5251 |
| M188_1-1 | 2023-03-10T10:28:00 | -32.6665 | 6.9345 | 120.1 | 121.0 | 15.8489 | 35.5281 |
| M188_1-1 | 2023-03-10T10:28:00 | -32.6665 | 6.9345 | 121.1 | 122.0 | 15.8199 | 35.5311 |
| M188_1-1 | 2023-03-10T10:28:00 | -32.6665 | 6.9345 | 122.1 | 123.0 | 15.7993 | 35.5322 |
| M188_1-1 | 2023-03-10T10:28:00 | -32.6665 | 6.9345 | 123.1 | 124.0 | 15.7916 | 35.5314 |
| M188_1-1 | 2023-03-10T10:28:00 | -32.6665 | 6.9345 | 124.1 | 125.0 | 15.7872 | 35.5305 |
| M188_1-1 | 2023-03-10T10:28:00 | -32.6665 | 6.9345 | 125.1 | 126.0 | 15.7778 | 35.5285 |
| M188_1-1 | 2023-03-10T10:28:00 | -32.6665 | 6.9345 | 126.1 | 127.0 | 15.7474 | 35.5240 |
| M188_1-1 | 2023-03-10T10:28:00 | -32.6665 | 6.9345 | 127.1 | 128.0 | 15.6995 | 35.5184 |
| M188_1-1 | 2023-03-10T10:28:00 | -32.6665 | 6.9345 | 128.1 | 129.0 | 15.6767 | 35.5149 |
| M188_1-1 | 2023-03-10T10:28:00 | -32.6665 | 6.9345 | 129.0 | 130.0 | 15.6340 | 35.5128 |
| M188_1-1 | 2023-03-10T10:28:00 | -32.6665 | 6.9345 | 130.0 | 131.0 | 15.6284 | 35.5169 |
| M188_1-1 | 2023-03-10T10:28:00 | -32.6665 | 6.9345 | 131.0 | 132.0 | 15.6184 | 35.5168 |
| M188_1-1 | 2023-03-10T10:28:00 | -32.6665 | 6.9345 | 132.0 | 133.0 | 15.5823 | 35.5128 |
| M188_1-1 | 2023-03-10T10:28:00 | -32.6665 | 6.9345 | 133.0 | 134.0 | 15.5543 | 35.5103 |
| M188_1-1 | 2023-03-10T10:28:00 | -32.6665 | 6.9345 | 134.0 | 135.0 | 15.5360 | 35.5080 |
| M188_1-1 | 2023-03-10T10:28:00 | -32.6665 | 6.9345 | 135.0 | 136.0 | 15.5168 | 35.5056 |
| M188_1-1 | 2023-03-10T10:28:00 | -32.6665 | 6.9345 | 136.0 | 137.0 | 15.4998 | 35.5031 |
| M188_1-1 | 2023-03-10T10:28:00 | -32.6665 | 6.9345 | 137.0 | 138.0 | 15.5112 | 35.5028 |
| M188_1-1 | 2023-03-10T10:28:00 | -32.6665 | 6.9345 | 138.0 | 139.0 | 15.4586 | 35.4950 |
| M188_1-1 | 2023-03-10T10:28:00 | -32.6665 | 6.9345 | 139.0 | 140.0 | 15.4287 | 35.4931 |
| M188_1-1 | 2023-03-10T10:28:00 | -32.6665 | 6.9345 | 140.0 | 141.0 | 15.4197 | 35.4915 |
| M188_1-1 | 2023-03-10T10:28:00 | -32.6665 | 6.9345 | 141.0 | 142.0 | 15.3829 | 35.4864 |
| M188_1-1 | 2023-03-10T10:28:00 | -32.6665 | 6.9345 | 141.9 | 143.0 | 15.3603 | 35.4836 |
| M188_1-1 | 2023-03-10T10:28:00 | -32.6665 | 6.9345 | 142.9 | 144.0 | 15.3464 | 35.4811 |
| M188_1-1 | 2023-03-10T10:28:00 | -32.6665 | 6.9345 | 143.9 | 145.0 | 15.3315 | 35.4793 |
| M188_1-1 | 2023-03-10T10:28:00 | -32.6665 | 6.9345 | 144.9 | 146.0 | 15.3222 | 35.4788 |
| M188_1-1 | 2023-03-10T10:28:00 | -32.6665 | 6.9345 | 145.9 | 147.0 | 15.2948 | 35.4786 |
| M188_1-1 | 2023-03-10T10:28:00 | -32.6665 | 6.9345 | 146.9 | 148.0 | 15.2694 | 35.4752 |
| M188_1-1 | 2023-03-10T10:28:00 | -32.6665 | 6.9345 | 147.9 | 149.0 | 15.2416 | 35.4707 |
| M188_1-1 | 2023-03-10T10:28:00 | -32.6665 | 6.9345 | 148.9 | 150.0 | 15.2118 | 35.4666 |
| M188_1-1 | 2023-03-10T10:28:00 | -32.6665 | 6.9345 | 149.9 | 151.0 | 15.1769 | 35.4636 |
| M188_1-1 | 2023-03-10T10:28:00 | -32.6665 | 6.9345 | 150.9 | 152.0 | 15.1609 | 35.4610 |
| M188_1-1 | 2023-03-10T10:28:00 | -32.6665 | 6.9345 | 151.9 | 153.0 | 15.1542 | 35.4597 |
| M188_1-1 | 2023-03-10T10:28:00 | -32.6665 | 6.9345 | 152.9 | 154.0 | 15.0997 | 35.4527 |
| M188_1-1 | 2023-03-10T10:28:00 | -32.6665 | 6.9345 | 153.9 | 155.0 | 15.0558 | 35.4448 |
| M188_1-1 | 2023-03-10T10:28:00 | -32.6665 | 6.9345 | 154.8 | 156.0 | 15.0341 | 35.4405 |
| M188_1-1 | 2023-03-10T10:28:00 | -32.6665 | 6.9345 | 155.8 | 157.0 | 15.0152 | 35.4371 |
| M188_1-1 | 2023-03-10T10:28:00 | -32.6665 | 6.9345 | 156.8 | 158.0 | 14.9729 | 35.4323 |
| M188_1-1 | 2023-03-10T10:28:00 | -32.6665 | 6.9345 | 157.8 | 159.0 | 14.9694 | 35.4315 |
| M188_1-1 | 2023-03-10T10:28:00 | -32.6665 | 6.9345 | 158.8 | 160.0 | 14.9353 | 35.4312 |
| M188_1-1 | 2023-03-10T10:28:00 | -32.6665 | 6.9345 | 159.8 | 161.0 | 14.9100 | 35.4302 |
| M188_1-1 | 2023-03-10T10:28:00 | -32.6665 | 6.9345 | 160.8 | 162.0 | 14.9078 | 35.4287 |
| M188_1-1 | 2023-03-10T10:28:00 | -32.6665 | 6.9345 | 161.8 | 163.0 | 14.8957 | 35.4255 |
| M188_1-1 | 2023-03-10T10:28:00 | -32.6665 | 6.9345 | 162.8 | 164.0 | 14.8787 | 35.4226 |
| M188_1-1 | 2023-03-10T10:28:00 | -32.6665 | 6.9345 | 163.8 | 165.0 | 14.8615 | 35.4204 |
| M188_1-1 | 2023-03-10T10:28:00 | -32.6665 | 6.9345 | 164.8 | 166.0 | 14.8480 | 35.4185 |
| M188_1-1 | 2023-03-10T10:28:00 | -32.6665 | 6.9345 | 165.8 | 167.0 | 14.8291 | 35.4166 |
| M188_1-1 | 2023-03-10T10:28:00 | -32.6665 | 6.9345 | 166.8 | 168.0 | 14.8213 | 35.4155 |
| M188_1-1 | 2023-03-10T10:28:00 | -32.6665 | 6.9345 | 167.7 | 169.0 | 14.8141 | 35.4141 |
| M188_1-1 | 2023-03-10T10:28:00 | -32.6665 | 6.9345 | 168.7 | 170.0 | 14.8008 | 35.4129 |
| M188_1-1 | 2023-03-10T10:28:00 | -32.6665 | 6.9345 | 169.7 | 171.0 | 14.7976 | 35.4129 |
| M188_1-1 | 2023-03-10T10:28:00 | -32.6665 | 6.9345 | 170.7 | 172.0 | 14.7844 | 35.4111 |
| M188_1-1 | 2023-03-10T10:28:00 | -32.6665 | 6.9345 | 171.7 | 173.0 | 14.7573 | 35.4091 |
| M188_1-1 | 2023-03-10T10:28:00 | -32.6665 | 6.9345 | 172.7 | 174.0 | 14.7281 | 35.4053 |
| M188_1-1 | 2023-03-10T10:28:00 | -32.6665 | 6.9345 | 173.7 | 175.0 | 14.7040 | 35.4028 |
| M188_1-1 | 2023-03-10T10:28:00 | -32.6665 | 6.9345 | 174.7 | 176.0 | 14.6894 | 35.4010 |
| M188_1-1 | 2023-03-10T10:28:00 | -32.6665 | 6.9345 | 175.7 | 177.0 | 14.6737 | 35.3980 |
| M188_1-1 | 2023-03-10T10:28:00 | -32.6665 | 6.9345 | 176.7 | 178.0 | 14.6469 | 35.3942 |
| M188_1-1 | 2023-03-10T10:28:00 | -32.6665 | 6.9345 | 177.7 | 179.0 | 14.6343 | 35.3921 |
| M188_1-1 | 2023-03-10T10:28:00 | -32.6665 | 6.9345 | 178.7 | 180.0 | 14.6311 | 35.3910 |
| M188_1-1 | 2023-03-10T10:28:00 | -32.6665 | 6.9345 | 179.7 | 181.0 | 14.6175 | 35.3887 |
| M188_1-1 | 2023-03-10T10:28:00 | -32.6665 | 6.9345 | 180.6 | 182.0 | 14.6044 | 35.3866 |
| M188_1-1 | 2023-03-10T10:28:00 | -32.6665 | 6.9345 | 181.6 | 183.0 | 14.5958 | 35.3851 |
| M188_1-1 | 2023-03-10T10:28:00 | -32.6665 | 6.9345 | 182.6 | 184.0 | 14.5887 | 35.3836 |
| M188_1-1 | 2023-03-10T10:28:00 | -32.6665 | 6.9345 | 183.6 | 185.0 | 14.5761 | 35.3812 |
| M188_1-1 | 2023-03-10T10:28:00 | -32.6665 | 6.9345 | 184.6 | 186.0 | 14.5650 | 35.3787 |
| M188_1-1 | 2023-03-10T10:28:00 | -32.6665 | 6.9345 | 185.6 | 187.0 | 14.5575 | 35.3764 |
| M188_1-1 | 2023-03-10T10:28:00 | -32.6665 | 6.9345 | 186.6 | 188.0 | 14.5545 | 35.3754 |
| M188_1-1 | 2023-03-10T10:28:00 | -32.6665 | 6.9345 | 187.6 | 189.0 | 14.5347 | 35.3708 |
| M188_1-1 | 2023-03-10T10:28:00 | -32.6665 | 6.9345 | 188.6 | 190.0 | 14.5049 | 35.3648 |
| M188_1-1 | 2023-03-10T10:28:00 | -32.6665 | 6.9345 | 189.6 | 191.0 | 14.4816 | 35.3594 |
| M188_1-1 | 2023-03-10T10:28:00 | -32.6665 | 6.9345 | 190.6 | 192.0 | 14.4545 | 35.3541 |
| M188_1-1 | 2023-03-10T10:28:00 | -32.6665 | 6.9345 | 191.6 | 193.0 | 14.4069 | 35.3482 |
| M188_1-1 | 2023-03-10T10:28:00 | -32.6665 | 6.9345 | 192.5 | 194.0 | 14.3784 | 35.3443 |
| M188_1-1 | 2023-03-10T10:28:00 | -32.6665 | 6.9345 | 193.5 | 195.0 | 14.3550 | 35.3402 |
| M188_1-1 | 2023-03-10T10:28:00 | -32.6665 | 6.9345 | 194.5 | 196.0 | 14.3495 | 35.3391 |
| M188_1-1 | 2023-03-10T10:28:00 | -32.6665 | 6.9345 | 195.5 | 197.0 | 14.3091 | 35.3329 |
| M188_1-1 | 2023-03-10T10:28:00 | -32.6665 | 6.9345 | 196.5 | 198.0 | 14.2633 | 35.3271 |
| M188_1-1 | 2023-03-10T10:28:00 | -32.6665 | 6.9345 | 197.5 | 199.0 | 14.2670 | 35.3303 |
| M188_1-1 | 2023-03-10T10:28:00 | -32.6665 | 6.9345 | 198.5 | 200.0 | 14.2634 | 35.3296 |
| M188_1-1 | 2023-03-10T10:28:00 | -32.6665 | 6.9345 | 199.5 | 201.0 | 14.2462 | 35.3261 |
| M188_1-1 | 2023-03-10T10:28:00 | -32.6665 | 6.9345 | 200.5 | 202.0 | 14.2305 | 35.3233 |
| M188_1-1 | 2023-03-10T10:28:00 | -32.6665 | 6.9345 | 201.5 | 203.0 | 14.2286 | 35.3224 |
| M188_1-1 | 2023-03-10T10:28:00 | -32.6665 | 6.9345 | 202.5 | 204.0 | 14.1796 | 35.3118 |
| M188_1-1 | 2023-03-10T10:28:00 | -32.6665 | 6.9345 | 203.5 | 205.0 | 14.0523 | 35.2941 |
| M188_1-1 | 2023-03-10T10:28:00 | -32.6665 | 6.9345 | 204.5 | 206.0 | 14.0103 | 35.2875 |
| M188_1-1 | 2023-03-10T10:28:00 | -32.6665 | 6.9345 | 205.4 | 207.0 | 13.9925 | 35.2840 |
| M188_1-1 | 2023-03-10T10:28:00 | -32.6665 | 6.9345 | 206.4 | 208.0 | 13.9737 | 35.2798 |
| M188_1-1 | 2023-03-10T10:28:00 | -32.6665 | 6.9345 | 207.4 | 209.0 | 13.9347 | 35.2737 |
| M188_1-1 | 2023-03-10T10:28:00 | -32.6665 | 6.9345 | 208.4 | 210.0 | 13.8960 | 35.2680 |
| M188_1-1 | 2023-03-10T10:28:00 | -32.6665 | 6.9345 | 209.4 | 211.0 | 13.8655 | 35.2614 |
| M188_1-1 | 2023-03-10T10:28:00 | -32.6665 | 6.9345 | 210.4 | 212.0 | 13.8435 | 35.2580 |
| M188_1-1 | 2023-03-10T10:28:00 | -32.6665 | 6.9345 | 211.4 | 213.0 | 13.8291 | 35.2547 |
| M188_1-1 | 2023-03-10T10:28:00 | -32.6665 | 6.9345 | 212.4 | 214.0 | 13.7961 | 35.2493 |
| M188_1-1 | 2023-03-10T10:28:00 | -32.6665 | 6.9345 | 213.4 | 215.0 | 13.7628 | 35.2444 |
| M188_1-1 | 2023-03-10T10:28:00 | -32.6665 | 6.9345 | 214.4 | 216.0 | 13.7512 | 35.2429 |
| M188_1-1 | 2023-03-10T10:28:00 | -32.6665 | 6.9345 | 215.4 | 217.0 | 13.7456 | 35.2416 |
| M188_1-1 | 2023-03-10T10:28:00 | -32.6665 | 6.9345 | 216.4 | 218.0 | 13.7330 | 35.2395 |
| M188_1-1 | 2023-03-10T10:28:00 | -32.6665 | 6.9345 | 217.3 | 219.0 | 13.6976 | 35.2338 |
| M188_1-1 | 2023-03-10T10:28:00 | -32.6665 | 6.9345 | 218.3 | 220.0 | 13.6721 | 35.2305 |
| M188_1-1 | 2023-03-10T10:28:00 | -32.6665 | 6.9345 | 219.3 | 221.0 | 13.6596 | 35.2279 |
| M188_1-1 | 2023-03-10T10:28:00 | -32.6665 | 6.9345 | 220.3 | 222.0 | 13.6504 | 35.2258 |
| M188_1-1 | 2023-03-10T10:28:00 | -32.6665 | 6.9345 | 221.3 | 223.0 | 13.6439 | 35.2243 |
| M188_1-1 | 2023-03-10T10:28:00 | -32.6665 | 6.9345 | 222.3 | 224.0 | 13.6399 | 35.2231 |
| M188_1-1 | 2023-03-10T10:28:00 | -32.6665 | 6.9345 | 223.3 | 225.0 | 13.6317 | 35.2218 |
| M188_1-1 | 2023-03-10T10:28:00 | -32.6665 | 6.9345 | 224.3 | 226.0 | 13.6211 | 35.2208 |
| M188_1-1 | 2023-03-10T10:28:00 | -32.6665 | 6.9345 | 225.3 | 227.0 | 13.6195 | 35.2212 |
| M188_1-1 | 2023-03-10T10:28:00 | -32.6665 | 6.9345 | 226.3 | 228.0 | 13.6060 | 35.2185 |
| M188_1-1 | 2023-03-10T10:28:00 | -32.6665 | 6.9345 | 227.3 | 229.0 | 13.5686 | 35.2139 |
| M188_1-1 | 2023-03-10T10:28:00 | -32.6665 | 6.9345 | 228.3 | 230.0 | 13.5477 | 35.2119 |
| M188_1-1 | 2023-03-10T10:28:00 | -32.6665 | 6.9345 | 229.2 | 231.0 | 13.5427 | 35.2104 |
| M188_1-1 | 2023-03-10T10:28:00 | -32.6665 | 6.9345 | 230.2 | 232.0 | 13.5319 | 35.2089 |
| M188_1-1 | 2023-03-10T10:28:00 | -32.6665 | 6.9345 | 231.2 | 233.0 | 13.5100 | 35.2053 |
| M188_1-1 | 2023-03-10T10:28:00 | -32.6665 | 6.9345 | 232.2 | 234.0 | 13.4861 | 35.2016 |
| M188_1-1 | 2023-03-10T10:28:00 | -32.6665 | 6.9345 | 233.2 | 235.0 | 13.4784 | 35.1999 |
| M188_1-1 | 2023-03-10T10:28:00 | -32.6665 | 6.9345 | 234.2 | 236.0 | 13.4665 | 35.1987 |
| M188_1-1 | 2023-03-10T10:28:00 | -32.6665 | 6.9345 | 235.2 | 237.0 | 13.4418 | 35.1947 |
| M188_1-1 | 2023-03-10T10:28:00 | -32.6665 | 6.9345 | 236.2 | 238.0 | 13.4107 | 35.1912 |
| M188_1-1 | 2023-03-10T10:28:00 | -32.6665 | 6.9345 | 237.2 | 239.0 | 13.3956 | 35.1883 |
| M188_1-1 | 2023-03-10T10:28:00 | -32.6665 | 6.9345 | 238.2 | 240.0 | 13.3701 | 35.1854 |
| M188_1-1 | 2023-03-10T10:28:00 | -32.6665 | 6.9345 | 239.2 | 241.0 | 13.3443 | 35.1820 |
| M188_1-1 | 2023-03-10T10:28:00 | -32.6665 | 6.9345 | 240.2 | 242.0 | 13.3255 | 35.1799 |
| M188_1-1 | 2023-03-10T10:28:00 | -32.6665 | 6.9345 | 241.2 | 243.0 | 13.3097 | 35.1778 |
| M188_1-1 | 2023-03-10T10:28:00 | -32.6665 | 6.9345 | 242.1 | 244.0 | 13.2965 | 35.1766 |
| M188_1-1 | 2023-03-10T10:28:00 | -32.6665 | 6.9345 | 243.1 | 245.0 | 13.2927 | 35.1753 |
| M188_1-1 | 2023-03-10T10:28:00 | -32.6665 | 6.9345 | 244.1 | 246.0 | 13.2883 | 35.1742 |
| M188_1-1 | 2023-03-10T10:28:00 | -32.6665 | 6.9345 | 245.1 | 247.0 | 13.2670 | 35.1709 |
| M188_1-1 | 2023-03-10T10:28:00 | -32.6665 | 6.9345 | 246.1 | 248.0 | 13.2435 | 35.1683 |
| M188_1-1 | 2023-03-10T10:28:00 | -32.6665 | 6.9345 | 247.1 | 249.0 | 13.2178 | 35.1653 |
| M188_1-1 | 2023-03-10T10:28:00 | -32.6665 | 6.9345 | 248.1 | 250.0 | 13.1830 | 35.1630 |
| M188_1-1 | 2023-03-10T10:28:00 | -32.6665 | 6.9345 | 249.1 | 251.0 | 13.1823 | 35.1627 |
| M188_1-1 | 2023-03-10T10:28:00 | -32.6665 | 6.9345 | 250.1 | 252.0 | 13.1778 | 35.1620 |
| M188_1-1 | 2023-03-10T10:28:00 | -32.6665 | 6.9345 | 251.1 | 253.0 | 13.1715 | 35.1614 |
| M188_1-1 | 2023-03-10T10:28:00 | -32.6665 | 6.9345 | 252.1 | 254.0 | 13.1637 | 35.1599 |
| M188_1-1 | 2023-03-10T10:28:00 | -32.6665 | 6.9345 | 253.1 | 255.0 | 13.1584 | 35.1598 |
| M188_1-1 | 2023-03-10T10:28:00 | -32.6665 | 6.9345 | 254.0 | 256.0 | 13.1419 | 35.1566 |
| M188_1-1 | 2023-03-10T10:28:00 | -32.6665 | 6.9345 | 255.0 | 257.0 | 13.1355 | 35.1559 |
| M188_1-1 | 2023-03-10T10:28:00 | -32.6665 | 6.9345 | 256.0 | 258.0 | 13.1259 | 35.1542 |
| M188_1-1 | 2023-03-10T10:28:00 | -32.6665 | 6.9345 | 257.0 | 259.0 | 13.1195 | 35.1535 |
| M188_1-1 | 2023-03-10T10:28:00 | -32.6665 | 6.9345 | 258.0 | 260.0 | 13.1075 | 35.1522 |
| M188_1-1 | 2023-03-10T10:28:00 | -32.6665 | 6.9345 | 259.0 | 261.0 | 13.0937 | 35.1505 |
| M188_1-1 | 2023-03-10T10:28:00 | -32.6665 | 6.9345 | 260.0 | 262.0 | 13.0580 | 35.1474 |
| M188_1-1 | 2023-03-10T10:28:00 | -32.6665 | 6.9345 | 261.0 | 263.0 | 13.0208 | 35.1450 |
| M188_1-1 | 2023-03-10T10:28:00 | -32.6665 | 6.9345 | 262.0 | 264.0 | 13.0013 | 35.1432 |
| M188_1-1 | 2023-03-10T10:28:00 | -32.6665 | 6.9345 | 263.0 | 265.0 | 12.9909 | 35.1421 |
| M188_1-1 | 2023-03-10T10:28:00 | -32.6665 | 6.9345 | 264.0 | 266.0 | 12.9890 | 35.1420 |
| M188_1-1 | 2023-03-10T10:28:00 | -32.6665 | 6.9345 | 265.0 | 267.0 | 12.9808 | 35.1409 |
| M188_1-1 | 2023-03-10T10:28:00 | -32.6665 | 6.9345 | 265.9 | 268.0 | 12.9741 | 35.1408 |
| M188_1-1 | 2023-03-10T10:28:00 | -32.6665 | 6.9345 | 266.9 | 269.0 | 12.9400 | 35.1373 |
| M188_1-1 | 2023-03-10T10:28:00 | -32.6665 | 6.9345 | 267.9 | 270.0 | 12.9252 | 35.1365 |
| M188_1-1 | 2023-03-10T10:28:00 | -32.6665 | 6.9345 | 268.9 | 271.0 | 12.8924 | 35.1344 |
| M188_1-1 | 2023-03-10T10:28:00 | -32.6665 | 6.9345 | 269.9 | 272.0 | 12.8756 | 35.1333 |
| M188_1-1 | 2023-03-10T10:28:00 | -32.6665 | 6.9345 | 270.9 | 273.0 | 12.8641 | 35.1317 |
| M188_1-1 | 2023-03-10T10:28:00 | -32.6665 | 6.9345 | 271.9 | 274.0 | 12.8397 | 35.1281 |
| M188_1-1 | 2023-03-10T10:28:00 | -32.6665 | 6.9345 | 272.9 | 275.0 | 12.8296 | 35.1265 |
| M188_1-1 | 2023-03-10T10:28:00 | -32.6665 | 6.9345 | 273.9 | 276.0 | 12.8118 | 35.1232 |
| M188_1-1 | 2023-03-10T10:28:00 | -32.6665 | 6.9345 | 274.9 | 277.0 | 12.7798 | 35.1222 |
| M188_1-1 | 2023-03-10T10:28:00 | -32.6665 | 6.9345 | 275.9 | 278.0 | 12.7649 | 35.1236 |
| M188_1-1 | 2023-03-10T10:28:00 | -32.6665 | 6.9345 | 276.9 | 279.0 | 12.7540 | 35.1217 |
| M188_1-1 | 2023-03-10T10:28:00 | -32.6665 | 6.9345 | 277.8 | 280.0 | 12.7402 | 35.1201 |
| M188_1-1 | 2023-03-10T10:28:00 | -32.6665 | 6.9345 | 278.8 | 281.0 | 12.7374 | 35.1195 |
| M188_1-1 | 2023-03-10T10:28:00 | -32.6665 | 6.9345 | 279.8 | 282.0 | 12.7332 | 35.1188 |
| M188_1-1 | 2023-03-10T10:28:00 | -32.6665 | 6.9345 | 280.8 | 283.0 | 12.7266 | 35.1182 |
| M188_1-1 | 2023-03-10T10:28:00 | -32.6665 | 6.9345 | 281.8 | 284.0 | 12.7196 | 35.1173 |
| M188_1-1 | 2023-03-10T10:28:00 | -32.6665 | 6.9345 | 282.8 | 285.0 | 12.6983 | 35.1148 |
| M188_1-1 | 2023-03-10T10:28:00 | -32.6665 | 6.9345 | 283.8 | 286.0 | 12.6765 | 35.1127 |
| M188_1-1 | 2023-03-10T10:28:00 | -32.6665 | 6.9345 | 284.8 | 287.0 | 12.6667 | 35.1119 |
| M188_1-1 | 2023-03-10T10:28:00 | -32.6665 | 6.9345 | 285.8 | 288.0 | 12.6656 | 35.1118 |
| M188_1-1 | 2023-03-10T10:28:00 | -32.6665 | 6.9345 | 286.8 | 289.0 | 12.6636 | 35.1116 |
| M188_1-1 | 2023-03-10T10:28:00 | -32.6665 | 6.9345 | 287.8 | 290.0 | 12.6603 | 35.1125 |
| M188_1-1 | 2023-03-10T10:28:00 | -32.6665 | 6.9345 | 288.8 | 291.0 | 12.6566 | 35.1129 |
| M188_1-1 | 2023-03-10T10:28:00 | -32.6665 | 6.9345 | 289.7 | 292.0 | 12.6536 | 35.1129 |
| M188_1-1 | 2023-03-10T10:28:00 | -32.6665 | 6.9345 | 290.7 | 293.0 | 12.6557 | 35.1135 |
| M188_1-1 | 2023-03-10T10:28:00 | -32.6665 | 6.9345 | 291.7 | 294.0 | 12.6489 | 35.1128 |
| M188_1-1 | 2023-03-10T10:28:00 | -32.6665 | 6.9345 | 292.7 | 295.0 | 12.6418 | 35.1123 |
| M188_1-1 | 2023-03-10T10:28:00 | -32.6665 | 6.9345 | 293.7 | 296.0 | 12.6383 | 35.1117 |
| M188_1-1 | 2023-03-10T10:28:00 | -32.6665 | 6.9345 | 294.7 | 297.0 | 12.6271 | 35.1104 |
| M188_1-1 | 2023-03-10T10:28:00 | -32.6665 | 6.9345 | 295.7 | 298.0 | 12.6060 | 35.1081 |
| M188_1-1 | 2023-03-10T10:28:00 | -32.6665 | 6.9345 | 296.7 | 299.0 | 12.6000 | 35.1072 |
| M188_1-1 | 2023-03-10T10:28:00 | -32.6665 | 6.9345 | 297.7 | 300.0 | 12.5956 | 35.1063 |
| M188_1-1 | 2023-03-10T10:28:00 | -32.6665 | 6.9345 | 298.7 | 301.0 | 12.5734 | 35.1037 |
| M188_1-1 | 2023-03-10T10:28:00 | -32.6665 | 6.9345 | 299.7 | 302.0 | 12.5622 | 35.1029 |
| M188_1-1 | 2023-03-10T10:28:00 | -32.6665 | 6.9345 | 300.7 | 303.0 | 12.5546 | 35.1027 |
| M188_1-1 | 2023-03-10T10:28:00 | -32.6665 | 6.9345 | 301.6 | 304.0 | 12.5593 | 35.1065 |
| M188_1-1 | 2023-03-10T10:28:00 | -32.6665 | 6.9345 | 302.6 | 305.0 | 12.5660 | 35.1092 |
| M188_1-1 | 2023-03-10T10:28:00 | -32.6665 | 6.9345 | 303.6 | 306.0 | 12.5657 | 35.1096 |
| M188_1-1 | 2023-03-10T10:28:00 | -32.6665 | 6.9345 | 304.6 | 307.0 | 12.5542 | 35.1085 |
| M188_1-1 | 2023-03-10T10:28:00 | -32.6665 | 6.9345 | 305.6 | 308.0 | 12.5126 | 35.1046 |
| M188_1-1 | 2023-03-10T10:28:00 | -32.6665 | 6.9345 | 306.6 | 309.0 | 12.4927 | 35.1018 |
| M188_1-1 | 2023-03-10T10:28:00 | -32.6665 | 6.9345 | 307.6 | 310.0 | 12.4700 | 35.1000 |
| M188_1-1 | 2023-03-10T10:28:00 | -32.6665 | 6.9345 | 308.6 | 311.0 | 12.4592 | 35.0987 |
| M188_1-1 | 2023-03-10T10:28:00 | -32.6665 | 6.9345 | 309.6 | 312.0 | 12.4211 | 35.0944 |
| M188_1-1 | 2023-03-10T10:28:00 | -32.6665 | 6.9345 | 310.6 | 313.0 | 12.3926 | 35.0918 |
| M188_1-1 | 2023-03-10T10:28:00 | -32.6665 | 6.9345 | 311.6 | 314.0 | 12.3641 | 35.0889 |
| M188_1-1 | 2023-03-10T10:28:00 | -32.6665 | 6.9345 | 312.5 | 315.0 | 12.3504 | 35.0874 |
| M188_1-1 | 2023-03-10T10:28:00 | -32.6665 | 6.9345 | 313.5 | 316.0 | 12.3302 | 35.0844 |
| M188_1-1 | 2023-03-10T10:28:00 | -32.6665 | 6.9345 | 314.5 | 317.0 | 12.3202 | 35.0838 |
| M188_1-1 | 2023-03-10T10:28:00 | -32.6665 | 6.9345 | 315.5 | 318.0 | 12.3187 | 35.0830 |
| M188_1-1 | 2023-03-10T10:28:00 | -32.6665 | 6.9345 | 316.5 | 319.0 | 12.3105 | 35.0816 |
| M188_1-1 | 2023-03-10T10:28:00 | -32.6665 | 6.9345 | 317.5 | 320.0 | 12.2991 | 35.0800 |
| M188_1-1 | 2023-03-10T10:28:00 | -32.6665 | 6.9345 | 318.5 | 321.0 | 12.2742 | 35.0774 |
| M188_1-1 | 2023-03-10T10:28:00 | -32.6665 | 6.9345 | 319.5 | 322.0 | 12.2450 | 35.0739 |
| M188_1-1 | 2023-03-10T10:28:00 | -32.6665 | 6.9345 | 320.5 | 323.0 | 12.2371 | 35.0726 |
| M188_1-1 | 2023-03-10T10:28:00 | -32.6665 | 6.9345 | 321.5 | 324.0 | 12.2263 | 35.0708 |
| M188_1-1 | 2023-03-10T10:28:00 | -32.6665 | 6.9345 | 322.5 | 325.0 | 12.2126 | 35.0693 |
| M188_1-1 | 2023-03-10T10:28:00 | -32.6665 | 6.9345 | 323.5 | 326.0 | 12.1945 | 35.0673 |
| M188_1-1 | 2023-03-10T10:28:00 | -32.6665 | 6.9345 | 324.4 | 327.0 | 12.1800 | 35.0657 |
| M188_1-1 | 2023-03-10T10:28:00 | -32.6665 | 6.9345 | 325.4 | 328.0 | 12.1718 | 35.0647 |
| M188_1-1 | 2023-03-10T10:28:00 | -32.6665 | 6.9345 | 326.4 | 329.0 | 12.1618 | 35.0630 |
| M188_1-1 | 2023-03-10T10:28:00 | -32.6665 | 6.9345 | 327.4 | 330.0 | 12.1452 | 35.0609 |
| M188_1-1 | 2023-03-10T10:28:00 | -32.6665 | 6.9345 | 328.4 | 331.0 | 12.1016 | 35.0566 |
| M188_1-1 | 2023-03-10T10:28:00 | -32.6665 | 6.9345 | 329.4 | 332.0 | 12.0591 | 35.0509 |
| M188_1-1 | 2023-03-10T10:28:00 | -32.6665 | 6.9345 | 330.4 | 333.0 | 12.0466 | 35.0489 |
| M188_1-1 | 2023-03-10T10:28:00 | -32.6665 | 6.9345 | 331.4 | 334.0 | 12.0318 | 35.0471 |
| M188_1-1 | 2023-03-10T10:28:00 | -32.6665 | 6.9345 | 332.4 | 335.0 | 12.0200 | 35.0460 |
| M188_1-1 | 2023-03-10T10:28:00 | -32.6665 | 6.9345 | 333.4 | 336.0 | 12.0047 | 35.0447 |
| M188_1-1 | 2023-03-10T10:28:00 | -32.6665 | 6.9345 | 334.4 | 337.0 | 11.9941 | 35.0438 |
| M188_1-1 | 2023-03-10T10:28:00 | -32.6665 | 6.9345 | 335.4 | 338.0 | 11.9819 | 35.0427 |
| M188_1-1 | 2023-03-10T10:28:00 | -32.6665 | 6.9345 | 336.3 | 339.0 | 11.9766 | 35.0423 |
| M188_1-1 | 2023-03-10T10:28:00 | -32.6665 | 6.9345 | 337.3 | 340.0 | 11.9747 | 35.0419 |
| M188_1-1 | 2023-03-10T10:28:00 | -32.6665 | 6.9345 | 338.3 | 341.0 | 11.9518 | 35.0381 |
| M188_1-1 | 2023-03-10T10:28:00 | -32.6665 | 6.9345 | 339.3 | 342.0 | 11.9306 | 35.0358 |
| M188_1-1 | 2023-03-10T10:28:00 | -32.6665 | 6.9345 | 340.3 | 343.0 | 11.9330 | 35.0355 |
| M188_1-1 | 2023-03-10T10:28:00 | -32.6665 | 6.9345 | 341.3 | 344.0 | 11.9420 | 35.0351 |
| M188_1-1 | 2023-03-10T10:28:00 | -32.6665 | 6.9345 | 342.3 | 345.0 | 11.8879 | 35.0284 |
| M188_1-1 | 2023-03-10T10:28:00 | -32.6665 | 6.9345 | 343.3 | 346.0 | 11.8480 | 35.0239 |
| M188_1-1 | 2023-03-10T10:28:00 | -32.6665 | 6.9345 | 344.3 | 347.0 | 11.8363 | 35.0221 |
| M188_1-1 | 2023-03-10T10:28:00 | -32.6665 | 6.9345 | 345.3 | 348.0 | 11.8197 | 35.0197 |
| M188_1-1 | 2023-03-10T10:28:00 | -32.6665 | 6.9345 | 346.3 | 349.0 | 11.7954 | 35.0168 |
| M188_1-1 | 2023-03-10T10:28:00 | -32.6665 | 6.9345 | 347.2 | 350.0 | 11.7830 | 35.0150 |
| M188_1-1 | 2023-03-10T10:28:00 | -32.6665 | 6.9345 | 348.2 | 351.0 | 11.7357 | 35.0095 |
| M188_1-1 | 2023-03-10T10:28:00 | -32.6665 | 6.9345 | 349.2 | 352.0 | 11.7169 | 35.0082 |
| M188_1-1 | 2023-03-10T10:28:00 | -32.6665 | 6.9345 | 350.2 | 353.0 | 11.7086 | 35.0065 |
| M188_1-1 | 2023-03-10T10:28:00 | -32.6665 | 6.9345 | 351.2 | 354.0 | 11.7061 | 35.0055 |
| M188_1-1 | 2023-03-10T10:28:00 | -32.6665 | 6.9345 | 352.2 | 355.0 | 11.7095 | 35.0048 |
| M188_1-1 | 2023-03-10T10:28:00 | -32.6665 | 6.9345 | 353.2 | 356.0 | 11.6792 | 35.0003 |
| M188_1-1 | 2023-03-10T10:28:00 | -32.6665 | 6.9345 | 354.2 | 357.0 | 11.6471 | 34.9973 |
| M188_1-1 | 2023-03-10T10:28:00 | -32.6665 | 6.9345 | 355.2 | 358.0 | 11.6389 | 34.9958 |
| M188_1-1 | 2023-03-10T10:28:00 | -32.6665 | 6.9345 | 356.2 | 359.0 | 11.6162 | 34.9927 |
| M188_1-1 | 2023-03-10T10:28:00 | -32.6665 | 6.9345 | 357.2 | 360.0 | 11.5883 | 34.9887 |
| M188_1-1 | 2023-03-10T10:28:00 | -32.6665 | 6.9345 | 358.2 | 361.0 | 11.5576 | 34.9846 |
| M188_1-1 | 2023-03-10T10:28:00 | -32.6665 | 6.9345 | 359.1 | 362.0 | 11.5349 | 34.9814 |
| M188_1-1 | 2023-03-10T10:28:00 | -32.6665 | 6.9345 | 360.1 | 363.0 | 11.5044 | 34.9774 |
| M188_1-1 | 2023-03-10T10:28:00 | -32.6665 | 6.9345 | 361.1 | 364.0 | 11.4944 | 34.9761 |
| M188_1-1 | 2023-03-10T10:28:00 | -32.6665 | 6.9345 | 362.1 | 365.0 | 11.4913 | 34.9753 |
| M188_1-1 | 2023-03-10T10:28:00 | -32.6665 | 6.9345 | 363.1 | 366.0 | 11.4766 | 34.9729 |
| M188_1-1 | 2023-03-10T10:28:00 | -32.6665 | 6.9345 | 364.1 | 367.0 | 11.4643 | 34.9702 |
| M188_1-1 | 2023-03-10T10:28:00 | -32.6665 | 6.9345 | 365.1 | 368.0 | 11.4638 | 34.9705 |
| M188_1-1 | 2023-03-10T10:28:00 | -32.6665 | 6.9345 | 366.1 | 369.0 | 11.4530 | 34.9692 |
| M188_1-1 | 2023-03-10T10:28:00 | -32.6665 | 6.9345 | 367.1 | 370.0 | 11.4458 | 34.9684 |
| M188_1-1 | 2023-03-10T10:28:00 | -32.6665 | 6.9345 | 368.1 | 371.0 | 11.4410 | 34.9679 |
| M188_1-1 | 2023-03-10T10:28:00 | -32.6665 | 6.9345 | 369.1 | 372.0 | 11.4357 | 34.9669 |
| M188_1-1 | 2023-03-10T10:28:00 | -32.6665 | 6.9345 | 370.0 | 373.0 | 11.4374 | 34.9663 |
| M188_1-1 | 2023-03-10T10:28:00 | -32.6665 | 6.9345 | 371.0 | 374.0 | 11.4304 | 34.9660 |
| M188_1-1 | 2023-03-10T10:28:00 | -32.6665 | 6.9345 | 372.0 | 375.0 | 11.4220 | 34.9645 |
| M188_1-1 | 2023-03-10T10:28:00 | -32.6665 | 6.9345 | 373.0 | 376.0 | 11.4100 | 34.9627 |
| M188_1-1 | 2023-03-10T10:28:00 | -32.6665 | 6.9345 | 374.0 | 377.0 | 11.4087 | 34.9636 |
| M188_1-1 | 2023-03-10T10:28:00 | -32.6665 | 6.9345 | 375.0 | 378.0 | 11.4100 | 34.9633 |
| M188_1-1 | 2023-03-10T10:28:00 | -32.6665 | 6.9345 | 376.0 | 379.0 | 11.4209 | 34.9668 |
| M188_1-1 | 2023-03-10T10:28:00 | -32.6665 | 6.9345 | 377.0 | 380.0 | 11.4321 | 34.9691 |
| M188_1-1 | 2023-03-10T10:28:00 | -32.6665 | 6.9345 | 378.0 | 381.0 | 11.4468 | 34.9735 |
| M188_1-1 | 2023-03-10T10:28:00 | -32.6665 | 6.9345 | 379.0 | 382.0 | 11.4718 | 34.9791 |
| M188_1-1 | 2023-03-10T10:28:00 | -32.6665 | 6.9345 | 380.0 | 383.0 | 11.4667 | 34.9788 |
| M188_1-1 | 2023-03-10T10:28:00 | -32.6665 | 6.9345 | 380.9 | 384.0 | 11.4413 | 34.9754 |
| M188_1-1 | 2023-03-10T10:28:00 | -32.6665 | 6.9345 | 381.9 | 385.0 | 11.4200 | 34.9727 |
| M188_1-1 | 2023-03-10T10:28:00 | -32.6665 | 6.9345 | 382.9 | 386.0 | 11.4148 | 34.9716 |
| M188_1-1 | 2023-03-10T10:28:00 | -32.6665 | 6.9345 | 383.9 | 387.0 | 11.4013 | 34.9701 |
| M188_1-1 | 2023-03-10T10:28:00 | -32.6665 | 6.9345 | 384.9 | 388.0 | 11.3908 | 34.9689 |
| M188_1-1 | 2023-03-10T10:28:00 | -32.6665 | 6.9345 | 385.9 | 389.0 | 11.3819 | 34.9677 |
| M188_1-1 | 2023-03-10T10:28:00 | -32.6665 | 6.9345 | 386.9 | 390.0 | 11.3591 | 34.9644 |
| M188_1-1 | 2023-03-10T10:28:00 | -32.6665 | 6.9345 | 387.9 | 391.0 | 11.3441 | 34.9626 |
| M188_1-1 | 2023-03-10T10:28:00 | -32.6665 | 6.9345 | 388.9 | 392.0 | 11.3309 | 34.9603 |
| M188_1-1 | 2023-03-10T10:28:00 | -32.6665 | 6.9345 | 389.9 | 393.0 | 11.3160 | 34.9584 |
| M188_1-1 | 2023-03-10T10:28:00 | -32.6665 | 6.9345 | 390.9 | 394.0 | 11.3012 | 34.9559 |
| M188_1-1 | 2023-03-10T10:28:00 | -32.6665 | 6.9345 | 391.9 | 395.0 | 11.2935 | 34.9541 |
| M188_1-1 | 2023-03-10T10:28:00 | -32.6665 | 6.9345 | 392.8 | 396.0 | 11.2845 | 34.9530 |
| M188_1-1 | 2023-03-10T10:28:00 | -32.6665 | 6.9345 | 393.8 | 397.0 | 11.2700 | 34.9513 |
| M188_1-1 | 2023-03-10T10:28:00 | -32.6665 | 6.9345 | 394.8 | 398.0 | 11.2521 | 34.9491 |
| M188_1-1 | 2023-03-10T10:28:00 | -32.6665 | 6.9345 | 395.8 | 399.0 | 11.2249 | 34.9452 |
| M188_1-1 | 2023-03-10T10:28:00 | -32.6665 | 6.9345 | 396.8 | 400.0 | 11.1909 | 34.9411 |
| M188_1-1 | 2023-03-10T10:28:00 | -32.6665 | 6.9345 | 397.8 | 401.0 | 11.1760 | 34.9387 |
| M188_1-1 | 2023-03-10T10:28:00 | -32.6665 | 6.9345 | 398.8 | 402.0 | 11.1605 | 34.9362 |
| M188_1-1 | 2023-03-10T10:28:00 | -32.6665 | 6.9345 | 399.8 | 403.0 | 11.1499 | 34.9351 |
| M188_1-1 | 2023-03-10T10:28:00 | -32.6665 | 6.9345 | 400.8 | 404.0 | 11.1505 | 34.9347 |
| M188_1-1 | 2023-03-10T10:28:00 | -32.6665 | 6.9345 | 401.8 | 405.0 | 11.1432 | 34.9336 |
| M188_1-1 | 2023-03-10T10:28:00 | -32.6665 | 6.9345 | 402.8 | 406.0 | 11.1051 | 34.9296 |
| M188_1-1 | 2023-03-10T10:28:00 | -32.6665 | 6.9345 | 403.7 | 407.0 | 11.0779 | 34.9263 |
| M188_1-1 | 2023-03-10T10:28:00 | -32.6665 | 6.9345 | 404.7 | 408.0 | 11.0710 | 34.9244 |
| M188_1-1 | 2023-03-10T10:28:00 | -32.6665 | 6.9345 | 405.7 | 409.0 | 11.0574 | 34.9217 |
| M188_1-1 | 2023-03-10T10:28:00 | -32.6665 | 6.9345 | 406.7 | 410.0 | 11.0391 | 34.9191 |
| M188_1-1 | 2023-03-10T10:28:00 | -32.6665 | 6.9345 | 407.7 | 411.0 | 11.0322 | 34.9179 |
| M188_1-1 | 2023-03-10T10:28:00 | -32.6665 | 6.9345 | 408.7 | 412.0 | 11.0240 | 34.9162 |
| M188_1-1 | 2023-03-10T10:28:00 | -32.6665 | 6.9345 | 409.7 | 413.0 | 11.0205 | 34.9157 |
| M188_1-1 | 2023-03-10T10:28:00 | -32.6665 | 6.9345 | 410.7 | 414.0 | 11.0047 | 34.9130 |
| M188_1-1 | 2023-03-10T10:28:00 | -32.6665 | 6.9345 | 411.7 | 415.0 | 10.9981 | 34.9130 |
| M188_1-1 | 2023-03-10T10:28:00 | -32.6665 | 6.9345 | 412.7 | 416.0 | 10.9934 | 34.9120 |
| M188_1-1 | 2023-03-10T10:28:00 | -32.6665 | 6.9345 | 413.7 | 417.0 | 10.9776 | 34.9105 |
| M188_1-1 | 2023-03-10T10:28:00 | -32.6665 | 6.9345 | 414.6 | 418.0 | 10.9575 | 34.9082 |
| M188_1-1 | 2023-03-10T10:28:00 | -32.6665 | 6.9345 | 415.6 | 419.0 | 10.9241 | 34.9047 |
| M188_1-1 | 2023-03-10T10:28:00 | -32.6665 | 6.9345 | 416.6 | 420.0 | 10.9119 | 34.9033 |
| M188_1-1 | 2023-03-10T10:28:00 | -32.6665 | 6.9345 | 417.6 | 421.0 | 10.8931 | 34.9008 |
| M188_1-1 | 2023-03-10T10:28:00 | -32.6665 | 6.9345 | 418.6 | 422.0 | 10.8766 | 34.8991 |
| M188_1-1 | 2023-03-10T10:28:00 | -32.6665 | 6.9345 | 419.6 | 423.0 | 10.8565 | 34.8961 |
| M188_1-1 | 2023-03-10T10:28:00 | -32.6665 | 6.9345 | 420.6 | 424.0 | 10.8376 | 34.8939 |
| M188_1-1 | 2023-03-10T10:28:00 | -32.6665 | 6.9345 | 421.6 | 425.0 | 10.8519 | 34.8943 |
| M188_1-1 | 2023-03-10T10:28:00 | -32.6665 | 6.9345 | 422.6 | 426.0 | 10.8245 | 34.8909 |
| M188_1-1 | 2023-03-10T10:28:00 | -32.6665 | 6.9345 | 423.6 | 427.0 | 10.8028 | 34.8877 |
| M188_1-1 | 2023-03-10T10:28:00 | -32.6665 | 6.9345 | 424.6 | 428.0 | 10.7748 | 34.8851 |
| M188_1-1 | 2023-03-10T10:28:00 | -32.6665 | 6.9345 | 425.5 | 429.0 | 10.7590 | 34.8819 |
| M188_1-1 | 2023-03-10T10:28:00 | -32.6665 | 6.9345 | 426.5 | 430.0 | 10.7280 | 34.8775 |
| M188_1-1 | 2023-03-10T10:28:00 | -32.6665 | 6.9345 | 427.5 | 431.0 | 10.7013 | 34.8738 |
| M188_1-1 | 2023-03-10T10:28:00 | -32.6665 | 6.9345 | 428.5 | 432.0 | 10.6755 | 34.8696 |
| M188_1-1 | 2023-03-10T10:28:00 | -32.6665 | 6.9345 | 429.5 | 433.0 | 10.6505 | 34.8666 |
| M188_1-1 | 2023-03-10T10:28:00 | -32.6665 | 6.9345 | 430.5 | 434.0 | 10.6359 | 34.8644 |
| M188_1-1 | 2023-03-10T10:28:00 | -32.6665 | 6.9345 | 431.5 | 435.0 | 10.6181 | 34.8626 |
| M188_1-1 | 2023-03-10T10:28:00 | -32.6665 | 6.9345 | 432.5 | 436.0 | 10.6025 | 34.8603 |
| M188_1-1 | 2023-03-10T10:28:00 | -32.6665 | 6.9345 | 433.5 | 437.0 | 10.5926 | 34.8587 |
| M188_1-1 | 2023-03-10T10:28:00 | -32.6665 | 6.9345 | 434.5 | 438.0 | 10.5768 | 34.8569 |
| M188_1-1 | 2023-03-10T10:28:00 | -32.6665 | 6.9345 | 435.5 | 439.0 | 10.5698 | 34.8564 |
| M188_1-1 | 2023-03-10T10:28:00 | -32.6665 | 6.9345 | 436.4 | 440.0 | 10.5616 | 34.8552 |
| M188_1-1 | 2023-03-10T10:28:00 | -32.6665 | 6.9345 | 437.4 | 441.0 | 10.5472 | 34.8532 |
| M188_1-1 | 2023-03-10T10:28:00 | -32.6665 | 6.9345 | 438.4 | 442.0 | 10.5386 | 34.8519 |
| M188_1-1 | 2023-03-10T10:28:00 | -32.6665 | 6.9345 | 439.4 | 443.0 | 10.5256 | 34.8497 |
| M188_1-1 | 2023-03-10T10:28:00 | -32.6665 | 6.9345 | 440.4 | 444.0 | 10.5003 | 34.8471 |
| M188_1-1 | 2023-03-10T10:28:00 | -32.6665 | 6.9345 | 441.4 | 445.0 | 10.4812 | 34.8445 |
| M188_1-1 | 2023-03-10T10:28:00 | -32.6665 | 6.9345 | 442.4 | 446.0 | 10.4759 | 34.8438 |
| M188_1-1 | 2023-03-10T10:28:00 | -32.6665 | 6.9345 | 443.4 | 447.0 | 10.4729 | 34.8432 |
| M188_1-1 | 2023-03-10T10:28:00 | -32.6665 | 6.9345 | 444.4 | 448.0 | 10.4613 | 34.8415 |
| M188_1-1 | 2023-03-10T10:28:00 | -32.6665 | 6.9345 | 445.4 | 449.0 | 10.4484 | 34.8403 |
| M188_1-1 | 2023-03-10T10:28:00 | -32.6665 | 6.9345 | 446.4 | 450.0 | 10.4020 | 34.8357 |
| M188_1-1 | 2023-03-10T10:28:00 | -32.6665 | 6.9345 | 447.3 | 451.0 | 10.3632 | 34.8313 |
| M188_1-1 | 2023-03-10T10:28:00 | -32.6665 | 6.9345 | 448.3 | 452.0 | 10.3444 | 34.8294 |
| M188_1-1 | 2023-03-10T10:28:00 | -32.6665 | 6.9345 | 449.3 | 453.0 | 10.4022 | 34.8324 |
| M188_1-1 | 2023-03-10T10:28:00 | -32.6665 | 6.9345 | 450.3 | 454.0 | 10.3256 | 34.8233 |
| M188_1-1 | 2023-03-10T10:28:00 | -32.6665 | 6.9345 | 451.3 | 455.0 | 10.2652 | 34.8192 |
| M188_1-1 | 2023-03-10T10:28:00 | -32.6665 | 6.9345 | 452.3 | 456.0 | 10.2309 | 34.8156 |
| M188_1-1 | 2023-03-10T10:28:00 | -32.6665 | 6.9345 | 453.3 | 457.0 | 10.2006 | 34.8118 |
| M188_1-1 | 2023-03-10T10:28:00 | -32.6665 | 6.9345 | 454.3 | 458.0 | 10.1754 | 34.8083 |
| M188_1-1 | 2023-03-10T10:28:00 | -32.6665 | 6.9345 | 455.3 | 459.0 | 10.1562 | 34.8053 |
| M188_1-1 | 2023-03-10T10:28:00 | -32.6665 | 6.9345 | 456.3 | 460.0 | 10.1446 | 34.8035 |
| M188_1-1 | 2023-03-10T10:28:00 | -32.6665 | 6.9345 | 457.3 | 461.0 | 10.1258 | 34.8002 |
| M188_1-1 | 2023-03-10T10:28:00 | -32.6665 | 6.9345 | 458.2 | 462.0 | 10.1045 | 34.7976 |
| M188_1-1 | 2023-03-10T10:28:00 | -32.6665 | 6.9345 | 459.2 | 463.0 | 10.1002 | 34.7967 |
| M188_1-1 | 2023-03-10T10:28:00 | -32.6665 | 6.9345 | 460.2 | 464.0 | 10.0878 | 34.7948 |
| M188_1-1 | 2023-03-10T10:28:00 | -32.6665 | 6.9345 | 461.2 | 465.0 | 10.0630 | 34.7913 |
| M188_1-1 | 2023-03-10T10:28:00 | -32.6665 | 6.9345 | 462.2 | 466.0 | 10.0391 | 34.7888 |
| M188_1-1 | 2023-03-10T10:28:00 | -32.6665 | 6.9345 | 463.2 | 467.0 | 10.0275 | 34.7867 |
| M188_1-1 | 2023-03-10T10:28:00 | -32.6665 | 6.9345 | 464.2 | 468.0 | 10.0131 | 34.7844 |
| M188_1-1 | 2023-03-10T10:28:00 | -32.6665 | 6.9345 | 465.2 | 469.0 | 10.0045 | 34.7828 |
| M188_1-1 | 2023-03-10T10:28:00 | -32.6665 | 6.9345 | 466.2 | 470.0 | 9.9849 | 34.7810 |
| M188_1-1 | 2023-03-10T10:28:00 | -32.6665 | 6.9345 | 467.2 | 471.0 | 9.9720 | 34.7794 |
| M188_1-1 | 2023-03-10T10:28:00 | -32.6665 | 6.9345 | 468.2 | 472.0 | 9.9347 | 34.7768 |
| M188_1-1 | 2023-03-10T10:28:00 | -32.6665 | 6.9345 | 469.1 | 473.0 | 9.9231 | 34.7759 |
| M188_1-1 | 2023-03-10T10:28:00 | -32.6665 | 6.9345 | 470.1 | 474.0 | 9.9096 | 34.7738 |
| M188_1-1 | 2023-03-10T10:28:00 | -32.6665 | 6.9345 | 471.1 | 475.0 | 9.8901 | 34.7716 |
| M188_1-1 | 2023-03-10T10:28:00 | -32.6665 | 6.9345 | 472.1 | 476.0 | 9.8829 | 34.7710 |
| M188_1-1 | 2023-03-10T10:28:00 | -32.6665 | 6.9345 | 473.1 | 477.0 | 9.8737 | 34.7698 |
| M188_1-1 | 2023-03-10T10:28:00 | -32.6665 | 6.9345 | 474.1 | 478.0 | 9.8856 | 34.7688 |
| M188_1-1 | 2023-03-10T10:28:00 | -32.6665 | 6.9345 | 475.1 | 479.0 | 9.8726 | 34.7679 |
| M188_1-1 | 2023-03-10T10:28:00 | -32.6665 | 6.9345 | 476.1 | 480.0 | 9.8547 | 34.7661 |
| M188_1-1 | 2023-03-10T10:28:00 | -32.6665 | 6.9345 | 477.1 | 481.0 | 9.8348 | 34.7637 |
| M188_1-1 | 2023-03-10T10:28:00 | -32.6665 | 6.9345 | 478.1 | 482.0 | 9.8159 | 34.7617 |
| M188_1-1 | 2023-03-10T10:28:00 | -32.6665 | 6.9345 | 479.0 | 483.0 | 9.8073 | 34.7601 |
| M188_1-1 | 2023-03-10T10:28:00 | -32.6665 | 6.9345 | 480.0 | 484.0 | 9.8014 | 34.7590 |
| M188_1-1 | 2023-03-10T10:28:00 | -32.6665 | 6.9345 | 481.0 | 485.0 | 9.7859 | 34.7567 |
| M188_1-1 | 2023-03-10T10:28:00 | -32.6665 | 6.9345 | 482.0 | 486.0 | 9.7775 | 34.7557 |
| M188_1-1 | 2023-03-10T10:28:00 | -32.6665 | 6.9345 | 483.0 | 487.0 | 9.7625 | 34.7536 |
| M188_1-1 | 2023-03-10T10:28:00 | -32.6665 | 6.9345 | 484.0 | 488.0 | 9.7353 | 34.7506 |
| M188_1-1 | 2023-03-10T10:28:00 | -32.6665 | 6.9345 | 485.0 | 489.0 | 9.7615 | 34.7532 |
| M188_1-1 | 2023-03-10T10:28:00 | -32.6665 | 6.9345 | 486.0 | 490.0 | 9.7528 | 34.7490 |
| M188_1-1 | 2023-03-10T10:28:00 | -32.6665 | 6.9345 | 487.0 | 491.0 | 9.6808 | 34.7433 |
| M188_1-1 | 2023-03-10T10:28:00 | -32.6665 | 6.9345 | 488.0 | 492.0 | 9.6680 | 34.7428 |
| M188_1-1 | 2023-03-10T10:28:00 | -32.6665 | 6.9345 | 489.0 | 493.0 | 9.6640 | 34.7416 |
| M188_1-1 | 2023-03-10T10:28:00 | -32.6665 | 6.9345 | 489.9 | 494.0 | 9.6556 | 34.7403 |
| M188_1-1 | 2023-03-10T10:28:00 | -32.6665 | 6.9345 | 490.9 | 495.0 | 9.6399 | 34.7382 |
| M188_1-1 | 2023-03-10T10:28:00 | -32.6665 | 6.9345 | 491.9 | 496.0 | 9.6329 | 34.7373 |
| M188_1-1 | 2023-03-10T10:28:00 | -32.6665 | 6.9345 | 492.9 | 497.0 | 9.6284 | 34.7363 |
| M188_1-1 | 2023-03-10T10:28:00 | -32.6665 | 6.9345 | 493.9 | 498.0 | 9.6105 | 34.7337 |
| M188_1-1 | 2023-03-10T10:28:00 | -32.6665 | 6.9345 | 494.9 | 499.0 | 9.6023 | 34.7333 |
| M188_1-1 | 2023-03-10T10:28:00 | -32.6665 | 6.9345 | 495.9 | 500.0 | 9.5949 | 34.7315 |
| M188_1-1 | 2023-03-10T10:28:00 | -32.6665 | 6.9345 | 496.9 | 501.0 | 9.5655 | 34.7280 |
| M188_1-1 | 2023-03-10T10:28:00 | -32.6665 | 6.9345 | 497.9 | 502.0 | 9.5357 | 34.7236 |
| M188_1-1 | 2023-03-10T10:28:00 | -32.6665 | 6.9345 | 498.9 | 503.0 | 9.4901 | 34.7190 |
| M188_1-1 | 2023-03-10T10:28:00 | -32.6665 | 6.9345 | 499.9 | 504.0 | 9.4799 | 34.7171 |
| M188_1-1 | 2023-03-10T10:28:00 | -32.6665 | 6.9345 | 500.8 | 505.0 | 9.4762 | 34.7163 |
| M188_1-1 | 2023-03-10T10:28:00 | -32.6665 | 6.9345 | 501.8 | 506.0 | 9.4757 | 34.7163 |
| M188_1-1 | 2023-03-10T10:28:00 | -32.6665 | 6.9345 | 502.8 | 507.0 | 9.4765 | 34.7162 |
| M188_1-1 | 2023-03-10T10:28:00 | -32.6665 | 6.9345 | 503.8 | 508.0 | 9.4768 | 34.7163 |
| M188_1-1 | 2023-03-10T10:28:00 | -32.6665 | 6.9345 | 504.8 | 509.0 | 9.4716 | 34.7158 |
| M188_1-1 | 2023-03-10T10:28:00 | -32.6665 | 6.9345 | 505.8 | 510.0 | 9.4478 | 34.7125 |
| M188_1-1 | 2023-03-10T10:28:00 | -32.6665 | 6.9345 | 506.8 | 511.0 | 9.4380 | 34.7107 |
| M188_1-1 | 2023-03-10T10:28:00 | -32.6665 | 6.9345 | 507.8 | 512.0 | 9.4325 | 34.7098 |
| M188_1-1 | 2023-03-10T10:28:00 | -32.6665 | 6.9345 | 508.8 | 513.0 | 9.4219 | 34.7089 |
| M188_1-1 | 2023-03-10T10:28:00 | -32.6665 | 6.9345 | 509.8 | 514.0 | 9.4095 | 34.7076 |
| M188_1-1 | 2023-03-10T10:28:00 | -32.6665 | 6.9345 | 510.7 | 515.0 | 9.3866 | 34.7057 |
| M188_1-1 | 2023-03-10T10:28:00 | -32.6665 | 6.9345 | 511.7 | 516.0 | 9.3740 | 34.7034 |
| M188_1-1 | 2023-03-10T10:28:00 | -32.6665 | 6.9345 | 512.7 | 517.0 | 9.3607 | 34.7012 |
| M188_1-1 | 2023-03-10T10:28:00 | -32.6665 | 6.9345 | 513.7 | 518.0 | 9.3494 | 34.6992 |
| M188_1-1 | 2023-03-10T10:28:00 | -32.6665 | 6.9345 | 514.7 | 519.0 | 9.3369 | 34.6969 |
| M188_1-1 | 2023-03-10T10:28:00 | -32.6665 | 6.9345 | 515.7 | 520.0 | 9.3310 | 34.6961 |
| M188_1-1 | 2023-03-10T10:28:00 | -32.6665 | 6.9345 | 516.7 | 521.0 | 9.3187 | 34.6947 |
| M188_1-1 | 2023-03-10T10:28:00 | -32.6665 | 6.9345 | 517.7 | 522.0 | 9.3150 | 34.6939 |
| M188_1-1 | 2023-03-10T10:28:00 | -32.6665 | 6.9345 | 518.7 | 523.0 | 9.3018 | 34.6919 |
| M188_1-1 | 2023-03-10T10:28:00 | -32.6665 | 6.9345 | 519.7 | 524.0 | 9.2831 | 34.6898 |
| M188_1-1 | 2023-03-10T10:28:00 | -32.6665 | 6.9345 | 520.7 | 525.0 | 9.2603 | 34.6876 |
| M188_1-1 | 2023-03-10T10:28:00 | -32.6665 | 6.9345 | 521.6 | 526.0 | 9.2306 | 34.6843 |
| M188_1-1 | 2023-03-10T10:28:00 | -32.6665 | 6.9345 | 522.6 | 527.0 | 9.2137 | 34.6820 |
| M188_1-1 | 2023-03-10T10:28:00 | -32.6665 | 6.9345 | 523.6 | 528.0 | 9.2103 | 34.6813 |
| M188_1-1 | 2023-03-10T10:28:00 | -32.6665 | 6.9345 | 524.6 | 529.0 | 9.2058 | 34.6800 |
| M188_1-1 | 2023-03-10T10:28:00 | -32.6665 | 6.9345 | 525.6 | 530.0 | 9.1793 | 34.6775 |
| M188_1-1 | 2023-03-10T10:28:00 | -32.6665 | 6.9345 | 526.6 | 531.0 | 9.1667 | 34.6765 |
| M188_1-1 | 2023-03-10T10:28:00 | -32.6665 | 6.9345 | 527.6 | 532.0 | 9.1586 | 34.6758 |
| M188_1-1 | 2023-03-10T10:28:00 | -32.6665 | 6.9345 | 528.6 | 533.0 | 9.1534 | 34.6750 |
| M188_1-1 | 2023-03-10T10:28:00 | -32.6665 | 6.9345 | 529.6 | 534.0 | 9.1501 | 34.6749 |
| M188_1-1 | 2023-03-10T10:28:00 | -32.6665 | 6.9345 | 530.6 | 535.0 | 9.1399 | 34.6734 |
| M188_1-1 | 2023-03-10T10:28:00 | -32.6665 | 6.9345 | 531.5 | 536.0 | 9.1246 | 34.6706 |
| M188_1-1 | 2023-03-10T10:28:00 | -32.6665 | 6.9345 | 532.5 | 537.0 | 9.1019 | 34.6686 |
| M188_1-1 | 2023-03-10T10:28:00 | -32.6665 | 6.9345 | 533.5 | 538.0 | 9.0961 | 34.6679 |
| M188_1-1 | 2023-03-10T10:28:00 | -32.6665 | 6.9345 | 534.5 | 539.0 | 9.0923 | 34.6676 |
| M188_1-1 | 2023-03-10T10:28:00 | -32.6665 | 6.9345 | 535.5 | 540.0 | 9.0890 | 34.6670 |
| M188_1-1 | 2023-03-10T10:28:00 | -32.6665 | 6.9345 | 536.5 | 541.0 | 9.0806 | 34.6661 |
| M188_1-1 | 2023-03-10T10:28:00 | -32.6665 | 6.9345 | 537.5 | 542.0 | 9.0627 | 34.6643 |
| M188_1-1 | 2023-03-10T10:28:00 | -32.6665 | 6.9345 | 538.5 | 543.0 | 9.0401 | 34.6622 |
| M188_1-1 | 2023-03-10T10:28:00 | -32.6665 | 6.9345 | 539.5 | 544.0 | 9.0208 | 34.6600 |
| M188_1-1 | 2023-03-10T10:28:00 | -32.6665 | 6.9345 | 540.5 | 545.0 | 8.9969 | 34.6577 |
| M188_1-1 | 2023-03-10T10:28:00 | -32.6665 | 6.9345 | 541.5 | 546.0 | 8.9882 | 34.6565 |
| M188_1-1 | 2023-03-10T10:28:00 | -32.6665 | 6.9345 | 542.4 | 547.0 | 9.0046 | 34.6566 |
| M188_1-1 | 2023-03-10T10:28:00 | -32.6665 | 6.9345 | 543.4 | 548.0 | 8.9531 | 34.6517 |
| M188_1-1 | 2023-03-10T10:28:00 | -32.6665 | 6.9345 | 544.4 | 549.0 | 8.8997 | 34.6468 |
| M188_1-1 | 2023-03-10T10:28:00 | -32.6665 | 6.9345 | 545.4 | 550.0 | 8.8789 | 34.6448 |
| M188_1-1 | 2023-03-10T10:28:00 | -32.6665 | 6.9345 | 546.4 | 551.0 | 8.8728 | 34.6438 |
| M188_1-1 | 2023-03-10T10:28:00 | -32.6665 | 6.9345 | 547.4 | 552.0 | 8.8670 | 34.6429 |
| M188_1-1 | 2023-03-10T10:28:00 | -32.6665 | 6.9345 | 548.4 | 553.0 | 8.8457 | 34.6416 |
| M188_1-1 | 2023-03-10T10:28:00 | -32.6665 | 6.9345 | 549.4 | 554.0 | 8.8296 | 34.6397 |
| M188_1-1 | 2023-03-10T10:28:00 | -32.6665 | 6.9345 | 550.4 | 555.0 | 8.8072 | 34.6379 |
| M188_1-1 | 2023-03-10T10:28:00 | -32.6665 | 6.9345 | 551.4 | 556.0 | 8.7930 | 34.6359 |
| M188_1-1 | 2023-03-10T10:28:00 | -32.6665 | 6.9345 | 552.3 | 557.0 | 8.7641 | 34.6332 |
| M188_1-1 | 2023-03-10T10:28:00 | -32.6665 | 6.9345 | 553.3 | 558.0 | 8.7465 | 34.6311 |
| M188_1-1 | 2023-03-10T10:28:00 | -32.6665 | 6.9345 | 554.3 | 559.0 | 8.7253 | 34.6285 |
| M188_1-1 | 2023-03-10T10:28:00 | -32.6665 | 6.9345 | 555.3 | 560.0 | 8.6991 | 34.6255 |
| M188_1-1 | 2023-03-10T10:28:00 | -32.6665 | 6.9345 | 556.3 | 561.0 | 8.6803 | 34.6241 |
| M188_1-1 | 2023-03-10T10:28:00 | -32.6665 | 6.9345 | 557.3 | 562.0 | 8.6731 | 34.6238 |
| M188_1-1 | 2023-03-10T10:28:00 | -32.6665 | 6.9345 | 558.3 | 563.0 | 8.6524 | 34.6222 |
| M188_1-1 | 2023-03-10T10:28:00 | -32.6665 | 6.9345 | 559.3 | 564.0 | 8.6458 | 34.6212 |
| M188_1-1 | 2023-03-10T10:28:00 | -32.6665 | 6.9345 | 560.3 | 565.0 | 8.6351 | 34.6201 |
| M188_1-1 | 2023-03-10T10:28:00 | -32.6665 | 6.9345 | 561.3 | 566.0 | 8.6251 | 34.6185 |
| M188_1-1 | 2023-03-10T10:28:00 | -32.6665 | 6.9345 | 562.2 | 567.0 | 8.6127 | 34.6168 |
| M188_1-1 | 2023-03-10T10:28:00 | -32.6665 | 6.9345 | 563.2 | 568.0 | 8.6031 | 34.6153 |
| M188_1-1 | 2023-03-10T10:28:00 | -32.6665 | 6.9345 | 564.2 | 569.0 | 8.5883 | 34.6141 |
| M188_1-1 | 2023-03-10T10:28:00 | -32.6665 | 6.9345 | 565.2 | 570.0 | 8.5834 | 34.6139 |
| M188_1-1 | 2023-03-10T10:28:00 | -32.6665 | 6.9345 | 566.2 | 571.0 | 8.5821 | 34.6138 |
| M188_1-1 | 2023-03-10T10:28:00 | -32.6665 | 6.9345 | 567.2 | 572.0 | 8.5730 | 34.6130 |
| M188_1-1 | 2023-03-10T10:28:00 | -32.6665 | 6.9345 | 568.2 | 573.0 | 8.5579 | 34.6117 |
| M188_1-1 | 2023-03-10T10:28:00 | -32.6665 | 6.9345 | 569.2 | 574.0 | 8.5463 | 34.6104 |
| M188_1-1 | 2023-03-10T10:28:00 | -32.6665 | 6.9345 | 570.2 | 575.0 | 8.5391 | 34.6099 |
| M188_1-1 | 2023-03-10T10:28:00 | -32.6665 | 6.9345 | 571.2 | 576.0 | 8.5325 | 34.6088 |
| M188_1-1 | 2023-03-10T10:28:00 | -32.6665 | 6.9345 | 572.2 | 577.0 | 8.5242 | 34.6078 |
| M188_1-1 | 2023-03-10T10:28:00 | -32.6665 | 6.9345 | 573.1 | 578.0 | 8.5102 | 34.6064 |
| M188_1-1 | 2023-03-10T10:28:00 | -32.6665 | 6.9345 | 574.1 | 579.0 | 8.4984 | 34.6051 |
| M188_1-1 | 2023-03-10T10:28:00 | -32.6665 | 6.9345 | 575.1 | 580.0 | 8.4763 | 34.6029 |
| M188_1-1 | 2023-03-10T10:28:00 | -32.6665 | 6.9345 | 576.1 | 581.0 | 8.4582 | 34.6011 |
| M188_1-1 | 2023-03-10T10:28:00 | -32.6665 | 6.9345 | 577.1 | 582.0 | 8.4383 | 34.5996 |
| M188_1-1 | 2023-03-10T10:28:00 | -32.6665 | 6.9345 | 578.1 | 583.0 | 8.4239 | 34.5981 |
| M188_1-1 | 2023-03-10T10:28:00 | -32.6665 | 6.9345 | 579.1 | 584.0 | 8.4012 | 34.5958 |
| M188_1-1 | 2023-03-10T10:28:00 | -32.6665 | 6.9345 | 580.1 | 585.0 | 8.3895 | 34.5945 |
| M188_1-1 | 2023-03-10T10:28:00 | -32.6665 | 6.9345 | 581.1 | 586.0 | 8.3752 | 34.5929 |
| M188_1-1 | 2023-03-10T10:28:00 | -32.6665 | 6.9345 | 582.1 | 587.0 | 8.3587 | 34.5913 |
| M188_1-1 | 2023-03-10T10:28:00 | -32.6665 | 6.9345 | 583.0 | 588.0 | 8.3413 | 34.5895 |
| M188_1-1 | 2023-03-10T10:28:00 | -32.6665 | 6.9345 | 584.0 | 589.0 | 8.3198 | 34.5878 |
| M188_1-1 | 2023-03-10T10:28:00 | -32.6665 | 6.9345 | 585.0 | 590.0 | 8.3020 | 34.5866 |
| M188_1-1 | 2023-03-10T10:28:00 | -32.6665 | 6.9345 | 586.0 | 591.0 | 8.2774 | 34.5836 |
| M188_1-1 | 2023-03-10T10:28:00 | -32.6665 | 6.9345 | 587.0 | 592.0 | 8.2543 | 34.5819 |
| M188_1-1 | 2023-03-10T10:28:00 | -32.6665 | 6.9345 | 588.0 | 593.0 | 8.2447 | 34.5815 |
| M188_1-1 | 2023-03-10T10:28:00 | -32.6665 | 6.9345 | 589.0 | 594.0 | 8.2141 | 34.5786 |
| M188_1-1 | 2023-03-10T10:28:00 | -32.6665 | 6.9345 | 590.0 | 595.0 | 8.1720 | 34.5753 |
| M188_1-1 | 2023-03-10T10:28:00 | -32.6665 | 6.9345 | 591.0 | 596.0 | 8.1592 | 34.5733 |
| M188_1-1 | 2023-03-10T10:28:00 | -32.6665 | 6.9345 | 592.0 | 597.0 | 8.1297 | 34.5705 |
| M188_1-1 | 2023-03-10T10:28:00 | -32.6665 | 6.9345 | 592.9 | 598.0 | 8.0930 | 34.5671 |
| M188_1-1 | 2023-03-10T10:28:00 | -32.6665 | 6.9345 | 593.9 | 599.0 | 8.0691 | 34.5653 |
| M188_1-1 | 2023-03-10T10:28:00 | -32.6665 | 6.9345 | 594.9 | 600.0 | 8.0548 | 34.5633 |
| M188_1-1 | 2023-03-10T10:28:00 | -32.6665 | 6.9345 | 595.9 | 601.0 | 8.0408 | 34.5610 |
| M188_1-1 | 2023-03-10T10:28:00 | -32.6665 | 6.9345 | 596.9 | 602.0 | 8.0171 | 34.5574 |
| M188_1-1 | 2023-03-10T10:28:00 | -32.6665 | 6.9345 | 597.9 | 603.0 | 7.9859 | 34.5525 |
| M188_1-1 | 2023-03-10T10:28:00 | -32.6665 | 6.9345 | 598.9 | 604.0 | 7.9751 | 34.5512 |
| M188_1-1 | 2023-03-10T10:28:00 | -32.6665 | 6.9345 | 599.9 | 605.0 | 7.9702 | 34.5522 |
| M188_1-1 | 2023-03-10T10:28:00 | -32.6665 | 6.9345 | 600.9 | 606.0 | 7.9507 | 34.5509 |
| M188_1-1 | 2023-03-10T10:28:00 | -32.6665 | 6.9345 | 601.9 | 607.0 | 7.9276 | 34.5495 |
| M188_1-1 | 2023-03-10T10:28:00 | -32.6665 | 6.9345 | 602.8 | 608.0 | 7.9136 | 34.5491 |
| M188_1-1 | 2023-03-10T10:28:00 | -32.6665 | 6.9345 | 603.8 | 609.0 | 7.8997 | 34.5468 |
| M188_1-1 | 2023-03-10T10:28:00 | -32.6665 | 6.9345 | 604.8 | 610.0 | 7.8778 | 34.5447 |
| M188_1-1 | 2023-03-10T10:28:00 | -32.6665 | 6.9345 | 605.8 | 611.0 | 7.8656 | 34.5430 |
| M188_1-1 | 2023-03-10T10:28:00 | -32.6665 | 6.9345 | 606.8 | 612.0 | 7.8384 | 34.5392 |
| M188_1-1 | 2023-03-10T10:28:00 | -32.6665 | 6.9345 | 607.8 | 613.0 | 7.8144 | 34.5364 |
| M188_1-1 | 2023-03-10T10:28:00 | -32.6665 | 6.9345 | 608.8 | 614.0 | 7.7976 | 34.5345 |
| M188_1-1 | 2023-03-10T10:28:00 | -32.6665 | 6.9345 | 609.8 | 615.0 | 7.7907 | 34.5341 |
| M188_1-1 | 2023-03-10T10:28:00 | -32.6665 | 6.9345 | 610.8 | 616.0 | 7.7632 | 34.5321 |
| M188_1-1 | 2023-03-10T10:28:00 | -32.6665 | 6.9345 | 611.8 | 617.0 | 7.7538 | 34.5307 |
| M188_1-1 | 2023-03-10T10:28:00 | -32.6665 | 6.9345 | 612.7 | 618.0 | 7.7422 | 34.5289 |
| M188_1-1 | 2023-03-10T10:28:00 | -32.6665 | 6.9345 | 613.7 | 619.0 | 7.7112 | 34.5261 |
| M188_1-1 | 2023-03-10T10:28:00 | -32.6665 | 6.9345 | 614.7 | 620.0 | 7.6633 | 34.5212 |
| M188_1-1 | 2023-03-10T10:28:00 | -32.6665 | 6.9345 | 615.7 | 621.0 | 7.6382 | 34.5181 |
| M188_1-1 | 2023-03-10T10:28:00 | -32.6665 | 6.9345 | 616.7 | 622.0 | 7.6122 | 34.5156 |
| M188_1-1 | 2023-03-10T10:28:00 | -32.6665 | 6.9345 | 617.7 | 623.0 | 7.5999 | 34.5140 |
| M188_1-1 | 2023-03-10T10:28:00 | -32.6665 | 6.9345 | 618.7 | 624.0 | 7.5950 | 34.5132 |
| M188_1-1 | 2023-03-10T10:28:00 | -32.6665 | 6.9345 | 619.7 | 625.0 | 7.5936 | 34.5127 |
| M188_1-1 | 2023-03-10T10:28:00 | -32.6665 | 6.9345 | 620.7 | 626.0 | 7.5936 | 34.5122 |
| M188_1-1 | 2023-03-10T10:28:00 | -32.6665 | 6.9345 | 621.7 | 627.0 | 7.5918 | 34.5126 |
| M188_1-1 | 2023-03-10T10:28:00 | -32.6665 | 6.9345 | 622.6 | 628.0 | 7.5941 | 34.5156 |
| M188_1-1 | 2023-03-10T10:28:00 | -32.6665 | 6.9345 | 623.6 | 629.0 | 7.5890 | 34.5157 |
| M188_1-1 | 2023-03-10T10:28:00 | -32.6665 | 6.9345 | 624.6 | 630.0 | 7.5787 | 34.5148 |
| M188_1-1 | 2023-03-10T10:28:00 | -32.6665 | 6.9345 | 625.6 | 631.0 | 7.5734 | 34.5143 |
| M188_1-1 | 2023-03-10T10:28:00 | -32.6665 | 6.9345 | 626.6 | 632.0 | 7.5680 | 34.5134 |
| M188_1-1 | 2023-03-10T10:28:00 | -32.6665 | 6.9345 | 627.6 | 633.0 | 7.5421 | 34.5095 |
| M188_1-1 | 2023-03-10T10:28:00 | -32.6665 | 6.9345 | 628.6 | 634.0 | 7.4970 | 34.5051 |
| M188_1-1 | 2023-03-10T10:28:00 | -32.6665 | 6.9345 | 629.6 | 635.0 | 7.4614 | 34.5016 |
| M188_1-1 | 2023-03-10T10:28:00 | -32.6665 | 6.9345 | 630.6 | 636.0 | 7.4226 | 34.4983 |
| M188_1-1 | 2023-03-10T10:28:00 | -32.6665 | 6.9345 | 631.6 | 637.0 | 7.3925 | 34.4955 |
| M188_1-1 | 2023-03-10T10:28:00 | -32.6665 | 6.9345 | 632.5 | 638.0 | 7.3826 | 34.4941 |
| M188_1-1 | 2023-03-10T10:28:00 | -32.6665 | 6.9345 | 633.5 | 639.0 | 7.3729 | 34.4927 |
| M188_1-1 | 2023-03-10T10:28:00 | -32.6665 | 6.9345 | 634.5 | 640.0 | 7.3571 | 34.4906 |
| M188_1-1 | 2023-03-10T10:28:00 | -32.6665 | 6.9345 | 635.5 | 641.0 | 7.3473 | 34.4894 |
| M188_1-1 | 2023-03-10T10:28:00 | -32.6665 | 6.9345 | 636.5 | 642.0 | 7.3404 | 34.4888 |
| M188_1-1 | 2023-03-10T10:28:00 | -32.6665 | 6.9345 | 637.5 | 643.0 | 7.3271 | 34.4872 |
| M188_1-1 | 2023-03-10T10:28:00 | -32.6665 | 6.9345 | 638.5 | 644.0 | 7.3227 | 34.4863 |
| M188_1-1 | 2023-03-10T10:28:00 | -32.6665 | 6.9345 | 639.5 | 645.0 | 7.3274 | 34.4882 |
| M188_1-1 | 2023-03-10T10:28:00 | -32.6665 | 6.9345 | 640.5 | 646.0 | 7.3468 | 34.4943 |
| M188_1-1 | 2023-03-10T10:28:00 | -32.6665 | 6.9345 | 641.5 | 647.0 | 7.3450 | 34.4949 |
| M188_1-1 | 2023-03-10T10:28:00 | -32.6665 | 6.9345 | 642.4 | 648.0 | 7.3264 | 34.4930 |
| M188_1-1 | 2023-03-10T10:28:00 | -32.6665 | 6.9345 | 643.4 | 649.0 | 7.2826 | 34.4884 |
| M188_1-1 | 2023-03-10T10:28:00 | -32.6665 | 6.9345 | 644.4 | 650.0 | 7.2518 | 34.4850 |
| M188_1-1 | 2023-03-10T10:28:00 | -32.6665 | 6.9345 | 645.4 | 651.0 | 7.2148 | 34.4804 |
| M188_1-1 | 2023-03-10T10:28:00 | -32.6665 | 6.9345 | 646.4 | 652.0 | 7.1840 | 34.4777 |
| M188_1-1 | 2023-03-10T10:28:00 | -32.6665 | 6.9345 | 647.4 | 653.0 | 7.1656 | 34.4751 |
| M188_1-1 | 2023-03-10T10:28:00 | -32.6665 | 6.9345 | 648.4 | 654.0 | 7.1308 | 34.4713 |
| M188_1-1 | 2023-03-10T10:28:00 | -32.6665 | 6.9345 | 649.4 | 655.0 | 7.1181 | 34.4698 |
| M188_1-1 | 2023-03-10T10:28:00 | -32.6665 | 6.9345 | 650.4 | 656.0 | 7.0818 | 34.4654 |
| M188_1-1 | 2023-03-10T10:28:00 | -32.6665 | 6.9345 | 651.4 | 657.0 | 7.0624 | 34.4641 |
| M188_1-1 | 2023-03-10T10:28:00 | -32.6665 | 6.9345 | 652.3 | 658.0 | 7.0617 | 34.4646 |
| M188_1-1 | 2023-03-10T10:28:00 | -32.6665 | 6.9345 | 653.3 | 659.0 | 7.0390 | 34.4622 |
| M188_1-1 | 2023-03-10T10:28:00 | -32.6665 | 6.9345 | 654.3 | 660.0 | 7.0217 | 34.4609 |
| M188_1-1 | 2023-03-10T10:28:00 | -32.6665 | 6.9345 | 655.3 | 661.0 | 7.0106 | 34.4603 |
| M188_1-1 | 2023-03-10T10:28:00 | -32.6665 | 6.9345 | 656.3 | 662.0 | 7.0238 | 34.4655 |
| M188_1-1 | 2023-03-10T10:28:00 | -32.6665 | 6.9345 | 657.3 | 663.0 | 7.0166 | 34.4648 |
| M188_1-1 | 2023-03-10T10:28:00 | -32.6665 | 6.9345 | 658.3 | 664.0 | 6.9853 | 34.4613 |
| M188_1-1 | 2023-03-10T10:28:00 | -32.6665 | 6.9345 | 659.3 | 665.0 | 6.9392 | 34.4549 |
| M188_1-1 | 2023-03-10T10:28:00 | -32.6665 | 6.9345 | 660.3 | 666.0 | 6.8747 | 34.4493 |
| M188_1-1 | 2023-03-10T10:28:00 | -32.6665 | 6.9345 | 661.3 | 667.0 | 6.8586 | 34.4463 |
| M188_1-1 | 2023-03-10T10:28:00 | -32.6665 | 6.9345 | 662.2 | 668.0 | 6.8303 | 34.4436 |
| M188_1-1 | 2023-03-10T10:28:00 | -32.6665 | 6.9345 | 663.2 | 669.0 | 6.8663 | 34.4448 |
| M188_1-1 | 2023-03-10T10:28:00 | -32.6665 | 6.9345 | 664.2 | 670.0 | 6.8147 | 34.4393 |
| M188_1-1 | 2023-03-10T10:28:00 | -32.6665 | 6.9345 | 665.2 | 671.0 | 6.7917 | 34.4380 |
| M188_1-1 | 2023-03-10T10:28:00 | -32.6665 | 6.9345 | 666.2 | 672.0 | 6.7806 | 34.4368 |
| M188_1-1 | 2023-03-10T10:28:00 | -32.6665 | 6.9345 | 667.2 | 673.0 | 6.7715 | 34.4357 |
| M188_1-1 | 2023-03-10T10:28:00 | -32.6665 | 6.9345 | 668.2 | 674.0 | 6.7539 | 34.4341 |
| M188_1-1 | 2023-03-10T10:28:00 | -32.6665 | 6.9345 | 669.2 | 675.0 | 6.7321 | 34.4315 |
| M188_1-1 | 2023-03-10T10:28:00 | -32.6665 | 6.9345 | 670.2 | 676.0 | 6.7102 | 34.4293 |
| M188_1-1 | 2023-03-10T10:28:00 | -32.6665 | 6.9345 | 671.1 | 677.0 | 6.6966 | 34.4278 |
| M188_1-1 | 2023-03-10T10:28:00 | -32.6665 | 6.9345 | 672.1 | 678.0 | 6.6735 | 34.4255 |
| M188_1-1 | 2023-03-10T10:28:00 | -32.6665 | 6.9345 | 673.1 | 679.0 | 6.6680 | 34.4259 |
| M188_1-1 | 2023-03-10T10:28:00 | -32.6665 | 6.9345 | 674.1 | 680.0 | 6.6589 | 34.4230 |
| M188_1-1 | 2023-03-10T10:28:00 | -32.6665 | 6.9345 | 675.1 | 681.0 | 6.6528 | 34.4216 |
| M188_1-1 | 2023-03-10T10:28:00 | -32.6665 | 6.9345 | 676.1 | 682.0 | 6.6498 | 34.4212 |
| M188_1-1 | 2023-03-10T10:28:00 | -32.6665 | 6.9345 | 677.1 | 683.0 | 6.6399 | 34.4205 |
| M188_1-1 | 2023-03-10T10:28:00 | -32.6665 | 6.9345 | 678.1 | 684.0 | 6.6360 | 34.4202 |
| M188_1-1 | 2023-03-10T10:28:00 | -32.6665 | 6.9345 | 679.1 | 685.0 | 6.6044 | 34.4180 |
| M188_1-1 | 2023-03-10T10:28:00 | -32.6665 | 6.9345 | 680.1 | 686.0 | 6.5743 | 34.4158 |
| M188_1-1 | 2023-03-10T10:28:00 | -32.6665 | 6.9345 | 681.0 | 687.0 | 6.5470 | 34.4135 |
| M188_1-1 | 2023-03-10T10:28:00 | -32.6665 | 6.9345 | 682.0 | 688.0 | 6.5196 | 34.4109 |
| M188_1-1 | 2023-03-10T10:28:00 | -32.6665 | 6.9345 | 683.0 | 689.0 | 6.4824 | 34.4071 |
| M188_1-1 | 2023-03-10T10:28:00 | -32.6665 | 6.9345 | 684.0 | 690.0 | 6.4788 | 34.4057 |
| M188_1-1 | 2023-03-10T10:28:00 | -32.6665 | 6.9345 | 685.0 | 691.0 | 6.4670 | 34.4041 |
| M188_1-1 | 2023-03-10T10:28:00 | -32.6665 | 6.9345 | 686.0 | 692.0 | 6.4377 | 34.3991 |
| M188_1-1 | 2023-03-10T10:28:00 | -32.6665 | 6.9345 | 687.0 | 693.0 | 6.3794 | 34.3946 |
| M188_1-1 | 2023-03-10T10:28:00 | -32.6665 | 6.9345 | 688.0 | 694.0 | 6.3625 | 34.3926 |
| M188_1-1 | 2023-03-10T10:28:00 | -32.6665 | 6.9345 | 689.0 | 695.0 | 6.3634 | 34.3949 |
| M188_1-1 | 2023-03-10T10:28:00 | -32.6665 | 6.9345 | 690.0 | 696.0 | 6.3723 | 34.3971 |
| M188_1-1 | 2023-03-10T10:28:00 | -32.6665 | 6.9345 | 690.9 | 697.0 | 6.3677 | 34.3970 |
| M188_1-1 | 2023-03-10T10:28:00 | -32.6665 | 6.9345 | 691.9 | 698.0 | 6.3507 | 34.3959 |
| M188_1-1 | 2023-03-10T10:28:00 | -32.6665 | 6.9345 | 692.9 | 699.0 | 6.3420 | 34.3953 |
| M188_1-1 | 2023-03-10T10:28:00 | -32.6665 | 6.9345 | 693.9 | 700.0 | 6.3332 | 34.3942 |
| M188_1-1 | 2023-03-10T10:28:00 | -32.6665 | 6.9345 | 694.9 | 701.0 | 6.3216 | 34.3925 |
| M188_1-1 | 2023-03-10T10:28:00 | -32.6665 | 6.9345 | 695.9 | 702.0 | 6.2879 | 34.3868 |
| M188_1-1 | 2023-03-10T10:28:00 | -32.6665 | 6.9345 | 696.9 | 703.0 | 6.2150 | 34.3791 |
| M188_1-1 | 2023-03-10T10:28:00 | -32.6665 | 6.9345 | 697.9 | 704.0 | 6.2002 | 34.3772 |
| M188_1-1 | 2023-03-10T10:28:00 | -32.6665 | 6.9345 | 698.9 | 705.0 | 6.1885 | 34.3747 |
| M188_1-1 | 2023-03-10T10:28:00 | -32.6665 | 6.9345 | 699.8 | 706.0 | 6.1338 | 34.3691 |
| M188_1-1 | 2023-03-10T10:28:00 | -32.6665 | 6.9345 | 700.8 | 707.0 | 6.0945 | 34.3653 |
| M188_1-1 | 2023-03-10T10:28:00 | -32.6665 | 6.9345 | 701.8 | 708.0 | 6.0720 | 34.3641 |
| M188_1-1 | 2023-03-10T10:28:00 | -32.6665 | 6.9345 | 702.8 | 709.0 | 6.0887 | 34.3687 |
| M188_1-1 | 2023-03-10T10:28:00 | -32.6665 | 6.9345 | 703.8 | 710.0 | 6.0899 | 34.3689 |
| M188_1-1 | 2023-03-10T10:28:00 | -32.6665 | 6.9345 | 704.8 | 711.0 | 6.0726 | 34.3673 |
| M188_1-1 | 2023-03-10T10:28:00 | -32.6665 | 6.9345 | 705.8 | 712.0 | 6.0512 | 34.3649 |
| M188_1-1 | 2023-03-10T10:28:00 | -32.6665 | 6.9345 | 706.8 | 713.0 | 6.0256 | 34.3619 |
| M188_1-1 | 2023-03-10T10:28:00 | -32.6665 | 6.9345 | 707.8 | 714.0 | 6.0041 | 34.3596 |
| M188_1-1 | 2023-03-10T10:28:00 | -32.6665 | 6.9345 | 708.8 | 715.0 | 5.9886 | 34.3577 |
| M188_1-1 | 2023-03-10T10:28:00 | -32.6665 | 6.9345 | 709.7 | 716.0 | 5.9659 | 34.3550 |
| M188_1-1 | 2023-03-10T10:28:00 | -32.6665 | 6.9345 | 710.7 | 717.0 | 5.9089 | 34.3506 |
| M188_1-1 | 2023-03-10T10:28:00 | -32.6665 | 6.9345 | 711.7 | 718.0 | 5.8704 | 34.3468 |
| M188_1-1 | 2023-03-10T10:28:00 | -32.6665 | 6.9345 | 712.7 | 719.0 | 5.8490 | 34.3439 |
| M188_1-1 | 2023-03-10T10:28:00 | -32.6665 | 6.9345 | 713.7 | 720.0 | 5.8244 | 34.3417 |
| M188_1-1 | 2023-03-10T10:28:00 | -32.6665 | 6.9345 | 714.7 | 721.0 | 5.8081 | 34.3390 |
| M188_1-1 | 2023-03-10T10:28:00 | -32.6665 | 6.9345 | 715.7 | 722.0 | 5.7909 | 34.3374 |
| M188_1-1 | 2023-03-10T10:28:00 | -32.6665 | 6.9345 | 716.7 | 723.0 | 5.7697 | 34.3356 |
| M188_1-1 | 2023-03-10T10:28:00 | -32.6665 | 6.9345 | 717.7 | 724.0 | 5.7582 | 34.3343 |
| M188_1-1 | 2023-03-10T10:28:00 | -32.6665 | 6.9345 | 718.7 | 725.0 | 5.7502 | 34.3337 |
| M188_1-1 | 2023-03-10T10:28:00 | -32.6665 | 6.9345 | 719.6 | 726.0 | 5.7414 | 34.3328 |
| M188_1-1 | 2023-03-10T10:28:00 | -32.6665 | 6.9345 | 720.6 | 727.0 | 5.7255 | 34.3313 |
| M188_1-1 | 2023-03-10T10:28:00 | -32.6665 | 6.9345 | 721.6 | 728.0 | 5.7205 | 34.3303 |
| M188_1-1 | 2023-03-10T10:28:00 | -32.6665 | 6.9345 | 722.6 | 729.0 | 5.7201 | 34.3305 |
| M188_1-1 | 2023-03-10T10:28:00 | -32.6665 | 6.9345 | 723.6 | 730.0 | 5.7192 | 34.3305 |
| M188_1-1 | 2023-03-10T10:28:00 | -32.6665 | 6.9345 | 724.6 | 731.0 | 5.7099 | 34.3298 |
| M188_1-1 | 2023-03-10T10:28:00 | -32.6665 | 6.9345 | 725.6 | 732.0 | 5.6939 | 34.3292 |
| M188_1-1 | 2023-03-10T10:28:00 | -32.6665 | 6.9345 | 726.6 | 733.0 | 5.6812 | 34.3284 |
| M188_1-1 | 2023-03-10T10:28:00 | -32.6665 | 6.9345 | 727.6 | 734.0 | 5.6651 | 34.3269 |
| M188_1-1 | 2023-03-10T10:28:00 | -32.6665 | 6.9345 | 728.5 | 735.0 | 5.6545 | 34.3260 |
| M188_1-1 | 2023-03-10T10:28:00 | -32.6665 | 6.9345 | 729.5 | 736.0 | 5.6441 | 34.3249 |
| M188_1-1 | 2023-03-10T10:28:00 | -32.6665 | 6.9345 | 730.5 | 737.0 | 5.6248 | 34.3222 |
| M188_1-1 | 2023-03-10T10:28:00 | -32.6665 | 6.9345 | 731.5 | 738.0 | 5.6065 | 34.3203 |
| M188_1-1 | 2023-03-10T10:28:00 | -32.6665 | 6.9345 | 732.5 | 739.0 | 5.5905 | 34.3185 |
| M188_1-1 | 2023-03-10T10:28:00 | -32.6665 | 6.9345 | 733.5 | 740.0 | 5.5672 | 34.3172 |
| M188_1-1 | 2023-03-10T10:28:00 | -32.6665 | 6.9345 | 734.5 | 741.0 | 5.5567 | 34.3159 |
| M188_1-1 | 2023-03-10T10:28:00 | -32.6665 | 6.9345 | 735.5 | 742.0 | 5.5449 | 34.3144 |
| M188_1-1 | 2023-03-10T10:28:00 | -32.6665 | 6.9345 | 736.5 | 743.0 | 5.5256 | 34.3128 |
| M188_1-1 | 2023-03-10T10:28:00 | -32.6665 | 6.9345 | 737.5 | 744.0 | 5.5210 | 34.3119 |
| M188_1-1 | 2023-03-10T10:28:00 | -32.6665 | 6.9345 | 738.4 | 745.0 | 5.5097 | 34.3107 |
| M188_1-1 | 2023-03-10T10:28:00 | -32.6665 | 6.9345 | 739.4 | 746.0 | 5.5009 | 34.3101 |
| M188_1-1 | 2023-03-10T10:28:00 | -32.6665 | 6.9345 | 740.4 | 747.0 | 5.5037 | 34.3105 |
| M188_1-1 | 2023-03-10T10:28:00 | -32.6665 | 6.9345 | 741.4 | 748.0 | 5.5051 | 34.3102 |
| M188_1-1 | 2023-03-10T10:28:00 | -32.6665 | 6.9345 | 742.4 | 749.0 | 5.5030 | 34.3105 |
| M188_1-1 | 2023-03-10T10:28:00 | -32.6665 | 6.9345 | 743.4 | 750.0 | 5.5009 | 34.3107 |
| M188_1-1 | 2023-03-10T10:28:00 | -32.6665 | 6.9345 | 744.4 | 751.0 | 5.4892 | 34.3101 |
| M188_1-1 | 2023-03-10T10:28:00 | -32.6665 | 6.9345 | 745.4 | 752.0 | 5.4831 | 34.3097 |
| M188_1-1 | 2023-03-10T10:28:00 | -32.6665 | 6.9345 | 746.4 | 753.0 | 5.4856 | 34.3103 |
| M188_1-1 | 2023-03-10T10:28:00 | -32.6665 | 6.9345 | 747.3 | 754.0 | 5.4864 | 34.3111 |
| M188_1-1 | 2023-03-10T10:28:00 | -32.6665 | 6.9345 | 748.3 | 755.0 | 5.4714 | 34.3106 |
| M188_1-1 | 2023-03-10T10:28:00 | -32.6665 | 6.9345 | 749.3 | 756.0 | 5.4311 | 34.3093 |
| M188_1-1 | 2023-03-10T10:28:00 | -32.6665 | 6.9345 | 750.3 | 757.0 | 5.4171 | 34.3062 |
| M188_1-1 | 2023-03-10T10:28:00 | -32.6665 | 6.9345 | 751.3 | 758.0 | 5.4145 | 34.3073 |
| M188_1-1 | 2023-03-10T10:28:00 | -32.6665 | 6.9345 | 752.3 | 759.0 | 5.4170 | 34.3085 |
| M188_1-1 | 2023-03-10T10:28:00 | -32.6665 | 6.9345 | 753.3 | 760.0 | 5.4163 | 34.3089 |
| M188_1-1 | 2023-03-10T10:28:00 | -32.6665 | 6.9345 | 754.3 | 761.0 | 5.4126 | 34.3090 |
| M188_1-1 | 2023-03-10T10:28:00 | -32.6665 | 6.9345 | 755.3 | 762.0 | 5.4041 | 34.3078 |
| M188_1-1 | 2023-03-10T10:28:00 | -32.6665 | 6.9345 | 756.2 | 763.0 | 5.3885 | 34.3060 |
| M188_1-1 | 2023-03-10T10:28:00 | -32.6665 | 6.9345 | 757.2 | 764.0 | 5.3782 | 34.3053 |
| M188_1-1 | 2023-03-10T10:28:00 | -32.6665 | 6.9345 | 758.2 | 765.0 | 5.3788 | 34.3056 |
| M188_1-1 | 2023-03-10T10:28:00 | -32.6665 | 6.9345 | 759.2 | 766.0 | 5.3836 | 34.3071 |
| M188_1-1 | 2023-03-10T10:28:00 | -32.6665 | 6.9345 | 760.2 | 767.0 | 5.3873 | 34.3086 |
| M188_1-1 | 2023-03-10T10:28:00 | -32.6665 | 6.9345 | 761.2 | 768.0 | 5.3867 | 34.3087 |
| M188_1-1 | 2023-03-10T10:28:00 | -32.6665 | 6.9345 | 762.2 | 769.0 | 5.3849 | 34.3087 |
| M188_1-1 | 2023-03-10T10:28:00 | -32.6665 | 6.9345 | 763.2 | 770.0 | 5.3801 | 34.3086 |
| M188_1-1 | 2023-03-10T10:28:00 | -32.6665 | 6.9345 | 764.2 | 771.0 | 5.3634 | 34.3082 |
| M188_1-1 | 2023-03-10T10:28:00 | -32.6665 | 6.9345 | 765.2 | 772.0 | 5.3579 | 34.3080 |
| M188_1-1 | 2023-03-10T10:28:00 | -32.6665 | 6.9345 | 766.1 | 773.0 | 5.3562 | 34.3077 |
| M188_1-1 | 2023-03-10T10:28:00 | -32.6665 | 6.9345 | 767.1 | 774.0 | 5.3709 | 34.3117 |
| M188_1-1 | 2023-03-10T10:28:00 | -32.6665 | 6.9345 | 768.1 | 775.0 | 5.4386 | 34.3251 |
| M188_1-1 | 2023-03-10T10:28:00 | -32.6665 | 6.9345 | 769.1 | 776.0 | 5.4890 | 34.3351 |
| M188_1-1 | 2023-03-10T10:28:00 | -32.6665 | 6.9345 | 770.1 | 777.0 | 5.4934 | 34.3362 |
| M188_1-1 | 2023-03-10T10:28:00 | -32.6665 | 6.9345 | 771.1 | 778.0 | 5.4824 | 34.3357 |
| M188_1-1 | 2023-03-10T10:28:00 | -32.6665 | 6.9345 | 772.1 | 779.0 | 5.4499 | 34.3315 |
| M188_1-1 | 2023-03-10T10:28:00 | -32.6665 | 6.9345 | 773.1 | 780.0 | 5.3463 | 34.3222 |
| M188_1-1 | 2023-03-10T10:28:00 | -32.6665 | 6.9345 | 774.1 | 781.0 | 5.2803 | 34.3151 |
| M188_1-1 | 2023-03-10T10:28:00 | -32.6665 | 6.9345 | 775.0 | 782.0 | 5.2586 | 34.3119 |
| M188_1-1 | 2023-03-10T10:28:00 | -32.6665 | 6.9345 | 776.0 | 783.0 | 5.2356 | 34.3113 |
| M188_1-1 | 2023-03-10T10:28:00 | -32.6665 | 6.9345 | 777.0 | 784.0 | 5.2595 | 34.3171 |
| M188_1-1 | 2023-03-10T10:28:00 | -32.6665 | 6.9345 | 778.0 | 785.0 | 5.2610 | 34.3175 |
| M188_1-1 | 2023-03-10T10:28:00 | -32.6665 | 6.9345 | 779.0 | 786.0 | 5.2353 | 34.3157 |
| M188_1-1 | 2023-03-10T10:28:00 | -32.6665 | 6.9345 | 780.0 | 787.0 | 5.1997 | 34.3137 |
| M188_1-1 | 2023-03-10T10:28:00 | -32.6665 | 6.9345 | 781.0 | 788.0 | 5.2232 | 34.3183 |
| M188_1-1 | 2023-03-10T10:28:00 | -32.6665 | 6.9345 | 782.0 | 789.0 | 5.2291 | 34.3196 |
| M188_1-1 | 2023-03-10T10:28:00 | -32.6665 | 6.9345 | 783.0 | 790.0 | 5.2302 | 34.3211 |
| M188_1-1 | 2023-03-10T10:28:00 | -32.6665 | 6.9345 | 783.9 | 791.0 | 5.2361 | 34.3229 |
| M188_1-1 | 2023-03-10T10:28:00 | -32.6665 | 6.9345 | 784.9 | 792.0 | 5.2391 | 34.3232 |
| M188_1-1 | 2023-03-10T10:28:00 | -32.6665 | 6.9345 | 785.9 | 793.0 | 5.2373 | 34.3241 |
| M188_1-1 | 2023-03-10T10:28:00 | -32.6665 | 6.9345 | 786.9 | 794.0 | 5.2219 | 34.3232 |
| M188_1-1 | 2023-03-10T10:28:00 | -32.6665 | 6.9345 | 787.9 | 795.0 | 5.2200 | 34.3236 |
| M188_1-1 | 2023-03-10T10:28:00 | -32.6665 | 6.9345 | 788.9 | 796.0 | 5.1944 | 34.3208 |
| M188_1-1 | 2023-03-10T10:28:00 | -32.6665 | 6.9345 | 789.9 | 797.0 | 5.1791 | 34.3193 |
| M188_1-1 | 2023-03-10T10:28:00 | -32.6665 | 6.9345 | 790.9 | 798.0 | 5.1598 | 34.3162 |
| M188_1-1 | 2023-03-10T10:28:00 | -32.6665 | 6.9345 | 791.9 | 799.0 | 5.1549 | 34.3161 |
| M188_1-1 | 2023-03-10T10:28:00 | -32.6665 | 6.9345 | 792.9 | 800.0 | 5.1535 | 34.3158 |
| M188_1-1 | 2023-03-10T10:28:00 | -32.6665 | 6.9345 | 793.8 | 801.0 | 5.1193 | 34.3118 |
| M188_1-1 | 2023-03-10T10:28:00 | -32.6665 | 6.9345 | 794.8 | 802.0 | 5.0879 | 34.3089 |
| M188_1-1 | 2023-03-10T10:28:00 | -32.6665 | 6.9345 | 795.8 | 803.0 | 5.0742 | 34.3068 |
| M188_1-1 | 2023-03-10T10:28:00 | -32.6665 | 6.9345 | 796.8 | 804.0 | 5.0704 | 34.3061 |
| M188_1-1 | 2023-03-10T10:28:00 | -32.6665 | 6.9345 | 797.8 | 805.0 | 5.0657 | 34.3056 |
| M188_1-1 | 2023-03-10T10:28:00 | -32.6665 | 6.9345 | 798.8 | 806.0 | 5.0357 | 34.3015 |
| M188_1-1 | 2023-03-10T10:28:00 | -32.6665 | 6.9345 | 799.8 | 807.0 | 4.9858 | 34.2927 |
| M188_1-1 | 2023-03-10T10:28:00 | -32.6665 | 6.9345 | 800.8 | 808.0 | 4.9668 | 34.2900 |
| M188_1-1 | 2023-03-10T10:28:00 | -32.6665 | 6.9345 | 801.8 | 809.0 | 4.9439 | 34.2886 |
| M188_1-1 | 2023-03-10T10:28:00 | -32.6665 | 6.9345 | 802.7 | 810.0 | 4.9341 | 34.2872 |
| M188_1-1 | 2023-03-10T10:28:00 | -32.6665 | 6.9345 | 803.7 | 811.0 | 4.9248 | 34.2872 |
| M188_1-1 | 2023-03-10T10:28:00 | -32.6665 | 6.9345 | 804.7 | 812.0 | 4.9207 | 34.2866 |
| M188_1-1 | 2023-03-10T10:28:00 | -32.6665 | 6.9345 | 805.7 | 813.0 | 4.9155 | 34.2856 |
| M188_1-1 | 2023-03-10T10:28:00 | -32.6665 | 6.9345 | 806.7 | 814.0 | 4.8799 | 34.2824 |
| M188_1-1 | 2023-03-10T10:28:00 | -32.6665 | 6.9345 | 807.7 | 815.0 | 4.8670 | 34.2808 |
| M188_1-1 | 2023-03-10T10:28:00 | -32.6665 | 6.9345 | 808.7 | 816.0 | 4.8625 | 34.2804 |
| M188_1-1 | 2023-03-10T10:28:00 | -32.6665 | 6.9345 | 809.7 | 817.0 | 4.8989 | 34.2875 |
| M188_1-1 | 2023-03-10T10:28:00 | -32.6665 | 6.9345 | 810.7 | 818.0 | 4.9064 | 34.2897 |
| M188_1-1 | 2023-03-10T10:28:00 | -32.6665 | 6.9345 | 811.6 | 819.0 | 4.8801 | 34.2888 |
| M188_1-1 | 2023-03-10T10:28:00 | -32.6665 | 6.9345 | 812.6 | 820.0 | 4.8751 | 34.2898 |
| M188_1-1 | 2023-03-10T10:28:00 | -32.6665 | 6.9345 | 813.6 | 821.0 | 4.8742 | 34.2905 |
| M188_1-1 | 2023-03-10T10:28:00 | -32.6665 | 6.9345 | 814.6 | 822.0 | 4.8672 | 34.2909 |
| M188_1-1 | 2023-03-10T10:28:00 | -32.6665 | 6.9345 | 815.6 | 823.0 | 4.8447 | 34.2902 |
| M188_1-1 | 2023-03-10T10:28:00 | -32.6665 | 6.9345 | 816.6 | 824.0 | 4.8174 | 34.2891 |
| M188_1-1 | 2023-03-10T10:28:00 | -32.6665 | 6.9345 | 817.6 | 825.0 | 4.8045 | 34.2881 |
| M188_1-1 | 2023-03-10T10:28:00 | -32.6665 | 6.9345 | 818.6 | 826.0 | 4.7924 | 34.2880 |
| M188_1-1 | 2023-03-10T10:28:00 | -32.6665 | 6.9345 | 819.6 | 827.0 | 4.7922 | 34.2899 |
| M188_1-1 | 2023-03-10T10:28:00 | -32.6665 | 6.9345 | 820.5 | 828.0 | 4.7869 | 34.2900 |
| M188_1-1 | 2023-03-10T10:28:00 | -32.6665 | 6.9345 | 821.5 | 829.0 | 4.7749 | 34.2901 |
| M188_1-1 | 2023-03-10T10:28:00 | -32.6665 | 6.9345 | 822.5 | 830.0 | 4.7645 | 34.2897 |
| M188_1-1 | 2023-03-10T10:28:00 | -32.6665 | 6.9345 | 823.5 | 831.0 | 4.7374 | 34.2884 |
| M188_1-1 | 2023-03-10T10:28:00 | -32.6665 | 6.9345 | 824.5 | 832.0 | 4.7458 | 34.2909 |
| M188_1-1 | 2023-03-10T10:28:00 | -32.6665 | 6.9345 | 825.5 | 833.0 | 4.7454 | 34.2941 |
| M188_1-1 | 2023-03-10T10:28:00 | -32.6665 | 6.9345 | 826.5 | 834.0 | 4.7417 | 34.2945 |
| M188_1-1 | 2023-03-10T10:28:00 | -32.6665 | 6.9345 | 827.5 | 835.0 | 4.7395 | 34.2947 |
| M188_1-1 | 2023-03-10T10:28:00 | -32.6665 | 6.9345 | 828.5 | 836.0 | 4.7677 | 34.3022 |
| M188_1-1 | 2023-03-10T10:28:00 | -32.6665 | 6.9345 | 829.4 | 837.0 | 4.8225 | 34.3122 |
| M188_1-1 | 2023-03-10T10:28:00 | -32.6665 | 6.9345 | 830.4 | 838.0 | 4.8219 | 34.3126 |
| M188_1-1 | 2023-03-10T10:28:00 | -32.6665 | 6.9345 | 831.4 | 839.0 | 4.8221 | 34.3136 |
| M188_1-1 | 2023-03-10T10:28:00 | -32.6665 | 6.9345 | 832.4 | 840.0 | 4.8222 | 34.3149 |
| M188_1-1 | 2023-03-10T10:28:00 | -32.6665 | 6.9345 | 833.4 | 841.0 | 4.8108 | 34.3149 |
| M188_1-1 | 2023-03-10T10:28:00 | -32.6665 | 6.9345 | 834.4 | 842.0 | 4.8002 | 34.3145 |
| M188_1-1 | 2023-03-10T10:28:00 | -32.6665 | 6.9345 | 835.4 | 843.0 | 4.8056 | 34.3164 |
| M188_1-1 | 2023-03-10T10:28:00 | -32.6665 | 6.9345 | 836.4 | 844.0 | 4.8029 | 34.3167 |
| M188_1-1 | 2023-03-10T10:28:00 | -32.6665 | 6.9345 | 837.4 | 845.0 | 4.7945 | 34.3163 |
| M188_1-1 | 2023-03-10T10:28:00 | -32.6665 | 6.9345 | 838.3 | 846.0 | 4.7786 | 34.3153 |
| M188_1-1 | 2023-03-10T10:28:00 | -32.6665 | 6.9345 | 839.3 | 847.0 | 4.7419 | 34.3120 |
| M188_1-1 | 2023-03-10T10:28:00 | -32.6665 | 6.9345 | 840.3 | 848.0 | 4.7030 | 34.3091 |
| M188_1-1 | 2023-03-10T10:28:00 | -32.6665 | 6.9345 | 841.3 | 849.0 | 4.6663 | 34.3056 |
| M188_1-1 | 2023-03-10T10:28:00 | -32.6665 | 6.9345 | 842.3 | 850.0 | 4.6551 | 34.3042 |
| M188_1-1 | 2023-03-10T10:28:00 | -32.6665 | 6.9345 | 843.3 | 851.0 | 4.6514 | 34.3031 |
| M188_1-1 | 2023-03-10T10:28:00 | -32.6665 | 6.9345 | 844.3 | 852.0 | 4.6507 | 34.3023 |
| M188_1-1 | 2023-03-10T10:28:00 | -32.6665 | 6.9345 | 845.3 | 853.0 | 4.6623 | 34.3054 |
| M188_1-1 | 2023-03-10T10:28:00 | -32.6665 | 6.9345 | 846.3 | 854.0 | 4.6713 | 34.3087 |
| M188_1-1 | 2023-03-10T10:28:00 | -32.6665 | 6.9345 | 847.2 | 855.0 | 4.6744 | 34.3098 |
| M188_1-1 | 2023-03-10T10:28:00 | -32.6665 | 6.9345 | 848.2 | 856.0 | 4.6850 | 34.3121 |
| M188_1-1 | 2023-03-10T10:28:00 | -32.6665 | 6.9345 | 849.2 | 857.0 | 4.7062 | 34.3163 |
| M188_1-1 | 2023-03-10T10:28:00 | -32.6665 | 6.9345 | 850.2 | 858.0 | 4.6969 | 34.3174 |
| M188_1-1 | 2023-03-10T10:28:00 | -32.6665 | 6.9345 | 851.2 | 859.0 | 4.6896 | 34.3188 |
| M188_1-1 | 2023-03-10T10:28:00 | -32.6665 | 6.9345 | 852.2 | 860.0 | 4.6815 | 34.3183 |
| M188_1-1 | 2023-03-10T10:28:00 | -32.6665 | 6.9345 | 853.2 | 861.0 | 4.6635 | 34.3175 |
| M188_1-1 | 2023-03-10T10:28:00 | -32.6665 | 6.9345 | 854.2 | 862.0 | 4.6508 | 34.3166 |
| M188_1-1 | 2023-03-10T10:28:00 | -32.6665 | 6.9345 | 855.2 | 863.0 | 4.6468 | 34.3174 |
| M188_1-1 | 2023-03-10T10:28:00 | -32.6665 | 6.9345 | 856.1 | 864.0 | 4.6379 | 34.3176 |
| M188_1-1 | 2023-03-10T10:28:00 | -32.6665 | 6.9345 | 857.1 | 865.0 | 4.6288 | 34.3178 |
| M188_1-1 | 2023-03-10T10:28:00 | -32.6665 | 6.9345 | 858.1 | 866.0 | 4.6287 | 34.3189 |
| M188_1-1 | 2023-03-10T10:28:00 | -32.6665 | 6.9345 | 859.1 | 867.0 | 4.6280 | 34.3195 |
| M188_1-1 | 2023-03-10T10:28:00 | -32.6665 | 6.9345 | 860.1 | 868.0 | 4.6255 | 34.3199 |
| M188_1-1 | 2023-03-10T10:28:00 | -32.6665 | 6.9345 | 861.1 | 869.0 | 4.6168 | 34.3196 |
| M188_1-1 | 2023-03-10T10:28:00 | -32.6665 | 6.9345 | 862.1 | 870.0 | 4.6117 | 34.3202 |
| M188_1-1 | 2023-03-10T10:28:00 | -32.6665 | 6.9345 | 863.1 | 871.0 | 4.5946 | 34.3200 |
| M188_1-1 | 2023-03-10T10:28:00 | -32.6665 | 6.9345 | 864.1 | 872.0 | 4.5762 | 34.3186 |
| M188_1-1 | 2023-03-10T10:28:00 | -32.6665 | 6.9345 | 865.0 | 873.0 | 4.5754 | 34.3184 |
| M188_1-1 | 2023-03-10T10:28:00 | -32.6665 | 6.9345 | 866.0 | 874.0 | 4.5902 | 34.3209 |
| M188_1-1 | 2023-03-10T10:28:00 | -32.6665 | 6.9345 | 867.0 | 875.0 | 4.5830 | 34.3211 |
| M188_1-1 | 2023-03-10T10:28:00 | -32.6665 | 6.9345 | 868.0 | 876.0 | 4.5537 | 34.3195 |
| M188_1-1 | 2023-03-10T10:28:00 | -32.6665 | 6.9345 | 869.0 | 877.0 | 4.5324 | 34.3185 |
| M188_1-1 | 2023-03-10T10:28:00 | -32.6665 | 6.9345 | 870.0 | 878.0 | 4.5336 | 34.3189 |
| M188_1-1 | 2023-03-10T10:28:00 | -32.6665 | 6.9345 | 871.0 | 879.0 | 4.5360 | 34.3192 |
| M188_1-1 | 2023-03-10T10:28:00 | -32.6665 | 6.9345 | 872.0 | 880.0 | 4.5298 | 34.3190 |
| M188_1-1 | 2023-03-10T10:28:00 | -32.6665 | 6.9345 | 873.0 | 881.0 | 4.5261 | 34.3199 |
| M188_1-1 | 2023-03-10T10:28:00 | -32.6665 | 6.9345 | 873.9 | 882.0 | 4.5270 | 34.3213 |
| M188_1-1 | 2023-03-10T10:28:00 | -32.6665 | 6.9345 | 874.9 | 883.0 | 4.5301 | 34.3217 |
| M188_1-1 | 2023-03-10T10:28:00 | -32.6665 | 6.9345 | 875.9 | 884.0 | 4.5321 | 34.3222 |
| M188_1-1 | 2023-03-10T10:28:00 | -32.6665 | 6.9345 | 876.9 | 885.0 | 4.5311 | 34.3221 |
| M188_1-1 | 2023-03-10T10:28:00 | -32.6665 | 6.9345 | 877.9 | 886.0 | 4.5184 | 34.3216 |
| M188_1-1 | 2023-03-10T10:28:00 | -32.6665 | 6.9345 | 878.9 | 887.0 | 4.5027 | 34.3217 |
| M188_1-1 | 2023-03-10T10:28:00 | -32.6665 | 6.9345 | 879.9 | 888.0 | 4.5007 | 34.3211 |
| M188_1-1 | 2023-03-10T10:28:00 | -32.6665 | 6.9345 | 880.9 | 889.0 | 4.5000 | 34.3211 |
| M188_1-1 | 2023-03-10T10:28:00 | -32.6665 | 6.9345 | 881.9 | 890.0 | 4.4997 | 34.3211 |
| M188_1-1 | 2023-03-10T10:28:00 | -32.6665 | 6.9345 | 882.8 | 891.0 | 4.4989 | 34.3210 |
| M188_1-1 | 2023-03-10T10:28:00 | -32.6665 | 6.9345 | 883.8 | 892.0 | 4.4771 | 34.3209 |
| M188_1-1 | 2023-03-10T10:28:00 | -32.6665 | 6.9345 | 884.8 | 893.0 | 4.4952 | 34.3245 |
| M188_1-1 | 2023-03-10T10:28:00 | -32.6665 | 6.9345 | 885.8 | 894.0 | 4.4939 | 34.3251 |
| M188_1-1 | 2023-03-10T10:28:00 | -32.6665 | 6.9345 | 886.8 | 895.0 | 4.4697 | 34.3241 |
| M188_1-1 | 2023-03-10T10:28:00 | -32.6665 | 6.9345 | 887.8 | 896.0 | 4.4521 | 34.3233 |
| M188_1-1 | 2023-03-10T10:28:00 | -32.6665 | 6.9345 | 888.8 | 897.0 | 4.4525 | 34.3235 |
| M188_1-1 | 2023-03-10T10:28:00 | -32.6665 | 6.9345 | 889.8 | 898.0 | 4.4476 | 34.3230 |
| M188_1-1 | 2023-03-10T10:28:00 | -32.6665 | 6.9345 | 890.8 | 899.0 | 4.4467 | 34.3231 |
| M188_1-1 | 2023-03-10T10:28:00 | -32.6665 | 6.9345 | 891.7 | 900.0 | 4.4498 | 34.3245 |
| M188_1-1 | 2023-03-10T10:28:00 | -32.6665 | 6.9345 | 892.7 | 901.0 | 4.4553 | 34.3264 |
| M188_1-1 | 2023-03-10T10:28:00 | -32.6665 | 6.9345 | 893.7 | 902.0 | 4.4607 | 34.3276 |
| M188_1-1 | 2023-03-10T10:28:00 | -32.6665 | 6.9345 | 894.7 | 903.0 | 4.4554 | 34.3279 |
| M188_1-1 | 2023-03-10T10:28:00 | -32.6665 | 6.9345 | 895.7 | 904.0 | 4.4296 | 34.3261 |
| M188_1-1 | 2023-03-10T10:28:00 | -32.6665 | 6.9345 | 896.7 | 905.0 | 4.4151 | 34.3248 |
| M188_1-1 | 2023-03-10T10:28:00 | -32.6665 | 6.9345 | 897.7 | 906.0 | 4.4036 | 34.3233 |
| M188_1-1 | 2023-03-10T10:28:00 | -32.6665 | 6.9345 | 898.7 | 907.0 | 4.3932 | 34.3229 |
| M188_1-1 | 2023-03-10T10:28:00 | -32.6665 | 6.9345 | 899.7 | 908.0 | 4.3710 | 34.3193 |
| M188_1-1 | 2023-03-10T10:28:00 | -32.6665 | 6.9345 | 900.6 | 909.0 | 4.3281 | 34.3155 |
| M188_1-1 | 2023-03-10T10:28:00 | -32.6665 | 6.9345 | 901.6 | 910.0 | 4.3272 | 34.3150 |
| M188_1-1 | 2023-03-10T10:28:00 | -32.6665 | 6.9345 | 902.6 | 911.0 | 4.3237 | 34.3144 |
| M188_1-1 | 2023-03-10T10:28:00 | -32.6665 | 6.9345 | 903.6 | 912.0 | 4.3210 | 34.3137 |
| M188_1-1 | 2023-03-10T10:28:00 | -32.6665 | 6.9345 | 904.6 | 913.0 | 4.3209 | 34.3136 |
| M188_1-1 | 2023-03-10T10:28:00 | -32.6665 | 6.9345 | 905.6 | 914.0 | 4.3207 | 34.3133 |
| M188_1-1 | 2023-03-10T10:28:00 | -32.6665 | 6.9345 | 906.6 | 915.0 | 4.3204 | 34.3130 |
| M188_1-1 | 2023-03-10T10:28:00 | -32.6665 | 6.9345 | 907.6 | 916.0 | 4.3193 | 34.3131 |
| M188_1-1 | 2023-03-10T10:28:00 | -32.6665 | 6.9345 | 908.6 | 917.0 | 4.3141 | 34.3139 |
| M188_1-1 | 2023-03-10T10:28:00 | -32.6665 | 6.9345 | 909.5 | 918.0 | 4.2996 | 34.3128 |
| M188_1-1 | 2023-03-10T10:28:00 | -32.6665 | 6.9345 | 910.5 | 919.0 | 4.2684 | 34.3096 |
| M188_1-1 | 2023-03-10T10:28:00 | -32.6665 | 6.9345 | 911.5 | 920.0 | 4.2431 | 34.3069 |
| M188_1-1 | 2023-03-10T10:28:00 | -32.6665 | 6.9345 | 912.5 | 921.0 | 4.2105 | 34.3024 |
| M188_1-1 | 2023-03-10T10:28:00 | -32.6665 | 6.9345 | 913.5 | 922.0 | 4.1877 | 34.3014 |
| M188_1-1 | 2023-03-10T10:28:00 | -32.6665 | 6.9345 | 914.5 | 923.0 | 4.2172 | 34.3068 |
| M188_1-1 | 2023-03-10T10:28:00 | -32.6665 | 6.9345 | 915.5 | 924.0 | 4.2093 | 34.3060 |
| M188_1-1 | 2023-03-10T10:28:00 | -32.6665 | 6.9345 | 916.5 | 925.0 | 4.1915 | 34.3042 |
| M188_1-1 | 2023-03-10T10:28:00 | -32.6665 | 6.9345 | 917.5 | 926.0 | 4.1884 | 34.3037 |
| M188_1-1 | 2023-03-10T10:28:00 | -32.6665 | 6.9345 | 918.4 | 927.0 | 4.1907 | 34.3039 |
| M188_1-1 | 2023-03-10T10:28:00 | -32.6665 | 6.9345 | 919.4 | 928.0 | 4.1796 | 34.3027 |
| M188_1-1 | 2023-03-10T10:28:00 | -32.6665 | 6.9345 | 920.4 | 929.0 | 4.1448 | 34.2998 |
| M188_1-1 | 2023-03-10T10:28:00 | -32.6665 | 6.9345 | 921.4 | 930.0 | 4.1165 | 34.2970 |
| M188_1-1 | 2023-03-10T10:28:00 | -32.6665 | 6.9345 | 922.4 | 931.0 | 4.0709 | 34.2936 |
| M188_1-1 | 2023-03-10T10:28:00 | -32.6665 | 6.9345 | 923.4 | 932.0 | 4.0499 | 34.2912 |
| M188_1-1 | 2023-03-10T10:28:00 | -32.6665 | 6.9345 | 924.4 | 933.0 | 4.0190 | 34.2883 |
| M188_1-1 | 2023-03-10T10:28:00 | -32.6665 | 6.9345 | 925.4 | 934.0 | 4.0169 | 34.2922 |
| M188_1-1 | 2023-03-10T10:28:00 | -32.6665 | 6.9345 | 926.3 | 935.0 | 4.0216 | 34.2937 |
| M188_1-1 | 2023-03-10T10:28:00 | -32.6665 | 6.9345 | 927.3 | 936.0 | 4.0227 | 34.2936 |
| M188_1-1 | 2023-03-10T10:28:00 | -32.6665 | 6.9345 | 928.3 | 937.0 | 4.0263 | 34.2942 |
| M188_1-1 | 2023-03-10T10:28:00 | -32.6665 | 6.9345 | 929.3 | 938.0 | 4.0687 | 34.3025 |
| M188_1-1 | 2023-03-10T10:28:00 | -32.6665 | 6.9345 | 930.3 | 939.0 | 4.1545 | 34.3170 |
| M188_1-1 | 2023-03-10T10:28:00 | -32.6665 | 6.9345 | 931.3 | 940.0 | 4.1615 | 34.3187 |
| M188_1-1 | 2023-03-10T10:28:00 | -32.6665 | 6.9345 | 932.3 | 941.0 | 4.1264 | 34.3165 |
| M188_1-1 | 2023-03-10T10:28:00 | -32.6665 | 6.9345 | 933.3 | 942.0 | 4.0960 | 34.3138 |
| M188_1-1 | 2023-03-10T10:28:00 | -32.6665 | 6.9345 | 934.3 | 943.0 | 4.0876 | 34.3127 |
| M188_1-1 | 2023-03-10T10:28:00 | -32.6665 | 6.9345 | 935.2 | 944.0 | 4.0820 | 34.3118 |
| M188_1-1 | 2023-03-10T10:28:00 | -32.6665 | 6.9345 | 936.2 | 945.0 | 4.0746 | 34.3109 |
| M188_1-1 | 2023-03-10T10:28:00 | -32.6665 | 6.9345 | 937.2 | 946.0 | 4.0642 | 34.3097 |
| M188_1-1 | 2023-03-10T10:28:00 | -32.6665 | 6.9345 | 938.2 | 947.0 | 4.0633 | 34.3092 |
| M188_1-1 | 2023-03-10T10:28:00 | -32.6665 | 6.9345 | 939.2 | 948.0 | 4.0701 | 34.3106 |
| M188_1-1 | 2023-03-10T10:28:00 | -32.6665 | 6.9345 | 940.2 | 949.0 | 4.0563 | 34.3092 |
| M188_1-1 | 2023-03-10T10:28:00 | -32.6665 | 6.9345 | 941.2 | 950.0 | 4.0528 | 34.3086 |
| M188_1-1 | 2023-03-10T10:28:00 | -32.6665 | 6.9345 | 942.2 | 951.0 | 3.9738 | 34.2996 |
| M188_1-1 | 2023-03-10T10:28:00 | -32.6665 | 6.9345 | 943.2 | 952.0 | 3.8502 | 34.2901 |
| M188_1-1 | 2023-03-10T10:28:00 | -32.6665 | 6.9345 | 944.1 | 953.0 | 3.8383 | 34.2880 |
| M188_1-1 | 2023-03-10T10:28:00 | -32.6665 | 6.9345 | 945.1 | 954.0 | 3.8320 | 34.2875 |
| M188_1-1 | 2023-03-10T10:28:00 | -32.6665 | 6.9345 | 946.1 | 955.0 | 3.8328 | 34.2874 |
| M188_1-1 | 2023-03-10T10:28:00 | -32.6665 | 6.9345 | 947.1 | 956.0 | 3.8532 | 34.2907 |
| M188_1-1 | 2023-03-10T10:28:00 | -32.6665 | 6.9345 | 948.1 | 957.0 | 3.9070 | 34.3002 |
| M188_1-1 | 2023-03-10T10:28:00 | -32.6665 | 6.9345 | 949.1 | 958.0 | 3.9594 | 34.3080 |
| M188_1-1 | 2023-03-10T10:28:00 | -32.6665 | 6.9345 | 950.1 | 959.0 | 3.9800 | 34.3114 |
| M188_1-1 | 2023-03-10T10:28:00 | -32.6665 | 6.9345 | 951.1 | 960.0 | 3.9917 | 34.3140 |
| M188_1-1 | 2023-03-10T10:28:00 | -32.6665 | 6.9345 | 952.0 | 961.0 | 3.9502 | 34.3118 |
| M188_1-1 | 2023-03-10T10:28:00 | -32.6665 | 6.9345 | 953.0 | 962.0 | 3.9099 | 34.3089 |
| M188_1-1 | 2023-03-10T10:28:00 | -32.6665 | 6.9345 | 954.0 | 963.0 | 3.9048 | 34.3091 |
| M188_1-1 | 2023-03-10T10:28:00 | -32.6665 | 6.9345 | 955.0 | 964.0 | 3.9128 | 34.3102 |
| M188_1-1 | 2023-03-10T10:28:00 | -32.6665 | 6.9345 | 956.0 | 965.0 | 3.9200 | 34.3110 |
| M188_1-1 | 2023-03-10T10:28:00 | -32.6665 | 6.9345 | 957.0 | 966.0 | 3.8862 | 34.3069 |
| M188_1-1 | 2023-03-10T10:28:00 | -32.6665 | 6.9345 | 958.0 | 967.0 | 3.8685 | 34.3054 |
| M188_1-1 | 2023-03-10T10:28:00 | -32.6665 | 6.9345 | 959.0 | 968.0 | 3.8319 | 34.3018 |
| M188_1-1 | 2023-03-10T10:28:00 | -32.6665 | 6.9345 | 960.0 | 969.0 | 3.8168 | 34.2998 |
| M188_1-1 | 2023-03-10T10:28:00 | -32.6665 | 6.9345 | 960.9 | 970.0 | 3.8721 | 34.3082 |
| M188_1-1 | 2023-03-10T10:28:00 | -32.6665 | 6.9345 | 961.9 | 971.0 | 3.8715 | 34.3087 |
| M188_1-1 | 2023-03-10T10:28:00 | -32.6665 | 6.9345 | 962.9 | 972.0 | 3.7515 | 34.2990 |
| M188_1-1 | 2023-03-10T10:28:00 | -32.6665 | 6.9345 | 963.9 | 973.0 | 3.8045 | 34.3053 |
| M188_1-1 | 2023-03-10T10:28:00 | -32.6665 | 6.9345 | 964.9 | 974.0 | 3.8467 | 34.3120 |
| M188_1-1 | 2023-03-10T10:28:00 | -32.6665 | 6.9345 | 965.9 | 975.0 | 3.8605 | 34.3148 |
| M188_1-1 | 2023-03-10T10:28:00 | -32.6665 | 6.9345 | 966.9 | 976.0 | 3.8753 | 34.3179 |
| M188_1-1 | 2023-03-10T10:28:00 | -32.6665 | 6.9345 | 967.9 | 977.0 | 3.9159 | 34.3248 |
| M188_1-1 | 2023-03-10T10:28:00 | -32.6665 | 6.9345 | 968.8 | 978.0 | 3.9837 | 34.3373 |
| M188_1-1 | 2023-03-10T10:28:00 | -32.6665 | 6.9345 | 969.8 | 979.0 | 3.9866 | 34.3382 |
| M188_1-1 | 2023-03-10T10:28:00 | -32.6665 | 6.9345 | 970.8 | 980.0 | 3.9955 | 34.3405 |
| M188_1-1 | 2023-03-10T10:28:00 | -32.6665 | 6.9345 | 971.8 | 981.0 | 3.9874 | 34.3402 |
| M188_1-1 | 2023-03-10T10:28:00 | -32.6665 | 6.9345 | 972.8 | 982.0 | 3.9770 | 34.3399 |
| M188_1-1 | 2023-03-10T10:28:00 | -32.6665 | 6.9345 | 973.8 | 983.0 | 3.9765 | 34.3398 |
| M188_1-1 | 2023-03-10T10:28:00 | -32.6665 | 6.9345 | 974.8 | 984.0 | 3.9759 | 34.3398 |
| M188_1-1 | 2023-03-10T10:28:00 | -32.6665 | 6.9345 | 975.8 | 985.0 | 3.9761 | 34.3396 |
| M188_1-1 | 2023-03-10T10:28:00 | -32.6665 | 6.9345 | 976.8 | 986.0 | 3.9632 | 34.3387 |
| M188_1-1 | 2023-03-10T10:28:00 | -32.6665 | 6.9345 | 977.7 | 987.0 | 3.9337 | 34.3352 |
| M188_1-1 | 2023-03-10T10:28:00 | -32.6665 | 6.9345 | 978.7 | 988.0 | 3.8997 | 34.3350 |
| M188_1-1 | 2023-03-10T10:28:00 | -32.6665 | 6.9345 | 979.7 | 989.0 | 3.8942 | 34.3346 |
| M188_1-1 | 2023-03-10T10:28:00 | -32.6665 | 6.9345 | 980.7 | 990.0 | 3.8719 | 34.3331 |
| M188_1-1 | 2023-03-10T10:28:00 | -32.6665 | 6.9345 | 981.7 | 991.0 | 3.8559 | 34.3326 |
| M188_1-1 | 2023-03-10T10:28:00 | -32.6665 | 6.9345 | 982.7 | 992.0 | 3.8563 | 34.3333 |
| M188_1-1 | 2023-03-10T10:28:00 | -32.6665 | 6.9345 | 983.7 | 993.0 | 3.8505 | 34.3327 |
| M188_1-1 | 2023-03-10T10:28:00 | -32.6665 | 6.9345 | 984.7 | 994.0 | 3.8174 | 34.3311 |
| M188_1-1 | 2023-03-10T10:28:00 | -32.6665 | 6.9345 | 985.7 | 995.0 | 3.8109 | 34.3302 |
| M188_1-1 | 2023-03-10T10:28:00 | -32.6665 | 6.9345 | 986.6 | 996.0 | 3.7917 | 34.3275 |
| M188_1-1 | 2023-03-10T10:28:00 | -32.6665 | 6.9345 | 987.6 | 997.0 | 3.7794 | 34.3255 |
| M188_1-1 | 2023-03-10T10:28:00 | -32.6665 | 6.9345 | 988.6 | 998.0 | 3.7742 | 34.3247 |
| M188_1-1 | 2023-03-10T10:28:00 | -32.6665 | 6.9345 | 989.6 | 999.0 | 3.7576 | 34.3237 |
| M188_1-1 | 2023-03-10T10:28:00 | -32.6665 | 6.9345 | 990.6 | 1000.0 | 3.7541 | 34.3235 |
| M188_1-1 | 2023-03-10T10:28:00 | -32.6665 | 6.9345 | 991.6 | 1001.0 | 3.7127 | 34.3201 |
| M188_1-1 | 2023-03-10T10:28:00 | -32.6665 | 6.9345 | 992.6 | 1002.0 | 3.6933 | 34.3191 |
| M188_1-1 | 2023-03-10T10:28:00 | -32.6665 | 6.9345 | 993.6 | 1003.0 | 3.6888 | 34.3185 |
| M188_1-1 | 2023-03-10T10:28:00 | -32.6665 | 6.9345 | 994.5 | 1004.0 | 3.6901 | 34.3187 |
| M188_1-1 | 2023-03-10T10:28:00 | -32.6665 | 6.9345 | 995.5 | 1005.0 | 3.6902 | 34.3191 |
| M188_1-1 | 2023-03-10T10:28:00 | -32.6665 | 6.9345 | 996.5 | 1006.0 | 3.6845 | 34.3189 |
| M188_1-1 | 2023-03-10T10:28:00 | -32.6665 | 6.9345 | 997.5 | 1007.0 | 3.6838 | 34.3187 |
| M188_1-1 | 2023-03-10T10:28:00 | -32.6665 | 6.9345 | 998.5 | 1008.0 | 3.6695 | 34.3189 |
| M188_1-1 | 2023-03-10T10:28:00 | -32.6665 | 6.9345 | 999.5 | 1009.0 | 3.6630 | 34.3198 |
| M188_1-1 | 2023-03-10T10:28:00 | -32.6665 | 6.9345 | 1000.5 | 1010.0 | 3.6609 | 34.3200 |
| M188_1-1 | 2023-03-10T10:28:00 | -32.6665 | 6.9345 | 1001.5 | 1011.0 | 3.6576 | 34.3199 |
| M188_1-1 | 2023-03-10T10:28:00 | -32.6665 | 6.9345 | 1002.5 | 1012.0 | 3.6587 | 34.3207 |
| M188_1-1 | 2023-03-10T10:28:00 | -32.6665 | 6.9345 | 1003.4 | 1013.0 | 3.6560 | 34.3212 |
| M188_1-1 | 2023-03-10T10:28:00 | -32.6665 | 6.9345 | 1004.4 | 1014.0 | 3.6534 | 34.3213 |
| M188_1-1 | 2023-03-10T10:28:00 | -32.6665 | 6.9345 | 1005.4 | 1015.0 | 3.6476 | 34.3212 |
| M188_1-1 | 2023-03-10T10:28:00 | -32.6665 | 6.9345 | 1006.4 | 1016.0 | 3.6438 | 34.3211 |
| M188_1-1 | 2023-03-10T10:28:00 | -32.6665 | 6.9345 | 1007.4 | 1017.0 | 3.6421 | 34.3209 |
| M188_1-1 | 2023-03-10T10:28:00 | -32.6665 | 6.9345 | 1008.4 | 1018.0 | 3.6386 | 34.3211 |
| M188_1-1 | 2023-03-10T10:28:00 | -32.6665 | 6.9345 | 1009.4 | 1019.0 | 3.6367 | 34.3212 |
| M188_1-1 | 2023-03-10T10:28:00 | -32.6665 | 6.9345 | 1010.4 | 1020.0 | 3.6362 | 34.3211 |
| M188_1-1 | 2023-03-10T10:28:00 | -32.6665 | 6.9345 | 1011.3 | 1021.0 | 3.6350 | 34.3213 |
| M188_1-1 | 2023-03-10T10:28:00 | -32.6665 | 6.9345 | 1012.3 | 1022.0 | 3.6284 | 34.3228 |
| M188_1-1 | 2023-03-10T10:28:00 | -32.6665 | 6.9345 | 1013.3 | 1023.0 | 3.6222 | 34.3244 |
| M188_1-1 | 2023-03-10T10:28:00 | -32.6665 | 6.9345 | 1014.3 | 1024.0 | 3.6209 | 34.3251 |
| M188_1-1 | 2023-03-10T10:28:00 | -32.6665 | 6.9345 | 1015.3 | 1025.0 | 3.6197 | 34.3251 |
| M188_1-1 | 2023-03-10T10:28:00 | -32.6665 | 6.9345 | 1016.3 | 1026.0 | 3.6185 | 34.3250 |
| M188_1-1 | 2023-03-10T10:28:00 | -32.6665 | 6.9345 | 1017.3 | 1027.0 | 3.6141 | 34.3256 |
| M188_1-1 | 2023-03-10T10:28:00 | -32.6665 | 6.9345 | 1018.3 | 1028.0 | 3.6068 | 34.3251 |
| M188_1-1 | 2023-03-10T10:28:00 | -32.6665 | 6.9345 | 1019.2 | 1029.0 | 3.5906 | 34.3246 |
| M188_1-1 | 2023-03-10T10:28:00 | -32.6665 | 6.9345 | 1020.2 | 1030.0 | 3.5737 | 34.3233 |
| M188_1-1 | 2023-03-10T10:28:00 | -32.6665 | 6.9345 | 1021.2 | 1031.0 | 3.5620 | 34.3230 |
| M188_1-1 | 2023-03-10T10:28:00 | -32.6665 | 6.9345 | 1022.2 | 1032.0 | 3.5548 | 34.3222 |
| M188_1-1 | 2023-03-10T10:28:00 | -32.6665 | 6.9345 | 1023.2 | 1033.0 | 3.5506 | 34.3231 |
| M188_1-1 | 2023-03-10T10:28:00 | -32.6665 | 6.9345 | 1024.2 | 1034.0 | 3.5483 | 34.3235 |
| M188_1-1 | 2023-03-10T10:28:00 | -32.6665 | 6.9345 | 1025.2 | 1035.0 | 3.5461 | 34.3237 |
| M188_1-1 | 2023-03-10T10:28:00 | -32.6665 | 6.9345 | 1026.2 | 1036.0 | 3.5567 | 34.3263 |
| M188_1-1 | 2023-03-10T10:28:00 | -32.6665 | 6.9345 | 1027.2 | 1037.0 | 3.5622 | 34.3280 |
| M188_1-1 | 2023-03-10T10:28:00 | -32.6665 | 6.9345 | 1028.1 | 1038.0 | 3.5608 | 34.3282 |
| M188_1-1 | 2023-03-10T10:28:00 | -32.6665 | 6.9345 | 1029.1 | 1039.0 | 3.5624 | 34.3283 |
| M188_1-1 | 2023-03-10T10:28:00 | -32.6665 | 6.9345 | 1030.1 | 1040.0 | 3.5623 | 34.3283 |
| M188_1-1 | 2023-03-10T10:28:00 | -32.6665 | 6.9345 | 1031.1 | 1041.0 | 3.5590 | 34.3285 |
| M188_1-1 | 2023-03-10T10:28:00 | -32.6665 | 6.9345 | 1032.1 | 1042.0 | 3.5606 | 34.3287 |
| M188_1-1 | 2023-03-10T10:28:00 | -32.6665 | 6.9345 | 1033.1 | 1043.0 | 3.5559 | 34.3295 |
| M188_1-1 | 2023-03-10T10:28:00 | -32.6665 | 6.9345 | 1034.1 | 1044.0 | 3.5546 | 34.3301 |
| M188_1-1 | 2023-03-10T10:28:00 | -32.6665 | 6.9345 | 1035.1 | 1045.0 | 3.5540 | 34.3300 |
| M188_1-1 | 2023-03-10T10:28:00 | -32.6665 | 6.9345 | 1036.0 | 1046.0 | 3.5527 | 34.3299 |
| M188_1-1 | 2023-03-10T10:28:00 | -32.6665 | 6.9345 | 1037.0 | 1047.0 | 3.5512 | 34.3299 |
| M188_1-1 | 2023-03-10T10:28:00 | -32.6665 | 6.9345 | 1038.0 | 1048.0 | 3.5497 | 34.3298 |
| M188_1-1 | 2023-03-10T10:28:00 | -32.6665 | 6.9345 | 1039.0 | 1049.0 | 3.5413 | 34.3300 |
| M188_1-1 | 2023-03-10T10:28:00 | -32.6665 | 6.9345 | 1040.0 | 1050.0 | 3.5375 | 34.3301 |
| M188_1-1 | 2023-03-10T10:28:00 | -32.6665 | 6.9345 | 1041.0 | 1051.0 | 3.5352 | 34.3312 |
| M188_1-1 | 2023-03-10T10:28:00 | -32.6665 | 6.9345 | 1042.0 | 1052.0 | 3.5343 | 34.3327 |
| M188_1-1 | 2023-03-10T10:28:00 | -32.6665 | 6.9345 | 1043.0 | 1053.0 | 3.5319 | 34.3326 |
| M188_1-1 | 2023-03-10T10:28:00 | -32.6665 | 6.9345 | 1043.9 | 1054.0 | 3.5261 | 34.3319 |
| M188_1-1 | 2023-03-10T10:28:00 | -32.6665 | 6.9345 | 1044.9 | 1055.0 | 3.5212 | 34.3316 |
| M188_1-1 | 2023-03-10T10:28:00 | -32.6665 | 6.9345 | 1045.9 | 1056.0 | 3.5212 | 34.3312 |
| M188_1-1 | 2023-03-10T10:28:00 | -32.6665 | 6.9345 | 1046.9 | 1057.0 | 3.5112 | 34.3305 |
| M188_1-1 | 2023-03-10T10:28:00 | -32.6665 | 6.9345 | 1047.9 | 1058.0 | 3.5058 | 34.3306 |
| M188_1-1 | 2023-03-10T10:28:00 | -32.6665 | 6.9345 | 1048.9 | 1059.0 | 3.5033 | 34.3307 |
| M188_1-1 | 2023-03-10T10:28:00 | -32.6665 | 6.9345 | 1049.9 | 1060.0 | 3.4945 | 34.3310 |
| M188_1-1 | 2023-03-10T10:28:00 | -32.6665 | 6.9345 | 1050.9 | 1061.0 | 3.4714 | 34.3322 |
| M188_1-1 | 2023-03-10T10:28:00 | -32.6665 | 6.9345 | 1051.9 | 1062.0 | 3.4724 | 34.3323 |
| M188_1-1 | 2023-03-10T10:28:00 | -32.6665 | 6.9345 | 1052.8 | 1063.0 | 3.4668 | 34.3330 |
| M188_1-1 | 2023-03-10T10:28:00 | -32.6665 | 6.9345 | 1053.8 | 1064.0 | 3.4656 | 34.3347 |
| M188_1-1 | 2023-03-10T10:28:00 | -32.6665 | 6.9345 | 1054.8 | 1065.0 | 3.4586 | 34.3353 |
| M188_1-1 | 2023-03-10T10:28:00 | -32.6665 | 6.9345 | 1055.8 | 1066.0 | 3.4712 | 34.3386 |
| M188_1-1 | 2023-03-10T10:28:00 | -32.6665 | 6.9345 | 1056.8 | 1067.0 | 3.4772 | 34.3409 |
| M188_1-1 | 2023-03-10T10:28:00 | -32.6665 | 6.9345 | 1057.8 | 1068.0 | 3.4828 | 34.3429 |
| M188_1-1 | 2023-03-10T10:28:00 | -32.6665 | 6.9345 | 1058.8 | 1069.0 | 3.4807 | 34.3438 |
| M188_1-1 | 2023-03-10T10:28:00 | -32.6665 | 6.9345 | 1059.8 | 1070.0 | 3.4807 | 34.3442 |
| M188_1-1 | 2023-03-10T10:28:00 | -32.6665 | 6.9345 | 1060.7 | 1071.0 | 3.4807 | 34.3443 |
| M188_1-1 | 2023-03-10T10:28:00 | -32.6665 | 6.9345 | 1061.7 | 1072.0 | 3.4901 | 34.3460 |
| M188_1-1 | 2023-03-10T10:28:00 | -32.6665 | 6.9345 | 1062.7 | 1073.0 | 3.4909 | 34.3460 |
| M188_1-1 | 2023-03-10T10:28:00 | -32.6665 | 6.9345 | 1063.7 | 1074.0 | 3.5011 | 34.3490 |
| M188_1-1 | 2023-03-10T10:28:00 | -32.6665 | 6.9345 | 1064.7 | 1075.0 | 3.5167 | 34.3541 |
| M188_1-1 | 2023-03-10T10:28:00 | -32.6665 | 6.9345 | 1065.7 | 1076.0 | 3.5237 | 34.3590 |
| M188_1-1 | 2023-03-10T10:28:00 | -32.6665 | 6.9345 | 1066.7 | 1077.0 | 3.5250 | 34.3605 |
| M188_1-1 | 2023-03-10T10:28:00 | -32.6665 | 6.9345 | 1067.7 | 1078.0 | 3.5221 | 34.3617 |
| M188_1-1 | 2023-03-10T10:28:00 | -32.6665 | 6.9345 | 1068.6 | 1079.0 | 3.5131 | 34.3617 |
| M188_1-1 | 2023-03-10T10:28:00 | -32.6665 | 6.9345 | 1069.6 | 1080.0 | 3.5077 | 34.3623 |
| M188_1-1 | 2023-03-10T10:28:00 | -32.6665 | 6.9345 | 1070.6 | 1081.0 | 3.5070 | 34.3625 |
| M188_1-1 | 2023-03-10T10:28:00 | -32.6665 | 6.9345 | 1071.6 | 1082.0 | 3.5068 | 34.3631 |
| M188_1-1 | 2023-03-10T10:28:00 | -32.6665 | 6.9345 | 1072.6 | 1083.0 | 3.5078 | 34.3642 |
| M188_1-1 | 2023-03-10T10:28:00 | -32.6665 | 6.9345 | 1073.6 | 1084.0 | 3.5078 | 34.3648 |
| M188_1-1 | 2023-03-10T10:28:00 | -32.6665 | 6.9345 | 1074.6 | 1085.0 | 3.5057 | 34.3660 |
| M188_1-1 | 2023-03-10T10:28:00 | -32.6665 | 6.9345 | 1075.6 | 1086.0 | 3.5028 | 34.3689 |
| M188_1-1 | 2023-03-10T10:28:00 | -32.6665 | 6.9345 | 1076.6 | 1087.0 | 3.5090 | 34.3703 |
| M188_1-1 | 2023-03-10T10:28:00 | -32.6665 | 6.9345 | 1077.5 | 1088.0 | 3.5126 | 34.3712 |
| M188_1-1 | 2023-03-10T10:28:00 | -32.6665 | 6.9345 | 1078.5 | 1089.0 | 3.5186 | 34.3730 |
| M188_1-1 | 2023-03-10T10:28:00 | -32.6665 | 6.9345 | 1079.5 | 1090.0 | 3.5249 | 34.3747 |
| M188_1-1 | 2023-03-10T10:28:00 | -32.6665 | 6.9345 | 1080.5 | 1091.0 | 3.5273 | 34.3768 |
| M188_1-1 | 2023-03-10T10:28:00 | -32.6665 | 6.9345 | 1081.5 | 1092.0 | 3.5260 | 34.3784 |
| M188_1-1 | 2023-03-10T10:28:00 | -32.6665 | 6.9345 | 1082.5 | 1093.0 | 3.5283 | 34.3795 |
| M188_1-1 | 2023-03-10T10:28:00 | -32.6665 | 6.9345 | 1083.5 | 1094.0 | 3.5374 | 34.3817 |
| M188_1-1 | 2023-03-10T10:28:00 | -32.6665 | 6.9345 | 1084.5 | 1095.0 | 3.5422 | 34.3844 |
| M188_1-1 | 2023-03-10T10:28:00 | -32.6665 | 6.9345 | 1085.4 | 1096.0 | 3.5451 | 34.3874 |
| M188_1-1 | 2023-03-10T10:28:00 | -32.6665 | 6.9345 | 1086.4 | 1097.0 | 3.5477 | 34.3891 |
| M188_1-1 | 2023-03-10T10:28:00 | -32.6665 | 6.9345 | 1087.4 | 1098.0 | 3.5486 | 34.3895 |
| M188_1-1 | 2023-03-10T10:28:00 | -32.6665 | 6.9345 | 1088.4 | 1099.0 | 3.5506 | 34.3914 |
| M188_1-1 | 2023-03-10T10:28:00 | -32.6665 | 6.9345 | 1089.4 | 1100.0 | 3.5436 | 34.3922 |
| M188_1-1 | 2023-03-10T10:28:00 | -32.6665 | 6.9345 | 1090.4 | 1101.0 | 3.5433 | 34.3947 |
| M188_1-1 | 2023-03-10T10:28:00 | -32.6665 | 6.9345 | 1091.4 | 1102.0 | 3.5531 | 34.3985 |
| M188_1-1 | 2023-03-10T10:28:00 | -32.6665 | 6.9345 | 1092.4 | 1103.0 | 3.5573 | 34.4004 |
| M188_1-1 | 2023-03-10T10:28:00 | -32.6665 | 6.9345 | 1093.3 | 1104.0 | 3.5576 | 34.4016 |
| M188_1-1 | 2023-03-10T10:28:00 | -32.6665 | 6.9345 | 1094.3 | 1105.0 | 3.5614 | 34.4041 |
| M188_1-1 | 2023-03-10T10:28:00 | -32.6665 | 6.9345 | 1095.3 | 1106.0 | 3.5614 | 34.4043 |
| M188_1-1 | 2023-03-10T10:28:00 | -32.6665 | 6.9345 | 1096.3 | 1107.0 | 3.5589 | 34.4045 |
| M188_1-1 | 2023-03-10T10:28:00 | -32.6665 | 6.9345 | 1097.3 | 1108.0 | 3.5577 | 34.4048 |
| M188_1-1 | 2023-03-10T10:28:00 | -32.6665 | 6.9345 | 1098.3 | 1109.0 | 3.5559 | 34.4053 |
| M188_1-1 | 2023-03-10T10:28:00 | -32.6665 | 6.9345 | 1099.3 | 1110.0 | 3.5482 | 34.4052 |
| M188_1-1 | 2023-03-10T10:28:00 | -32.6665 | 6.9345 | 1100.3 | 1111.0 | 3.5487 | 34.4077 |
| M188_1-1 | 2023-03-10T10:28:00 | -32.6665 | 6.9345 | 1101.2 | 1112.0 | 3.5483 | 34.4084 |
| M188_1-1 | 2023-03-10T10:28:00 | -32.6665 | 6.9345 | 1102.2 | 1113.0 | 3.5471 | 34.4090 |
| M188_1-1 | 2023-03-10T10:28:00 | -32.6665 | 6.9345 | 1103.2 | 1114.0 | 3.5490 | 34.4100 |
| M188_1-1 | 2023-03-10T10:28:00 | -32.6665 | 6.9345 | 1104.2 | 1115.0 | 3.5621 | 34.4132 |
| M188_1-1 | 2023-03-10T10:28:00 | -32.6665 | 6.9345 | 1105.2 | 1116.0 | 3.5684 | 34.4150 |
| M188_1-1 | 2023-03-10T10:28:00 | -32.6665 | 6.9345 | 1106.2 | 1117.0 | 3.5716 | 34.4159 |
| M188_1-1 | 2023-03-10T10:28:00 | -32.6665 | 6.9345 | 1107.2 | 1118.0 | 3.5792 | 34.4192 |
| M188_1-1 | 2023-03-10T10:28:00 | -32.6665 | 6.9345 | 1108.2 | 1119.0 | 3.5835 | 34.4217 |
| M188_1-1 | 2023-03-10T10:28:00 | -32.6665 | 6.9345 | 1109.1 | 1120.0 | 3.5805 | 34.4215 |
| M188_1-1 | 2023-03-10T10:28:00 | -32.6665 | 6.9345 | 1110.1 | 1121.0 | 3.5731 | 34.4211 |
| M188_1-1 | 2023-03-10T10:28:00 | -32.6665 | 6.9345 | 1111.1 | 1122.0 | 3.5775 | 34.4232 |
| M188_1-1 | 2023-03-10T10:28:00 | -32.6665 | 6.9345 | 1112.1 | 1123.0 | 3.5993 | 34.4290 |
| M188_1-1 | 2023-03-10T10:28:00 | -32.6665 | 6.9345 | 1113.1 | 1124.0 | 3.6060 | 34.4309 |
| M188_1-1 | 2023-03-10T10:28:00 | -32.6665 | 6.9345 | 1114.1 | 1125.0 | 3.6078 | 34.4313 |
| M188_1-1 | 2023-03-10T10:28:00 | -32.6665 | 6.9345 | 1115.1 | 1126.0 | 3.6111 | 34.4330 |
| M188_1-1 | 2023-03-10T10:28:00 | -32.6665 | 6.9345 | 1116.1 | 1127.0 | 3.6111 | 34.4334 |
| M188_1-1 | 2023-03-10T10:28:00 | -32.6665 | 6.9345 | 1117.0 | 1128.0 | 3.6096 | 34.4336 |
| M188_1-1 | 2023-03-10T10:28:00 | -32.6665 | 6.9345 | 1118.0 | 1129.0 | 3.6077 | 34.4339 |
| M188_1-1 | 2023-03-10T10:28:00 | -32.6665 | 6.9345 | 1119.0 | 1130.0 | 3.6077 | 34.4337 |
| M188_1-1 | 2023-03-10T10:28:00 | -32.6665 | 6.9345 | 1120.0 | 1131.0 | 3.6075 | 34.4340 |
| M188_1-1 | 2023-03-10T10:28:00 | -32.6665 | 6.9345 | 1121.0 | 1132.0 | 3.6061 | 34.4342 |
| M188_1-1 | 2023-03-10T10:28:00 | -32.6665 | 6.9345 | 1122.0 | 1133.0 | 3.6041 | 34.4342 |
| M188_1-1 | 2023-03-10T10:28:00 | -32.6665 | 6.9345 | 1123.0 | 1134.0 | 3.6020 | 34.4346 |
| M188_1-1 | 2023-03-10T10:28:00 | -32.6665 | 6.9345 | 1124.0 | 1135.0 | 3.6013 | 34.4363 |
| M188_1-1 | 2023-03-10T10:28:00 | -32.6665 | 6.9345 | 1124.9 | 1136.0 | 3.6000 | 34.4365 |
| M188_1-1 | 2023-03-10T10:28:00 | -32.6665 | 6.9345 | 1125.9 | 1137.0 | 3.5914 | 34.4372 |
| M188_1-1 | 2023-03-10T10:28:00 | -32.6665 | 6.9345 | 1126.9 | 1138.0 | 3.5922 | 34.4387 |
| M188_1-1 | 2023-03-10T10:28:00 | -32.6665 | 6.9345 | 1127.9 | 1139.0 | 3.5901 | 34.4394 |
| M188_1-1 | 2023-03-10T10:28:00 | -32.6665 | 6.9345 | 1128.9 | 1140.0 | 3.5876 | 34.4400 |
| M188_1-1 | 2023-03-10T10:28:00 | -32.6665 | 6.9345 | 1129.9 | 1141.0 | 3.5862 | 34.4401 |
| M188_1-1 | 2023-03-10T10:28:00 | -32.6665 | 6.9345 | 1130.9 | 1142.0 | 3.5794 | 34.4416 |
| M188_1-1 | 2023-03-10T10:28:00 | -32.6665 | 6.9345 | 1131.9 | 1143.0 | 3.5771 | 34.4424 |
| M188_1-1 | 2023-03-10T10:28:00 | -32.6665 | 6.9345 | 1132.8 | 1144.0 | 3.5749 | 34.4430 |
| M188_1-1 | 2023-03-10T10:28:00 | -32.6665 | 6.9345 | 1133.8 | 1145.0 | 3.5723 | 34.4434 |
| M188_1-1 | 2023-03-10T10:28:00 | -32.6665 | 6.9345 | 1134.8 | 1146.0 | 3.5686 | 34.4438 |
| M188_1-1 | 2023-03-10T10:28:00 | -32.6665 | 6.9345 | 1135.8 | 1147.0 | 3.5665 | 34.4444 |
| M188_1-1 | 2023-03-10T10:28:00 | -32.6665 | 6.9345 | 1136.8 | 1148.0 | 3.5610 | 34.4454 |
| M188_1-1 | 2023-03-10T10:28:00 | -32.6665 | 6.9345 | 1137.8 | 1149.0 | 3.5565 | 34.4462 |
| M188_1-1 | 2023-03-10T10:28:00 | -32.6665 | 6.9345 | 1138.8 | 1150.0 | 3.5543 | 34.4464 |
| M188_1-1 | 2023-03-10T10:28:00 | -32.6665 | 6.9345 | 1139.8 | 1151.0 | 3.5524 | 34.4467 |
| M188_1-1 | 2023-03-10T10:28:00 | -32.6665 | 6.9345 | 1140.7 | 1152.0 | 3.5504 | 34.4471 |
| M188_1-1 | 2023-03-10T10:28:00 | -32.6665 | 6.9345 | 1141.7 | 1153.0 | 3.5492 | 34.4471 |
| M188_1-1 | 2023-03-10T10:28:00 | -32.6665 | 6.9345 | 1142.7 | 1154.0 | 3.5475 | 34.4473 |
| M188_1-1 | 2023-03-10T10:28:00 | -32.6665 | 6.9345 | 1143.7 | 1155.0 | 3.5404 | 34.4487 |
| M188_1-1 | 2023-03-10T10:28:00 | -32.6665 | 6.9345 | 1144.7 | 1156.0 | 3.5377 | 34.4493 |
| M188_1-1 | 2023-03-10T10:28:00 | -32.6665 | 6.9345 | 1145.7 | 1157.0 | 3.5344 | 34.4499 |
| M188_1-1 | 2023-03-10T10:28:00 | -32.6665 | 6.9345 | 1146.7 | 1158.0 | 3.5308 | 34.4510 |
| M188_1-1 | 2023-03-10T10:28:00 | -32.6665 | 6.9345 | 1147.7 | 1159.0 | 3.5299 | 34.4512 |
| M188_1-1 | 2023-03-10T10:28:00 | -32.6665 | 6.9345 | 1148.6 | 1160.0 | 3.5293 | 34.4516 |
| M188_1-1 | 2023-03-10T10:28:00 | -32.6665 | 6.9345 | 1149.6 | 1161.0 | 3.5280 | 34.4516 |
| M188_1-1 | 2023-03-10T10:28:00 | -32.6665 | 6.9345 | 1150.6 | 1162.0 | 3.5259 | 34.4519 |
| M188_1-1 | 2023-03-10T10:28:00 | -32.6665 | 6.9345 | 1151.6 | 1163.0 | 3.5218 | 34.4526 |
| M188_1-1 | 2023-03-10T10:28:00 | -32.6665 | 6.9345 | 1152.6 | 1164.0 | 3.5184 | 34.4536 |
| M188_1-1 | 2023-03-10T10:28:00 | -32.6665 | 6.9345 | 1153.6 | 1165.0 | 3.5163 | 34.4539 |
| M188_1-1 | 2023-03-10T10:28:00 | -32.6665 | 6.9345 | 1154.6 | 1166.0 | 3.5155 | 34.4541 |
| M188_1-1 | 2023-03-10T10:28:00 | -32.6665 | 6.9345 | 1155.6 | 1167.0 | 3.5106 | 34.4550 |
| M188_1-1 | 2023-03-10T10:28:00 | -32.6665 | 6.9345 | 1156.5 | 1168.0 | 3.5030 | 34.4569 |
| M188_1-1 | 2023-03-10T10:28:00 | -32.6665 | 6.9345 | 1157.5 | 1169.0 | 3.4983 | 34.4580 |
| M188_1-1 | 2023-03-10T10:28:00 | -32.6665 | 6.9345 | 1158.5 | 1170.0 | 3.4934 | 34.4590 |
| M188_1-1 | 2023-03-10T10:28:00 | -32.6665 | 6.9345 | 1159.5 | 1171.0 | 3.4925 | 34.4593 |
| M188_1-1 | 2023-03-10T10:28:00 | -32.6665 | 6.9345 | 1160.5 | 1172.0 | 3.4893 | 34.4600 |
| M188_1-1 | 2023-03-10T10:28:00 | -32.6665 | 6.9345 | 1161.5 | 1173.0 | 3.4887 | 34.4599 |
| M188_1-1 | 2023-03-10T10:28:00 | -32.6665 | 6.9345 | 1162.5 | 1174.0 | 3.4869 | 34.4603 |
| M188_1-1 | 2023-03-10T10:28:00 | -32.6665 | 6.9345 | 1163.5 | 1175.0 | 3.4853 | 34.4602 |
| M188_1-1 | 2023-03-10T10:28:00 | -32.6665 | 6.9345 | 1164.4 | 1176.0 | 3.4846 | 34.4604 |
| M188_1-1 | 2023-03-10T10:28:00 | -32.6665 | 6.9345 | 1165.4 | 1177.0 | 3.4833 | 34.4607 |
| M188_1-1 | 2023-03-10T10:28:00 | -32.6665 | 6.9345 | 1166.4 | 1178.0 | 3.4806 | 34.4612 |
| M188_1-1 | 2023-03-10T10:28:00 | -32.6665 | 6.9345 | 1167.4 | 1179.0 | 3.4792 | 34.4613 |
| M188_1-1 | 2023-03-10T10:28:00 | -32.6665 | 6.9345 | 1168.4 | 1180.0 | 3.4773 | 34.4619 |
| M188_1-1 | 2023-03-10T10:28:00 | -32.6665 | 6.9345 | 1169.4 | 1181.0 | 3.4742 | 34.4638 |
| M188_1-1 | 2023-03-10T10:28:00 | -32.6665 | 6.9345 | 1170.4 | 1182.0 | 3.4737 | 34.4647 |
| M188_1-1 | 2023-03-10T10:28:00 | -32.6665 | 6.9345 | 1171.4 | 1183.0 | 3.4746 | 34.4652 |
| M188_1-1 | 2023-03-10T10:28:00 | -32.6665 | 6.9345 | 1172.3 | 1184.0 | 3.4724 | 34.4665 |
| M188_1-1 | 2023-03-10T10:28:00 | -32.6665 | 6.9345 | 1173.3 | 1185.0 | 3.4663 | 34.4672 |
| M188_1-1 | 2023-03-10T10:28:00 | -32.6665 | 6.9345 | 1174.3 | 1186.0 | 3.4585 | 34.4682 |
| M188_1-1 | 2023-03-10T10:28:00 | -32.6665 | 6.9345 | 1175.3 | 1187.0 | 3.4567 | 34.4690 |
| M188_1-1 | 2023-03-10T10:28:00 | -32.6665 | 6.9345 | 1176.3 | 1188.0 | 3.4564 | 34.4690 |
| M188_1-1 | 2023-03-10T10:28:00 | -32.6665 | 6.9345 | 1177.3 | 1189.0 | 3.4558 | 34.4689 |
| M188_1-1 | 2023-03-10T10:28:00 | -32.6665 | 6.9345 | 1178.3 | 1190.0 | 3.4552 | 34.4690 |
| M188_1-1 | 2023-03-10T10:28:00 | -32.6665 | 6.9345 | 1179.3 | 1191.0 | 3.4547 | 34.4690 |
| M188_1-1 | 2023-03-10T10:28:00 | -32.6665 | 6.9345 | 1180.2 | 1192.0 | 3.4537 | 34.4694 |
| M188_1-1 | 2023-03-10T10:28:00 | -32.6665 | 6.9345 | 1181.2 | 1193.0 | 3.4530 | 34.4697 |
| M188_1-1 | 2023-03-10T10:28:00 | -32.6665 | 6.9345 | 1182.2 | 1194.0 | 3.4528 | 34.4700 |
| M188_1-1 | 2023-03-10T10:28:00 | -32.6665 | 6.9345 | 1183.2 | 1195.0 | 3.4437 | 34.4704 |
| M188_1-1 | 2023-03-10T10:28:00 | -32.6665 | 6.9345 | 1184.2 | 1196.0 | 3.4395 | 34.4706 |
| M188_1-1 | 2023-03-10T10:28:00 | -32.6665 | 6.9345 | 1185.2 | 1197.0 | 3.4377 | 34.4708 |
| M188_1-1 | 2023-03-10T10:28:00 | -32.6665 | 6.9345 | 1186.2 | 1198.0 | 3.4251 | 34.4717 |
| M188_1-1 | 2023-03-10T10:28:00 | -32.6665 | 6.9345 | 1187.2 | 1199.0 | 3.4164 | 34.4726 |
| M188_1-1 | 2023-03-10T10:28:00 | -32.6665 | 6.9345 | 1188.1 | 1200.0 | 3.4148 | 34.4725 |
| M188_1-1 | 2023-03-10T10:28:00 | -32.6665 | 6.9345 | 1189.1 | 1201.0 | 3.4147 | 34.4724 |
| M188_1-1 | 2023-03-10T10:28:00 | -32.6665 | 6.9345 | 1190.1 | 1202.0 | 3.4092 | 34.4728 |
| M188_1-1 | 2023-03-10T10:28:00 | -32.6665 | 6.9345 | 1191.1 | 1203.0 | 3.4088 | 34.4729 |
| M188_1-1 | 2023-03-10T10:28:00 | -32.6665 | 6.9345 | 1192.1 | 1204.0 | 3.4085 | 34.4730 |
| M188_1-1 | 2023-03-10T10:28:00 | -32.6665 | 6.9345 | 1193.1 | 1205.0 | 3.4083 | 34.4733 |
| M188_1-1 | 2023-03-10T10:28:00 | -32.6665 | 6.9345 | 1194.1 | 1206.0 | 3.4082 | 34.4732 |
| M188_1-1 | 2023-03-10T10:28:00 | -32.6665 | 6.9345 | 1195.1 | 1207.0 | 3.4078 | 34.4735 |
| M188_1-1 | 2023-03-10T10:28:00 | -32.6665 | 6.9345 | 1196.0 | 1208.0 | 3.4068 | 34.4736 |
| M188_1-1 | 2023-03-10T10:28:00 | -32.6665 | 6.9345 | 1197.0 | 1209.0 | 3.4065 | 34.4740 |
| M188_1-1 | 2023-03-10T10:28:00 | -32.6665 | 6.9345 | 1198.0 | 1210.0 | 3.4047 | 34.4748 |
| M188_1-1 | 2023-03-10T10:28:00 | -32.6665 | 6.9345 | 1199.0 | 1211.0 | 3.4019 | 34.4758 |
| M188_1-1 | 2023-03-10T10:28:00 | -32.6665 | 6.9345 | 1200.0 | 1212.0 | 3.3992 | 34.4767 |
| M188_1-1 | 2023-03-10T10:28:00 | -32.6665 | 6.9345 | 1201.0 | 1213.0 | 3.3959 | 34.4779 |
| M188_1-1 | 2023-03-10T10:28:00 | -32.6665 | 6.9345 | 1202.0 | 1214.0 | 3.3975 | 34.4793 |
| M188_1-1 | 2023-03-10T10:28:00 | -32.6665 | 6.9345 | 1203.0 | 1215.0 | 3.3983 | 34.4795 |
| M188_1-1 | 2023-03-10T10:28:00 | -32.6665 | 6.9345 | 1203.9 | 1216.0 | 3.3972 | 34.4800 |
| M188_1-1 | 2023-03-10T10:28:00 | -32.6665 | 6.9345 | 1204.9 | 1217.0 | 3.3947 | 34.4812 |
| M188_1-1 | 2023-03-10T10:28:00 | -32.6665 | 6.9345 | 1205.9 | 1218.0 | 3.3928 | 34.4829 |
| M188_1-1 | 2023-03-10T10:28:00 | -32.6665 | 6.9345 | 1206.9 | 1219.0 | 3.3919 | 34.4843 |
| M188_1-1 | 2023-03-10T10:28:00 | -32.6665 | 6.9345 | 1207.9 | 1220.0 | 3.3888 | 34.4847 |
| M188_1-1 | 2023-03-10T10:28:00 | -32.6665 | 6.9345 | 1208.9 | 1221.0 | 3.3833 | 34.4857 |
| M188_1-1 | 2023-03-10T10:28:00 | -32.6665 | 6.9345 | 1209.9 | 1222.0 | 3.3783 | 34.4870 |
| M188_1-1 | 2023-03-10T10:28:00 | -32.6665 | 6.9345 | 1210.9 | 1223.0 | 3.3765 | 34.4869 |
| M188_1-1 | 2023-03-10T10:28:00 | -32.6665 | 6.9345 | 1211.8 | 1224.0 | 3.3771 | 34.4865 |
| M188_1-1 | 2023-03-10T10:28:00 | -32.6665 | 6.9345 | 1212.8 | 1225.0 | 3.3731 | 34.4864 |
| M188_1-1 | 2023-03-10T10:28:00 | -32.6665 | 6.9345 | 1213.8 | 1226.0 | 3.3629 | 34.4880 |
| M188_1-1 | 2023-03-10T10:28:00 | -32.6665 | 6.9345 | 1214.8 | 1227.0 | 3.3619 | 34.4883 |
| M188_1-1 | 2023-03-10T10:28:00 | -32.6665 | 6.9345 | 1215.8 | 1228.0 | 3.3615 | 34.4885 |
| M188_1-1 | 2023-03-10T10:28:00 | -32.6665 | 6.9345 | 1216.8 | 1229.0 | 3.3606 | 34.4887 |
| M188_1-1 | 2023-03-10T10:28:00 | -32.6665 | 6.9345 | 1217.8 | 1230.0 | 3.3592 | 34.4899 |
| M188_1-1 | 2023-03-10T10:28:00 | -32.6665 | 6.9345 | 1218.7 | 1231.0 | 3.3566 | 34.4912 |
| M188_1-1 | 2023-03-10T10:28:00 | -32.6665 | 6.9345 | 1219.7 | 1232.0 | 3.3532 | 34.4924 |
| M188_1-1 | 2023-03-10T10:28:00 | -32.6665 | 6.9345 | 1220.7 | 1233.0 | 3.3526 | 34.4932 |
| M188_1-1 | 2023-03-10T10:28:00 | -32.6665 | 6.9345 | 1221.7 | 1234.0 | 3.3525 | 34.4931 |
| M188_1-1 | 2023-03-10T10:28:00 | -32.6665 | 6.9345 | 1222.7 | 1235.0 | 3.3466 | 34.4940 |
| M188_1-1 | 2023-03-10T10:28:00 | -32.6665 | 6.9345 | 1223.7 | 1236.0 | 3.3399 | 34.4942 |
| M188_1-1 | 2023-03-10T10:28:00 | -32.6665 | 6.9345 | 1224.7 | 1237.0 | 3.3348 | 34.4940 |
| M188_1-1 | 2023-03-10T10:28:00 | -32.6665 | 6.9345 | 1225.7 | 1238.0 | 3.3222 | 34.4941 |
| M188_1-1 | 2023-03-10T10:28:00 | -32.6665 | 6.9345 | 1226.6 | 1239.0 | 3.3190 | 34.4946 |
| M188_1-1 | 2023-03-10T10:28:00 | -32.6665 | 6.9345 | 1227.6 | 1240.0 | 3.3178 | 34.4948 |
| M188_1-1 | 2023-03-10T10:28:00 | -32.6665 | 6.9345 | 1228.6 | 1241.0 | 3.3154 | 34.4948 |
| M188_1-1 | 2023-03-10T10:28:00 | -32.6665 | 6.9345 | 1229.6 | 1242.0 | 3.3125 | 34.4952 |
| M188_1-1 | 2023-03-10T10:28:00 | -32.6665 | 6.9345 | 1230.6 | 1243.0 | 3.3112 | 34.4958 |
| M188_1-1 | 2023-03-10T10:28:00 | -32.6665 | 6.9345 | 1231.6 | 1244.0 | 3.3110 | 34.4959 |
| M188_1-1 | 2023-03-10T10:28:00 | -32.6665 | 6.9345 | 1232.6 | 1245.0 | 3.3118 | 34.4963 |
| M188_1-1 | 2023-03-10T10:28:00 | -32.6665 | 6.9345 | 1233.6 | 1246.0 | 3.3097 | 34.4973 |
| M188_1-1 | 2023-03-10T10:28:00 | -32.6665 | 6.9345 | 1234.5 | 1247.0 | 3.3075 | 34.4980 |
| M188_1-1 | 2023-03-10T10:28:00 | -32.6665 | 6.9345 | 1235.5 | 1248.0 | 3.3008 | 34.4980 |
| M188_1-1 | 2023-03-10T10:28:00 | -32.6665 | 6.9345 | 1236.5 | 1249.0 | 3.2981 | 34.4986 |
| M188_1-1 | 2023-03-10T10:28:00 | -32.6665 | 6.9345 | 1237.5 | 1250.0 | 3.2976 | 34.4996 |
| M188_1-1 | 2023-03-10T10:28:00 | -32.6665 | 6.9345 | 1238.5 | 1251.0 | 3.2990 | 34.5012 |
| M188_1-1 | 2023-03-10T10:28:00 | -32.6665 | 6.9345 | 1239.5 | 1252.0 | 3.2975 | 34.5025 |
| M188_1-1 | 2023-03-10T10:28:00 | -32.6665 | 6.9345 | 1240.5 | 1253.0 | 3.2938 | 34.5036 |
| M188_1-1 | 2023-03-10T10:28:00 | -32.6665 | 6.9345 | 1241.5 | 1254.0 | 3.2900 | 34.5044 |
| M188_1-1 | 2023-03-10T10:28:00 | -32.6665 | 6.9345 | 1242.4 | 1255.0 | 3.2893 | 34.5059 |
| M188_1-1 | 2023-03-10T10:28:00 | -32.6665 | 6.9345 | 1243.4 | 1256.0 | 3.2878 | 34.5064 |
| M188_1-1 | 2023-03-10T10:28:00 | -32.6665 | 6.9345 | 1244.4 | 1257.0 | 3.2853 | 34.5073 |
| M188_1-1 | 2023-03-10T10:28:00 | -32.6665 | 6.9345 | 1245.4 | 1258.0 | 3.2839 | 34.5074 |
| M188_1-1 | 2023-03-10T10:28:00 | -32.6665 | 6.9345 | 1246.4 | 1259.0 | 3.2817 | 34.5077 |
| M188_1-1 | 2023-03-10T10:28:00 | -32.6665 | 6.9345 | 1247.4 | 1260.0 | 3.2728 | 34.5101 |
| M188_1-1 | 2023-03-10T10:28:00 | -32.6665 | 6.9345 | 1248.4 | 1261.0 | 3.2694 | 34.5113 |
| M188_1-1 | 2023-03-10T10:28:00 | -32.6665 | 6.9345 | 1249.3 | 1262.0 | 3.2697 | 34.5114 |
| M188_1-1 | 2023-03-10T10:28:00 | -32.6665 | 6.9345 | 1250.3 | 1263.0 | 3.2689 | 34.5119 |
| M188_1-1 | 2023-03-10T10:28:00 | -32.6665 | 6.9345 | 1251.3 | 1264.0 | 3.2682 | 34.5122 |
| M188_1-1 | 2023-03-10T10:28:00 | -32.6665 | 6.9345 | 1252.3 | 1265.0 | 3.2677 | 34.5124 |
| M188_1-1 | 2023-03-10T10:28:00 | -32.6665 | 6.9345 | 1253.3 | 1266.0 | 3.2664 | 34.5127 |
| M188_1-1 | 2023-03-10T10:28:00 | -32.6665 | 6.9345 | 1254.3 | 1267.0 | 3.2639 | 34.5130 |
| M188_1-1 | 2023-03-10T10:28:00 | -32.6665 | 6.9345 | 1255.3 | 1268.0 | 3.2632 | 34.5137 |
| M188_1-1 | 2023-03-10T10:28:00 | -32.6665 | 6.9345 | 1256.3 | 1269.0 | 3.2632 | 34.5145 |
| M188_1-1 | 2023-03-10T10:28:00 | -32.6665 | 6.9345 | 1257.2 | 1270.0 | 3.2591 | 34.5148 |
| M188_1-1 | 2023-03-10T10:28:00 | -32.6665 | 6.9345 | 1258.2 | 1271.0 | 3.2554 | 34.5151 |
| M188_1-1 | 2023-03-10T10:28:00 | -32.6665 | 6.9345 | 1259.2 | 1272.0 | 3.2547 | 34.5155 |
| M188_1-1 | 2023-03-10T10:28:00 | -32.6665 | 6.9345 | 1260.2 | 1273.0 | 3.2541 | 34.5155 |
| M188_1-1 | 2023-03-10T10:28:00 | -32.6665 | 6.9345 | 1261.2 | 1274.0 | 3.2518 | 34.5157 |
| M188_1-1 | 2023-03-10T10:28:00 | -32.6665 | 6.9345 | 1262.2 | 1275.0 | 3.2481 | 34.5156 |
| M188_1-1 | 2023-03-10T10:28:00 | -32.6665 | 6.9345 | 1263.2 | 1276.0 | 3.2524 | 34.5178 |
| M188_1-1 | 2023-03-10T10:28:00 | -32.6665 | 6.9345 | 1264.2 | 1277.0 | 3.2540 | 34.5189 |
| M188_1-1 | 2023-03-10T10:28:00 | -32.6665 | 6.9345 | 1265.1 | 1278.0 | 3.2513 | 34.5194 |
| M188_1-1 | 2023-03-10T10:28:00 | -32.6665 | 6.9345 | 1266.1 | 1279.0 | 3.2479 | 34.5195 |
| M188_1-1 | 2023-03-10T10:28:00 | -32.6665 | 6.9345 | 1267.1 | 1280.0 | 3.2465 | 34.5195 |
| M188_1-1 | 2023-03-10T10:28:00 | -32.6665 | 6.9345 | 1268.1 | 1281.0 | 3.2457 | 34.5198 |
| M188_1-1 | 2023-03-10T10:28:00 | -32.6665 | 6.9345 | 1269.1 | 1282.0 | 3.2428 | 34.5211 |
| M188_1-1 | 2023-03-10T10:28:00 | -32.6665 | 6.9345 | 1270.1 | 1283.0 | 3.2487 | 34.5233 |
| M188_1-1 | 2023-03-10T10:28:00 | -32.6665 | 6.9345 | 1271.1 | 1284.0 | 3.2510 | 34.5243 |
| M188_1-1 | 2023-03-10T10:28:00 | -32.6665 | 6.9345 | 1272.0 | 1285.0 | 3.2545 | 34.5249 |
| M188_1-1 | 2023-03-10T10:28:00 | -32.6665 | 6.9345 | 1273.0 | 1286.0 | 3.2597 | 34.5262 |
| M188_1-1 | 2023-03-10T10:28:00 | -32.6665 | 6.9345 | 1274.0 | 1287.0 | 3.2597 | 34.5274 |
| M188_1-1 | 2023-03-10T10:28:00 | -32.6665 | 6.9345 | 1275.0 | 1288.0 | 3.2606 | 34.5288 |
| M188_1-1 | 2023-03-10T10:28:00 | -32.6665 | 6.9345 | 1276.0 | 1289.0 | 3.2598 | 34.5303 |
| M188_1-1 | 2023-03-10T10:28:00 | -32.6665 | 6.9345 | 1277.0 | 1290.0 | 3.2596 | 34.5304 |
| M188_1-1 | 2023-03-10T10:28:00 | -32.6665 | 6.9345 | 1278.0 | 1291.0 | 3.2594 | 34.5308 |
| M188_1-1 | 2023-03-10T10:28:00 | -32.6665 | 6.9345 | 1279.0 | 1292.0 | 3.2593 | 34.5308 |
| M188_1-1 | 2023-03-10T10:28:00 | -32.6665 | 6.9345 | 1279.9 | 1293.0 | 3.2564 | 34.5327 |
| M188_1-1 | 2023-03-10T10:28:00 | -32.6665 | 6.9345 | 1280.9 | 1294.0 | 3.2553 | 34.5336 |
| M188_1-1 | 2023-03-10T10:28:00 | -32.6665 | 6.9345 | 1281.9 | 1295.0 | 3.2549 | 34.5339 |
| M188_1-1 | 2023-03-10T10:28:00 | -32.6665 | 6.9345 | 1282.9 | 1296.0 | 3.2543 | 34.5340 |
| M188_1-1 | 2023-03-10T10:28:00 | -32.6665 | 6.9345 | 1283.9 | 1297.0 | 3.2530 | 34.5344 |
| M188_1-1 | 2023-03-10T10:28:00 | -32.6665 | 6.9345 | 1284.9 | 1298.0 | 3.2537 | 34.5338 |
| M188_1-1 | 2023-03-10T10:28:00 | -32.6665 | 6.9345 | 1285.9 | 1299.0 | 3.2499 | 34.5348 |
| M188_1-1 | 2023-03-10T10:28:00 | -32.6665 | 6.9345 | 1286.9 | 1300.0 | 3.2448 | 34.5352 |
| M188_1-1 | 2023-03-10T10:28:00 | -32.6665 | 6.9345 | 1287.8 | 1301.0 | 3.2416 | 34.5363 |
| M188_1-1 | 2023-03-10T10:28:00 | -32.6665 | 6.9345 | 1288.8 | 1302.0 | 3.2403 | 34.5370 |
| M188_1-1 | 2023-03-10T10:28:00 | -32.6665 | 6.9345 | 1289.8 | 1303.0 | 3.2390 | 34.5379 |
| M188_1-1 | 2023-03-10T10:28:00 | -32.6665 | 6.9345 | 1290.8 | 1304.0 | 3.2377 | 34.5383 |
| M188_1-1 | 2023-03-10T10:28:00 | -32.6665 | 6.9345 | 1291.8 | 1305.0 | 3.2353 | 34.5391 |
| M188_1-1 | 2023-03-10T10:28:00 | -32.6665 | 6.9345 | 1292.8 | 1306.0 | 3.2314 | 34.5399 |
| M188_1-1 | 2023-03-10T10:28:00 | -32.6665 | 6.9345 | 1293.8 | 1307.0 | 3.2299 | 34.5400 |
| M188_1-1 | 2023-03-10T10:28:00 | -32.6665 | 6.9345 | 1294.7 | 1308.0 | 3.2262 | 34.5417 |
| M188_1-1 | 2023-03-10T10:28:00 | -32.6665 | 6.9345 | 1295.7 | 1309.0 | 3.2217 | 34.5431 |
| M188_1-1 | 2023-03-10T10:28:00 | -32.6665 | 6.9345 | 1296.7 | 1310.0 | 3.2202 | 34.5441 |
| M188_1-1 | 2023-03-10T10:28:00 | -32.6665 | 6.9345 | 1297.7 | 1311.0 | 3.2163 | 34.5454 |
| M188_1-1 | 2023-03-10T10:28:00 | -32.6665 | 6.9345 | 1298.7 | 1312.0 | 3.2160 | 34.5456 |
| M188_1-1 | 2023-03-10T10:28:00 | -32.6665 | 6.9345 | 1299.7 | 1313.0 | 3.2158 | 34.5456 |
| M188_1-1 | 2023-03-10T10:28:00 | -32.6665 | 6.9345 | 1300.7 | 1314.0 | 3.2156 | 34.5458 |
| M188_1-1 | 2023-03-10T10:28:00 | -32.6665 | 6.9345 | 1301.7 | 1315.0 | 3.2156 | 34.5456 |
| M188_1-1 | 2023-03-10T10:28:00 | -32.6665 | 6.9345 | 1302.6 | 1316.0 | 3.2156 | 34.5455 |
| M188_1-1 | 2023-03-10T10:28:00 | -32.6665 | 6.9345 | 1303.6 | 1317.0 | 3.2157 | 34.5455 |
| M188_1-1 | 2023-03-10T10:28:00 | -32.6665 | 6.9345 | 1304.6 | 1318.0 | 3.2155 | 34.5456 |
| M188_1-1 | 2023-03-10T10:28:00 | -32.6665 | 6.9345 | 1305.6 | 1319.0 | 3.2151 | 34.5462 |
| M188_1-1 | 2023-03-10T10:28:00 | -32.6665 | 6.9345 | 1306.6 | 1320.0 | 3.2144 | 34.5462 |
| M188_1-1 | 2023-03-10T10:28:00 | -32.6665 | 6.9345 | 1307.6 | 1321.0 | 3.2132 | 34.5472 |
| M188_1-1 | 2023-03-10T10:28:00 | -32.6665 | 6.9345 | 1308.6 | 1322.0 | 3.2113 | 34.5480 |
| M188_1-1 | 2023-03-10T10:28:00 | -32.6665 | 6.9345 | 1309.5 | 1323.0 | 3.2110 | 34.5480 |
| M188_1-1 | 2023-03-10T10:28:00 | -32.6665 | 6.9345 | 1310.5 | 1324.0 | 3.2107 | 34.5484 |
| M188_1-1 | 2023-03-10T10:28:00 | -32.6665 | 6.9345 | 1311.5 | 1325.0 | 3.2103 | 34.5485 |
| M188_1-1 | 2023-03-10T10:28:00 | -32.6665 | 6.9345 | 1312.5 | 1326.0 | 3.2090 | 34.5493 |
| M188_1-1 | 2023-03-10T10:28:00 | -32.6665 | 6.9345 | 1313.5 | 1327.0 | 3.2066 | 34.5508 |
| M188_1-1 | 2023-03-10T10:28:00 | -32.6665 | 6.9345 | 1314.5 | 1328.0 | 3.2073 | 34.5512 |
| M188_1-1 | 2023-03-10T10:28:00 | -32.6665 | 6.9345 | 1315.5 | 1329.0 | 3.2049 | 34.5518 |
| M188_1-1 | 2023-03-10T10:28:00 | -32.6665 | 6.9345 | 1316.5 | 1330.0 | 3.2057 | 34.5527 |
| M188_1-1 | 2023-03-10T10:28:00 | -32.6665 | 6.9345 | 1317.4 | 1331.0 | 3.2135 | 34.5547 |
| M188_1-1 | 2023-03-10T10:28:00 | -32.6665 | 6.9345 | 1318.4 | 1332.0 | 3.2175 | 34.5571 |
| M188_1-1 | 2023-03-10T10:28:00 | -32.6665 | 6.9345 | 1319.4 | 1333.0 | 3.2168 | 34.5570 |
| M188_1-1 | 2023-03-10T10:28:00 | -32.6665 | 6.9345 | 1320.4 | 1334.0 | 3.2153 | 34.5580 |
| M188_1-1 | 2023-03-10T10:28:00 | -32.6665 | 6.9345 | 1321.4 | 1335.0 | 3.2147 | 34.5583 |
| M188_1-1 | 2023-03-10T10:28:00 | -32.6665 | 6.9345 | 1322.4 | 1336.0 | 3.2156 | 34.5598 |
| M188_1-1 | 2023-03-10T10:28:00 | -32.6665 | 6.9345 | 1323.4 | 1337.0 | 3.2156 | 34.5609 |
| M188_1-1 | 2023-03-10T10:28:00 | -32.6665 | 6.9345 | 1324.3 | 1338.0 | 3.2161 | 34.5614 |
| M188_1-1 | 2023-03-10T10:28:00 | -32.6665 | 6.9345 | 1325.3 | 1339.0 | 3.2161 | 34.5622 |
| M188_1-1 | 2023-03-10T10:28:00 | -32.6665 | 6.9345 | 1326.3 | 1340.0 | 3.2158 | 34.5628 |
| M188_1-1 | 2023-03-10T10:28:00 | -32.6665 | 6.9345 | 1327.3 | 1341.0 | 3.2151 | 34.5638 |
| M188_1-1 | 2023-03-10T10:28:00 | -32.6665 | 6.9345 | 1328.3 | 1342.0 | 3.2179 | 34.5651 |
| M188_1-1 | 2023-03-10T10:28:00 | -32.6665 | 6.9345 | 1329.3 | 1343.0 | 3.2167 | 34.5663 |
| M188_1-1 | 2023-03-10T10:28:00 | -32.6665 | 6.9345 | 1330.3 | 1344.0 | 3.2150 | 34.5671 |
| M188_1-1 | 2023-03-10T10:28:00 | -32.6665 | 6.9345 | 1331.3 | 1345.0 | 3.2146 | 34.5681 |
| M188_1-1 | 2023-03-10T10:28:00 | -32.6665 | 6.9345 | 1332.2 | 1346.0 | 3.2130 | 34.5687 |
| M188_1-1 | 2023-03-10T10:28:00 | -32.6665 | 6.9345 | 1333.2 | 1347.0 | 3.2107 | 34.5695 |
| M188_1-1 | 2023-03-10T10:28:00 | -32.6665 | 6.9345 | 1334.2 | 1348.0 | 3.2075 | 34.5703 |
| M188_1-1 | 2023-03-10T10:28:00 | -32.6665 | 6.9345 | 1335.2 | 1349.0 | 3.2005 | 34.5713 |
| M188_1-1 | 2023-03-10T10:28:00 | -32.6665 | 6.9345 | 1336.2 | 1350.0 | 3.1999 | 34.5714 |
| M188_1-1 | 2023-03-10T10:28:00 | -32.6665 | 6.9345 | 1337.2 | 1351.0 | 3.1995 | 34.5716 |
| M188_1-1 | 2023-03-10T10:28:00 | -32.6665 | 6.9345 | 1338.2 | 1352.0 | 3.1989 | 34.5717 |
| M188_1-1 | 2023-03-10T10:28:00 | -32.6665 | 6.9345 | 1339.1 | 1353.0 | 3.1987 | 34.5721 |
| M188_1-1 | 2023-03-10T10:28:00 | -32.6665 | 6.9345 | 1340.1 | 1354.0 | 3.2017 | 34.5729 |
| M188_1-1 | 2023-03-10T10:28:00 | -32.6665 | 6.9345 | 1341.1 | 1355.0 | 3.2068 | 34.5737 |
| M188_1-1 | 2023-03-10T10:28:00 | -32.6665 | 6.9345 | 1342.1 | 1356.0 | 3.2078 | 34.5749 |
| M188_1-1 | 2023-03-10T10:28:00 | -32.6665 | 6.9345 | 1343.1 | 1357.0 | 3.2050 | 34.5749 |
| M188_1-1 | 2023-03-10T10:28:00 | -32.6665 | 6.9345 | 1344.1 | 1358.0 | 3.2063 | 34.5757 |
| M188_1-1 | 2023-03-10T10:28:00 | -32.6665 | 6.9345 | 1345.1 | 1359.0 | 3.2047 | 34.5759 |
| M188_1-1 | 2023-03-10T10:28:00 | -32.6665 | 6.9345 | 1346.1 | 1360.0 | 3.2033 | 34.5764 |
| M188_1-1 | 2023-03-10T10:28:00 | -32.6665 | 6.9345 | 1347.0 | 1361.0 | 3.2077 | 34.5781 |
| M188_1-1 | 2023-03-10T10:28:00 | -32.6665 | 6.9345 | 1348.0 | 1362.0 | 3.2061 | 34.5783 |
| M188_1-1 | 2023-03-10T10:28:00 | -32.6665 | 6.9345 | 1349.0 | 1363.0 | 3.2053 | 34.5787 |
| M188_1-1 | 2023-03-10T10:28:00 | -32.6665 | 6.9345 | 1350.0 | 1364.0 | 3.2066 | 34.5797 |
| M188_1-1 | 2023-03-10T10:28:00 | -32.6665 | 6.9345 | 1351.0 | 1365.0 | 3.2086 | 34.5809 |
| M188_1-1 | 2023-03-10T10:28:00 | -32.6665 | 6.9345 | 1352.0 | 1366.0 | 3.2082 | 34.5823 |
| M188_1-1 | 2023-03-10T10:28:00 | -32.6665 | 6.9345 | 1353.0 | 1367.0 | 3.2112 | 34.5843 |
| M188_1-1 | 2023-03-10T10:28:00 | -32.6665 | 6.9345 | 1353.9 | 1368.0 | 3.2099 | 34.5860 |
| M188_1-1 | 2023-03-10T10:28:00 | -32.6665 | 6.9345 | 1354.9 | 1369.0 | 3.2006 | 34.5852 |
| M188_1-1 | 2023-03-10T10:28:00 | -32.6665 | 6.9345 | 1355.9 | 1370.0 | 3.2021 | 34.5845 |
| M188_1-1 | 2023-03-10T10:28:00 | -32.6665 | 6.9345 | 1356.9 | 1371.0 | 3.1924 | 34.5847 |
| M188_1-1 | 2023-03-10T10:28:00 | -32.6665 | 6.9345 | 1357.9 | 1372.0 | 3.1894 | 34.5847 |
| M188_1-1 | 2023-03-10T10:28:00 | -32.6665 | 6.9345 | 1358.9 | 1373.0 | 3.1860 | 34.5843 |
| M188_1-1 | 2023-03-10T10:28:00 | -32.6665 | 6.9345 | 1359.9 | 1374.0 | 3.1718 | 34.5835 |
| M188_1-1 | 2023-03-10T10:28:00 | -32.6665 | 6.9345 | 1360.9 | 1375.0 | 3.1564 | 34.5827 |
| M188_1-1 | 2023-03-10T10:28:00 | -32.6665 | 6.9345 | 1361.8 | 1376.0 | 3.1434 | 34.5817 |
| M188_1-1 | 2023-03-10T10:28:00 | -32.6665 | 6.9345 | 1362.8 | 1377.0 | 3.1324 | 34.5807 |
| M188_1-1 | 2023-03-10T10:28:00 | -32.6665 | 6.9345 | 1363.8 | 1378.0 | 3.1246 | 34.5802 |
| M188_1-1 | 2023-03-10T10:28:00 | -32.6665 | 6.9345 | 1364.8 | 1379.0 | 3.1299 | 34.5799 |
| M188_1-1 | 2023-03-10T10:28:00 | -32.6665 | 6.9345 | 1365.8 | 1380.0 | 3.1256 | 34.5795 |
| M188_1-1 | 2023-03-10T10:28:00 | -32.6665 | 6.9345 | 1366.8 | 1381.0 | 3.1201 | 34.5803 |
| M188_1-1 | 2023-03-10T10:28:00 | -32.6665 | 6.9345 | 1367.8 | 1382.0 | 3.1125 | 34.5813 |
| M188_1-1 | 2023-03-10T10:28:00 | -32.6665 | 6.9345 | 1368.7 | 1383.0 | 3.1099 | 34.5815 |
| M188_1-1 | 2023-03-10T10:28:00 | -32.6665 | 6.9345 | 1369.7 | 1384.0 | 3.1102 | 34.5816 |
| M188_1-1 | 2023-03-10T10:28:00 | -32.6665 | 6.9345 | 1370.7 | 1385.0 | 3.1162 | 34.5829 |
| M188_1-1 | 2023-03-10T10:28:00 | -32.6665 | 6.9345 | 1371.7 | 1386.0 | 3.1300 | 34.5851 |
| M188_1-1 | 2023-03-10T10:28:00 | -32.6665 | 6.9345 | 1372.7 | 1387.0 | 3.1373 | 34.5868 |
| M188_1-1 | 2023-03-10T10:28:00 | -32.6665 | 6.9345 | 1373.7 | 1388.0 | 3.1429 | 34.5880 |
| M188_1-1 | 2023-03-10T10:28:00 | -32.6665 | 6.9345 | 1374.7 | 1389.0 | 3.1445 | 34.5884 |
| M188_1-1 | 2023-03-10T10:28:00 | -32.6665 | 6.9345 | 1375.6 | 1390.0 | 3.1437 | 34.5883 |
| M188_1-1 | 2023-03-10T10:28:00 | -32.6665 | 6.9345 | 1376.6 | 1391.0 | 3.1432 | 34.5883 |
| M188_1-1 | 2023-03-10T10:28:00 | -32.6665 | 6.9345 | 1377.6 | 1392.0 | 3.1428 | 34.5883 |
| M188_1-1 | 2023-03-10T10:28:00 | -32.6665 | 6.9345 | 1378.6 | 1393.0 | 3.1332 | 34.5870 |
| M188_1-1 | 2023-03-10T10:28:00 | -32.6665 | 6.9345 | 1379.6 | 1394.0 | 3.1148 | 34.5871 |
| M188_1-1 | 2023-03-10T10:28:00 | -32.6665 | 6.9345 | 1380.6 | 1395.0 | 3.1391 | 34.5927 |
| M188_1-1 | 2023-03-10T10:28:00 | -32.6665 | 6.9345 | 1381.6 | 1396.0 | 3.1507 | 34.5957 |
| M188_1-1 | 2023-03-10T10:28:00 | -32.6665 | 6.9345 | 1382.6 | 1397.0 | 3.1532 | 34.5960 |
| M188_1-1 | 2023-03-10T10:28:00 | -32.6665 | 6.9345 | 1383.5 | 1398.0 | 3.1530 | 34.5962 |
| M188_1-1 | 2023-03-10T10:28:00 | -32.6665 | 6.9345 | 1384.5 | 1399.0 | 3.1575 | 34.5972 |
| M188_1-1 | 2023-03-10T10:28:00 | -32.6665 | 6.9345 | 1385.5 | 1400.0 | 3.1688 | 34.5995 |
| M188_1-1 | 2023-03-10T10:28:00 | -32.6665 | 6.9345 | 1386.5 | 1401.0 | 3.1719 | 34.6007 |
| M188_1-1 | 2023-03-10T10:28:00 | -32.6665 | 6.9345 | 1387.5 | 1402.0 | 3.1740 | 34.6012 |
| M188_1-1 | 2023-03-10T10:28:00 | -32.6665 | 6.9345 | 1388.5 | 1403.0 | 3.1717 | 34.6010 |
| M188_1-1 | 2023-03-10T10:28:00 | -32.6665 | 6.9345 | 1389.5 | 1404.0 | 3.1586 | 34.6005 |
| M188_1-1 | 2023-03-10T10:28:00 | -32.6665 | 6.9345 | 1390.4 | 1405.0 | 3.1511 | 34.6003 |
| M188_1-1 | 2023-03-10T10:28:00 | -32.6665 | 6.9345 | 1391.4 | 1406.0 | 3.1476 | 34.6002 |
| M188_1-1 | 2023-03-10T10:28:00 | -32.6665 | 6.9345 | 1392.4 | 1407.0 | 3.1430 | 34.5995 |
| M188_1-1 | 2023-03-10T10:28:00 | -32.6665 | 6.9345 | 1393.4 | 1408.0 | 3.1440 | 34.5993 |
| M188_1-1 | 2023-03-10T10:28:00 | -32.6665 | 6.9345 | 1394.4 | 1409.0 | 3.1354 | 34.5990 |
| M188_1-1 | 2023-03-10T10:28:00 | -32.6665 | 6.9345 | 1395.4 | 1410.0 | 3.1354 | 34.5997 |
| M188_1-1 | 2023-03-10T10:28:00 | -32.6665 | 6.9345 | 1396.4 | 1411.0 | 3.1396 | 34.6013 |
| M188_1-1 | 2023-03-10T10:28:00 | -32.6665 | 6.9345 | 1397.3 | 1412.0 | 3.1429 | 34.6019 |
| M188_1-1 | 2023-03-10T10:28:00 | -32.6665 | 6.9345 | 1398.3 | 1413.0 | 3.1455 | 34.6024 |
| M188_1-1 | 2023-03-10T10:28:00 | -32.6665 | 6.9345 | 1399.3 | 1414.0 | 3.1480 | 34.6032 |
| M188_1-1 | 2023-03-10T10:28:00 | -32.6665 | 6.9345 | 1400.3 | 1415.0 | 3.1511 | 34.6042 |
| M188_1-1 | 2023-03-10T10:28:00 | -32.6665 | 6.9345 | 1401.3 | 1416.0 | 3.1511 | 34.6049 |
| M188_1-1 | 2023-03-10T10:28:00 | -32.6665 | 6.9345 | 1402.3 | 1417.0 | 3.1473 | 34.6043 |
| M188_1-1 | 2023-03-10T10:28:00 | -32.6665 | 6.9345 | 1403.3 | 1418.0 | 3.1494 | 34.6062 |
| M188_1-1 | 2023-03-10T10:28:00 | -32.6665 | 6.9345 | 1404.3 | 1419.0 | 3.1577 | 34.6092 |
| M188_1-1 | 2023-03-10T10:28:00 | -32.6665 | 6.9345 | 1405.2 | 1420.0 | 3.1350 | 34.6078 |
| M188_1-1 | 2023-03-10T10:28:00 | -32.6665 | 6.9345 | 1406.2 | 1421.0 | 3.1365 | 34.6093 |
| M188_1-1 | 2023-03-10T10:28:00 | -32.6665 | 6.9345 | 1407.2 | 1422.0 | 3.1510 | 34.6122 |
| M188_1-1 | 2023-03-10T10:28:00 | -32.6665 | 6.9345 | 1408.2 | 1423.0 | 3.1584 | 34.6135 |
| M188_1-1 | 2023-03-10T10:28:00 | -32.6665 | 6.9345 | 1409.2 | 1424.0 | 3.1498 | 34.6132 |
| M188_1-1 | 2023-03-10T10:28:00 | -32.6665 | 6.9345 | 1410.2 | 1425.0 | 3.1361 | 34.6119 |
| M188_1-1 | 2023-03-10T10:28:00 | -32.6665 | 6.9345 | 1411.2 | 1426.0 | 3.1152 | 34.6095 |
| M188_1-1 | 2023-03-10T10:28:00 | -32.6665 | 6.9345 | 1412.1 | 1427.0 | 3.1102 | 34.6088 |
| M188_1-1 | 2023-03-10T10:28:00 | -32.6665 | 6.9345 | 1413.1 | 1428.0 | 3.1092 | 34.6086 |
| M188_1-1 | 2023-03-10T10:28:00 | -32.6665 | 6.9345 | 1414.1 | 1429.0 | 3.1084 | 34.6083 |
| M188_1-1 | 2023-03-10T10:28:00 | -32.6665 | 6.9345 | 1415.1 | 1430.0 | 3.1208 | 34.6111 |
| M188_1-1 | 2023-03-10T10:28:00 | -32.6665 | 6.9345 | 1416.1 | 1431.0 | 3.1664 | 34.6184 |
| M188_1-1 | 2023-03-10T10:28:00 | -32.6665 | 6.9345 | 1417.1 | 1432.0 | 3.1902 | 34.6242 |
| M188_1-1 | 2023-03-10T10:28:00 | -32.6665 | 6.9345 | 1418.1 | 1433.0 | 3.2053 | 34.6293 |
| M188_1-1 | 2023-03-10T10:28:00 | -32.6665 | 6.9345 | 1419.0 | 1434.0 | 3.2095 | 34.6314 |
| M188_1-1 | 2023-03-10T10:28:00 | -32.6665 | 6.9345 | 1420.0 | 1435.0 | 3.2081 | 34.6316 |
| M188_1-1 | 2023-03-10T10:28:00 | -32.6665 | 6.9345 | 1421.0 | 1436.0 | 3.2071 | 34.6318 |
| M188_1-1 | 2023-03-10T10:28:00 | -32.6665 | 6.9345 | 1422.0 | 1437.0 | 3.2048 | 34.6319 |
| M188_1-1 | 2023-03-10T10:28:00 | -32.6665 | 6.9345 | 1423.0 | 1438.0 | 3.2030 | 34.6321 |
| M188_1-1 | 2023-03-10T10:28:00 | -32.6665 | 6.9345 | 1424.0 | 1439.0 | 3.2015 | 34.6329 |
| M188_1-1 | 2023-03-10T10:28:00 | -32.6665 | 6.9345 | 1425.0 | 1440.0 | 3.1991 | 34.6334 |
| M188_1-1 | 2023-03-10T10:28:00 | -32.6665 | 6.9345 | 1425.9 | 1441.0 | 3.1963 | 34.6333 |
| M188_1-1 | 2023-03-10T10:28:00 | -32.6665 | 6.9345 | 1426.9 | 1442.0 | 3.1940 | 34.6351 |
| M188_1-1 | 2023-03-10T10:28:00 | -32.6665 | 6.9345 | 1427.9 | 1443.0 | 3.1998 | 34.6370 |
| M188_1-1 | 2023-03-10T10:28:00 | -32.6665 | 6.9345 | 1428.9 | 1444.0 | 3.2041 | 34.6383 |
| M188_1-1 | 2023-03-10T10:28:00 | -32.6665 | 6.9345 | 1429.9 | 1445.0 | 3.2101 | 34.6399 |
| M188_1-1 | 2023-03-10T10:28:00 | -32.6665 | 6.9345 | 1430.9 | 1446.0 | 3.2083 | 34.6401 |
| M188_1-1 | 2023-03-10T10:28:00 | -32.6665 | 6.9345 | 1431.9 | 1447.0 | 3.2074 | 34.6399 |
| M188_1-1 | 2023-03-10T10:28:00 | -32.6665 | 6.9345 | 1432.9 | 1448.0 | 3.2071 | 34.6403 |
| M188_1-1 | 2023-03-10T10:28:00 | -32.6665 | 6.9345 | 1433.8 | 1449.0 | 3.1999 | 34.6399 |
| M188_1-1 | 2023-03-10T10:28:00 | -32.6665 | 6.9345 | 1434.8 | 1450.0 | 3.2032 | 34.6412 |
| M188_1-1 | 2023-03-10T10:28:00 | -32.6665 | 6.9345 | 1435.8 | 1451.0 | 3.2038 | 34.6426 |
| M188_1-1 | 2023-03-10T10:28:00 | -32.6665 | 6.9345 | 1436.8 | 1452.0 | 3.2042 | 34.6436 |
| M188_1-1 | 2023-03-10T10:28:00 | -32.6665 | 6.9345 | 1437.8 | 1453.0 | 3.2055 | 34.6450 |
| M188_1-1 | 2023-03-10T10:28:00 | -32.6665 | 6.9345 | 1438.8 | 1454.0 | 3.2010 | 34.6462 |
| M188_1-1 | 2023-03-10T10:28:00 | -32.6665 | 6.9345 | 1439.8 | 1455.0 | 3.1963 | 34.6466 |
| M188_1-1 | 2023-03-10T10:28:00 | -32.6665 | 6.9345 | 1440.7 | 1456.0 | 3.1966 | 34.6469 |
| M188_1-1 | 2023-03-10T10:28:00 | -32.6665 | 6.9345 | 1441.7 | 1457.0 | 3.1968 | 34.6469 |
| M188_1-1 | 2023-03-10T10:28:00 | -32.6665 | 6.9345 | 1442.7 | 1458.0 | 3.1992 | 34.6482 |
| M188_1-1 | 2023-03-10T10:28:00 | -32.6665 | 6.9345 | 1443.7 | 1459.0 | 3.2030 | 34.6494 |
| M188_1-1 | 2023-03-10T10:28:00 | -32.6665 | 6.9345 | 1444.7 | 1460.0 | 3.2090 | 34.6517 |
| M188_1-1 | 2023-03-10T10:28:00 | -32.6665 | 6.9345 | 1445.7 | 1461.0 | 3.2142 | 34.6536 |
| M188_1-1 | 2023-03-10T10:28:00 | -32.6665 | 6.9345 | 1446.7 | 1462.0 | 3.2152 | 34.6540 |
| M188_1-1 | 2023-03-10T10:28:00 | -32.6665 | 6.9345 | 1447.6 | 1463.0 | 3.2157 | 34.6544 |
| M188_1-1 | 2023-03-10T10:28:00 | -32.6665 | 6.9345 | 1448.6 | 1464.0 | 3.2143 | 34.6546 |
| M188_1-1 | 2023-03-10T10:28:00 | -32.6665 | 6.9345 | 1449.6 | 1465.0 | 3.2129 | 34.6550 |
| M188_1-1 | 2023-03-10T10:28:00 | -32.6665 | 6.9345 | 1450.6 | 1466.0 | 3.2134 | 34.6556 |
| M188_1-1 | 2023-03-10T10:28:00 | -32.6665 | 6.9345 | 1451.6 | 1467.0 | 3.2138 | 34.6562 |
| M188_1-1 | 2023-03-10T10:28:00 | -32.6665 | 6.9345 | 1452.6 | 1468.0 | 3.2149 | 34.6569 |
| M188_1-1 | 2023-03-10T10:28:00 | -32.6665 | 6.9345 | 1453.6 | 1469.0 | 3.2161 | 34.6580 |
| M188_1-1 | 2023-03-10T10:28:00 | -32.6665 | 6.9345 | 1454.5 | 1470.0 | 3.2171 | 34.6591 |
| M188_1-1 | 2023-03-10T10:28:00 | -32.6665 | 6.9345 | 1455.5 | 1471.0 | 3.2143 | 34.6598 |
| M188_1-1 | 2023-03-10T10:28:00 | -32.6665 | 6.9345 | 1456.5 | 1472.0 | 3.2092 | 34.6599 |
| M188_1-1 | 2023-03-10T10:28:00 | -32.6665 | 6.9345 | 1457.5 | 1473.0 | 3.2060 | 34.6599 |
| M188_1-1 | 2023-03-10T10:28:00 | -32.6665 | 6.9345 | 1458.5 | 1474.0 | 3.1993 | 34.6593 |
| M188_1-1 | 2023-03-10T10:28:00 | -32.6665 | 6.9345 | 1459.5 | 1475.0 | 3.1972 | 34.6591 |
| M188_1-1 | 2023-03-10T10:28:00 | -32.6665 | 6.9345 | 1460.5 | 1476.0 | 3.1910 | 34.6582 |
| M188_1-1 | 2023-03-10T10:28:00 | -32.6665 | 6.9345 | 1461.4 | 1477.0 | 3.1826 | 34.6575 |
| M188_1-1 | 2023-03-10T10:28:00 | -32.6665 | 6.9345 | 1462.4 | 1478.0 | 3.1795 | 34.6568 |
| M188_1-1 | 2023-03-10T10:28:00 | -32.6665 | 6.9345 | 1463.4 | 1479.0 | 3.1795 | 34.6566 |
| M188_1-1 | 2023-03-10T10:28:00 | -32.6665 | 6.9345 | 1464.4 | 1480.0 | 3.1781 | 34.6566 |
| M188_1-1 | 2023-03-10T10:28:00 | -32.6665 | 6.9345 | 1465.4 | 1481.0 | 3.1551 | 34.6539 |
| M188_1-1 | 2023-03-10T10:28:00 | -32.6665 | 6.9345 | 1466.4 | 1482.0 | 3.1346 | 34.6514 |
| M188_1-1 | 2023-03-10T10:28:00 | -32.6665 | 6.9345 | 1467.4 | 1483.0 | 3.1148 | 34.6498 |
| M188_1-1 | 2023-03-10T10:28:00 | -32.6665 | 6.9345 | 1468.3 | 1484.0 | 3.1124 | 34.6493 |
| M188_1-1 | 2023-03-10T10:28:00 | -32.6665 | 6.9345 | 1469.3 | 1485.0 | 3.1034 | 34.6484 |
| M188_1-1 | 2023-03-10T10:28:00 | -32.6665 | 6.9345 | 1470.3 | 1486.0 | 3.1003 | 34.6482 |
| M188_1-1 | 2023-03-10T10:28:00 | -32.6665 | 6.9345 | 1471.3 | 1487.0 | 3.0953 | 34.6482 |
| M188_1-1 | 2023-03-10T10:28:00 | -32.6665 | 6.9345 | 1472.3 | 1488.0 | 3.0956 | 34.6484 |
| M188_1-1 | 2023-03-10T10:28:00 | -32.6665 | 6.9345 | 1473.3 | 1489.0 | 3.0956 | 34.6482 |
| M188_1-1 | 2023-03-10T10:28:00 | -32.6665 | 6.9345 | 1474.3 | 1490.0 | 3.0956 | 34.6479 |
| M188_1-1 | 2023-03-10T10:28:00 | -32.6665 | 6.9345 | 1475.3 | 1491.0 | 3.0962 | 34.6480 |
| M188_1-1 | 2023-03-10T10:28:00 | -32.6665 | 6.9345 | 1476.2 | 1492.0 | 3.0964 | 34.6479 |
| M188_1-1 | 2023-03-10T10:28:00 | -32.6665 | 6.9345 | 1477.2 | 1493.0 | 3.0965 | 34.6485 |
| M188_1-1 | 2023-03-10T10:28:00 | -32.6665 | 6.9345 | 1478.2 | 1494.0 | 3.1004 | 34.6498 |
| M188_1-1 | 2023-03-10T10:28:00 | -32.6665 | 6.9345 | 1479.2 | 1495.0 | 3.0985 | 34.6499 |
| M188_1-1 | 2023-03-10T10:28:00 | -32.6665 | 6.9345 | 1480.2 | 1496.0 | 3.0965 | 34.6514 |
| M188_1-1 | 2023-03-10T10:28:00 | -32.6665 | 6.9345 | 1481.2 | 1497.0 | 3.0968 | 34.6518 |
| M188_1-1 | 2023-03-10T10:28:00 | -32.6665 | 6.9345 | 1482.2 | 1498.0 | 3.0966 | 34.6518 |
| M188_1-1 | 2023-03-10T10:28:00 | -32.6665 | 6.9345 | 1483.1 | 1499.0 | 3.0973 | 34.6523 |
| M188_1-1 | 2023-03-10T10:28:00 | -32.6665 | 6.9345 | 1484.1 | 1500.0 | 3.0990 | 34.6526 |
| M188_1-1 | 2023-03-10T10:28:00 | -32.6665 | 6.9345 | 1485.1 | 1501.0 | 3.1011 | 34.6531 |
| M188_1-1 | 2023-03-10T10:28:00 | -32.6665 | 6.9345 | 1486.1 | 1502.0 | 3.1077 | 34.6546 |
| M188_1-1 | 2023-03-10T10:28:00 | -32.6665 | 6.9345 | 1487.1 | 1503.0 | 3.1092 | 34.6557 |
| M188_1-1 | 2023-03-10T10:28:00 | -32.6665 | 6.9345 | 1488.1 | 1504.0 | 3.1142 | 34.6570 |
| M188_1-1 | 2023-03-10T10:28:00 | -32.6665 | 6.9345 | 1489.1 | 1505.0 | 3.1195 | 34.6581 |
| M188_1-1 | 2023-03-10T10:28:00 | -32.6665 | 6.9345 | 1490.0 | 1506.0 | 3.1257 | 34.6598 |
| M188_1-1 | 2023-03-10T10:28:00 | -32.6665 | 6.9345 | 1491.0 | 1507.0 | 3.1229 | 34.6594 |
| M188_1-1 | 2023-03-10T10:28:00 | -32.6665 | 6.9345 | 1492.0 | 1508.0 | 3.1195 | 34.6600 |
| M188_1-1 | 2023-03-10T10:28:00 | -32.6665 | 6.9345 | 1493.0 | 1509.0 | 3.1086 | 34.6594 |
| M188_1-1 | 2023-03-10T10:28:00 | -32.6665 | 6.9345 | 1494.0 | 1510.0 | 3.1094 | 34.6607 |
| M188_1-1 | 2023-03-10T10:28:00 | -32.6665 | 6.9345 | 1495.0 | 1511.0 | 3.1076 | 34.6603 |
| M188_1-1 | 2023-03-10T10:28:00 | -32.6665 | 6.9345 | 1496.0 | 1512.0 | 3.1070 | 34.6605 |
| M188_1-1 | 2023-03-10T10:28:00 | -32.6665 | 6.9345 | 1496.9 | 1513.0 | 3.1033 | 34.6602 |
| M188_1-1 | 2023-03-10T10:28:00 | -32.6665 | 6.9345 | 1497.9 | 1514.0 | 3.0968 | 34.6606 |
| M188_1-1 | 2023-03-10T10:28:00 | -32.6665 | 6.9345 | 1498.9 | 1515.0 | 3.0920 | 34.6610 |
| M188_1-1 | 2023-03-10T10:28:00 | -32.6665 | 6.9345 | 1499.9 | 1516.0 | 3.0900 | 34.6607 |
| M188_1-1 | 2023-03-10T10:28:00 | -32.6665 | 6.9345 | 1500.9 | 1517.0 | 3.0814 | 34.6599 |
| M188_1-1 | 2023-03-10T10:28:00 | -32.6665 | 6.9345 | 1501.9 | 1518.0 | 3.0784 | 34.6606 |
| M188_1-1 | 2023-03-10T10:28:00 | -32.6665 | 6.9345 | 1502.9 | 1519.0 | 3.0802 | 34.6614 |
| M188_1-1 | 2023-03-10T10:28:00 | -32.6665 | 6.9345 | 1503.8 | 1520.0 | 3.0798 | 34.6614 |
| M188_1-1 | 2023-03-10T10:28:00 | -32.6665 | 6.9345 | 1504.8 | 1521.0 | 3.0804 | 34.6618 |
| M188_1-1 | 2023-03-10T10:28:00 | -32.6665 | 6.9345 | 1505.8 | 1522.0 | 3.0822 | 34.6617 |
| M188_1-1 | 2023-03-10T10:28:00 | -32.6665 | 6.9345 | 1506.8 | 1523.0 | 3.0890 | 34.6636 |
| M188_1-1 | 2023-03-10T10:28:00 | -32.6665 | 6.9345 | 1507.8 | 1524.0 | 3.0968 | 34.6662 |
| M188_1-1 | 2023-03-10T10:28:00 | -32.6665 | 6.9345 | 1508.8 | 1525.0 | 3.1038 | 34.6686 |
| M188_1-1 | 2023-03-10T10:28:00 | -32.6665 | 6.9345 | 1509.8 | 1526.0 | 3.1067 | 34.6690 |
| M188_1-1 | 2023-03-10T10:28:00 | -32.6665 | 6.9345 | 1510.7 | 1527.0 | 3.1081 | 34.6695 |
| M188_1-1 | 2023-03-10T10:28:00 | -32.6665 | 6.9345 | 1511.7 | 1528.0 | 3.1113 | 34.6707 |
| M188_1-1 | 2023-03-10T10:28:00 | -32.6665 | 6.9345 | 1512.7 | 1529.0 | 3.1199 | 34.6731 |
| M188_1-1 | 2023-03-10T10:28:00 | -32.6665 | 6.9345 | 1513.7 | 1530.0 | 3.1275 | 34.6748 |
| M188_1-1 | 2023-03-10T10:28:00 | -32.6665 | 6.9345 | 1514.7 | 1531.0 | 3.1330 | 34.6765 |
| M188_1-1 | 2023-03-10T10:28:00 | -32.6665 | 6.9345 | 1515.7 | 1532.0 | 3.1552 | 34.6809 |
| M188_1-1 | 2023-03-10T10:28:00 | -32.6665 | 6.9345 | 1516.7 | 1533.0 | 3.1380 | 34.6776 |
| M188_1-1 | 2023-03-10T10:28:00 | -32.6665 | 6.9345 | 1517.6 | 1534.0 | 3.1591 | 34.6829 |
| M188_1-1 | 2023-03-10T10:28:00 | -32.6665 | 6.9345 | 1518.6 | 1535.0 | 3.1477 | 34.6838 |
| M188_1-1 | 2023-03-10T10:28:00 | -32.6665 | 6.9345 | 1519.6 | 1536.0 | 3.1298 | 34.6816 |
| M188_1-1 | 2023-03-10T10:28:00 | -32.6665 | 6.9345 | 1520.6 | 1537.0 | 3.1133 | 34.6798 |
| M188_1-1 | 2023-03-10T10:28:00 | -32.6665 | 6.9345 | 1521.6 | 1538.0 | 3.1100 | 34.6792 |
| M188_1-1 | 2023-03-10T10:28:00 | -32.6665 | 6.9345 | 1522.6 | 1539.0 | 3.1094 | 34.6788 |
| M188_1-1 | 2023-03-10T10:28:00 | -32.6665 | 6.9345 | 1523.6 | 1540.0 | 3.1095 | 34.6786 |
| M188_1-1 | 2023-03-10T10:28:00 | -32.6665 | 6.9345 | 1524.5 | 1541.0 | 3.1105 | 34.6788 |
| M188_1-1 | 2023-03-10T10:28:00 | -32.6665 | 6.9345 | 1525.5 | 1542.0 | 3.1148 | 34.6795 |
| M188_1-1 | 2023-03-10T10:28:00 | -32.6665 | 6.9345 | 1526.5 | 1543.0 | 3.1227 | 34.6809 |
| M188_1-1 | 2023-03-10T10:28:00 | -32.6665 | 6.9345 | 1527.5 | 1544.0 | 3.1292 | 34.6821 |
| M188_1-1 | 2023-03-10T10:28:00 | -32.6665 | 6.9345 | 1528.5 | 1545.0 | 3.1433 | 34.6855 |
| M188_1-1 | 2023-03-10T10:28:00 | -32.6665 | 6.9345 | 1529.5 | 1546.0 | 3.1420 | 34.6858 |
| M188_1-1 | 2023-03-10T10:28:00 | -32.6665 | 6.9345 | 1530.5 | 1547.0 | 3.1404 | 34.6854 |
| M188_1-1 | 2023-03-10T10:28:00 | -32.6665 | 6.9345 | 1531.4 | 1548.0 | 3.1381 | 34.6853 |
| M188_1-1 | 2023-03-10T10:28:00 | -32.6665 | 6.9345 | 1532.4 | 1549.0 | 3.1377 | 34.6854 |
| M188_1-1 | 2023-03-10T10:28:00 | -32.6665 | 6.9345 | 1533.4 | 1550.0 | 3.1372 | 34.6853 |
| M188_1-1 | 2023-03-10T10:28:00 | -32.6665 | 6.9345 | 1534.4 | 1551.0 | 3.1463 | 34.6881 |
| M188_1-1 | 2023-03-10T10:28:00 | -32.6665 | 6.9345 | 1535.4 | 1552.0 | 3.2112 | 34.7000 |
| M188_1-1 | 2023-03-10T10:28:00 | -32.6665 | 6.9345 | 1536.4 | 1553.0 | 3.2182 | 34.7017 |
| M188_1-1 | 2023-03-10T10:28:00 | -32.6665 | 6.9345 | 1537.4 | 1554.0 | 3.2164 | 34.7018 |
| M188_1-1 | 2023-03-10T10:28:00 | -32.6665 | 6.9345 | 1538.3 | 1555.0 | 3.2099 | 34.7012 |
| M188_1-1 | 2023-03-10T10:28:00 | -32.6665 | 6.9345 | 1539.3 | 1556.0 | 3.2043 | 34.7006 |
| M188_1-1 | 2023-03-10T10:28:00 | -32.6665 | 6.9345 | 1540.3 | 1557.0 | 3.2040 | 34.7007 |
| M188_1-1 | 2023-03-10T10:28:00 | -32.6665 | 6.9345 | 1541.3 | 1558.0 | 3.1980 | 34.6997 |
| M188_1-1 | 2023-03-10T10:28:00 | -32.6665 | 6.9345 | 1542.3 | 1559.0 | 3.1776 | 34.6978 |
| M188_1-1 | 2023-03-10T10:28:00 | -32.6665 | 6.9345 | 1543.3 | 1560.0 | 3.1587 | 34.6952 |
| M188_1-1 | 2023-03-10T10:28:00 | -32.6665 | 6.9345 | 1544.3 | 1561.0 | 3.1502 | 34.6942 |
| M188_1-1 | 2023-03-10T10:28:00 | -32.6665 | 6.9345 | 1545.2 | 1562.0 | 3.1484 | 34.6939 |
| M188_1-1 | 2023-03-10T10:28:00 | -32.6665 | 6.9345 | 1546.2 | 1563.0 | 3.1465 | 34.6935 |
| M188_1-1 | 2023-03-10T10:28:00 | -32.6665 | 6.9345 | 1547.2 | 1564.0 | 3.1451 | 34.6932 |
| M188_1-1 | 2023-03-10T10:28:00 | -32.6665 | 6.9345 | 1548.2 | 1565.0 | 3.1427 | 34.6929 |
| M188_1-1 | 2023-03-10T10:28:00 | -32.6665 | 6.9345 | 1549.2 | 1566.0 | 3.1425 | 34.6929 |
| M188_1-1 | 2023-03-10T10:28:00 | -32.6665 | 6.9345 | 1550.2 | 1567.0 | 3.1455 | 34.6935 |
| M188_1-1 | 2023-03-10T10:28:00 | -32.6665 | 6.9345 | 1551.2 | 1568.0 | 3.1433 | 34.6936 |
| M188_1-1 | 2023-03-10T10:28:00 | -32.6665 | 6.9345 | 1552.1 | 1569.0 | 3.1534 | 34.6957 |
| M188_1-1 | 2023-03-10T10:28:00 | -32.6665 | 6.9345 | 1553.1 | 1570.0 | 3.1710 | 34.6987 |
| M188_1-1 | 2023-03-10T10:28:00 | -32.6665 | 6.9345 | 1554.1 | 1571.0 | 3.1923 | 34.7042 |
| M188_1-1 | 2023-03-10T10:28:00 | -32.6665 | 6.9345 | 1555.1 | 1572.0 | 3.1931 | 34.7044 |
| M188_1-1 | 2023-03-10T10:28:00 | -32.6665 | 6.9345 | 1556.1 | 1573.0 | 3.1842 | 34.7037 |
| M188_1-1 | 2023-03-10T10:28:00 | -32.6665 | 6.9345 | 1557.1 | 1574.0 | 3.1813 | 34.7036 |
| M188_1-1 | 2023-03-10T10:28:00 | -32.6665 | 6.9345 | 1558.1 | 1575.0 | 3.2020 | 34.7088 |
| M188_1-1 | 2023-03-10T10:28:00 | -32.6665 | 6.9345 | 1559.0 | 1576.0 | 3.2399 | 34.7166 |
| M188_1-1 | 2023-03-10T10:28:00 | -32.6665 | 6.9345 | 1560.0 | 1577.0 | 3.2530 | 34.7189 |
| M188_1-1 | 2023-03-10T10:28:00 | -32.6665 | 6.9345 | 1561.0 | 1578.0 | 3.2541 | 34.7195 |
| M188_1-1 | 2023-03-10T10:28:00 | -32.6665 | 6.9345 | 1562.0 | 1579.0 | 3.2437 | 34.7174 |
| M188_1-1 | 2023-03-10T10:28:00 | -32.6665 | 6.9345 | 1563.0 | 1580.0 | 3.2637 | 34.7221 |
| M188_1-1 | 2023-03-10T10:28:00 | -32.6665 | 6.9345 | 1564.0 | 1581.0 | 3.2661 | 34.7234 |
| M188_1-1 | 2023-03-10T10:28:00 | -32.6665 | 6.9345 | 1565.0 | 1582.0 | 3.2683 | 34.7250 |
| M188_1-1 | 2023-03-10T10:28:00 | -32.6665 | 6.9345 | 1565.9 | 1583.0 | 3.2685 | 34.7253 |
| M188_1-1 | 2023-03-10T10:28:00 | -32.6665 | 6.9345 | 1566.9 | 1584.0 | 3.2662 | 34.7266 |
| M188_1-1 | 2023-03-10T10:28:00 | -32.6665 | 6.9345 | 1567.9 | 1585.0 | 3.2611 | 34.7263 |
| M188_1-1 | 2023-03-10T10:28:00 | -32.6665 | 6.9345 | 1568.9 | 1586.0 | 3.2550 | 34.7262 |
| M188_1-1 | 2023-03-10T10:28:00 | -32.6665 | 6.9345 | 1569.9 | 1587.0 | 3.2558 | 34.7266 |
| M188_1-1 | 2023-03-10T10:28:00 | -32.6665 | 6.9345 | 1570.9 | 1588.0 | 3.2557 | 34.7261 |
| M188_1-1 | 2023-03-10T10:28:00 | -32.6665 | 6.9345 | 1571.9 | 1589.0 | 3.2544 | 34.7284 |
| M188_1-1 | 2023-03-10T10:28:00 | -32.6665 | 6.9345 | 1572.8 | 1590.0 | 3.2606 | 34.7295 |
| M188_1-1 | 2023-03-10T10:28:00 | -32.6665 | 6.9345 | 1573.8 | 1591.0 | 3.2640 | 34.7304 |
| M188_1-1 | 2023-03-10T10:28:00 | -32.6665 | 6.9345 | 1574.8 | 1592.0 | 3.2649 | 34.7306 |
| M188_1-1 | 2023-03-10T10:28:00 | -32.6665 | 6.9345 | 1575.8 | 1593.0 | 3.2647 | 34.7306 |
| M188_1-1 | 2023-03-10T10:28:00 | -32.6665 | 6.9345 | 1576.8 | 1594.0 | 3.2648 | 34.7306 |
| M188_1-1 | 2023-03-10T10:28:00 | -32.6665 | 6.9345 | 1577.8 | 1595.0 | 3.2652 | 34.7307 |
| M188_1-1 | 2023-03-10T10:28:00 | -32.6665 | 6.9345 | 1578.8 | 1596.0 | 3.2666 | 34.7310 |
| M188_1-1 | 2023-03-10T10:28:00 | -32.6665 | 6.9345 | 1579.7 | 1597.0 | 3.2673 | 34.7316 |
| M188_1-1 | 2023-03-10T10:28:00 | -32.6665 | 6.9345 | 1580.7 | 1598.0 | 3.2648 | 34.7315 |
| M188_1-1 | 2023-03-10T10:28:00 | -32.6665 | 6.9345 | 1581.7 | 1599.0 | 3.2628 | 34.7312 |
| M188_1-1 | 2023-03-10T10:28:00 | -32.6665 | 6.9345 | 1582.7 | 1600.0 | 3.2560 | 34.7314 |
| M188_1-1 | 2023-03-10T10:28:00 | -32.6665 | 6.9345 | 1583.7 | 1601.0 | 3.2519 | 34.7318 |
| M188_1-1 | 2023-03-10T10:28:00 | -32.6665 | 6.9345 | 1584.7 | 1602.0 | 3.2497 | 34.7317 |
| M188_1-1 | 2023-03-10T10:28:00 | -32.6665 | 6.9345 | 1585.6 | 1603.0 | 3.2446 | 34.7314 |
| M188_1-1 | 2023-03-10T10:28:00 | -32.6665 | 6.9345 | 1586.6 | 1604.0 | 3.2444 | 34.7312 |
| M188_1-1 | 2023-03-10T10:28:00 | -32.6665 | 6.9345 | 1587.6 | 1605.0 | 3.2422 | 34.7307 |
| M188_1-1 | 2023-03-10T10:28:00 | -32.6665 | 6.9345 | 1588.6 | 1606.0 | 3.2294 | 34.7301 |
| M188_1-1 | 2023-03-10T10:28:00 | -32.6665 | 6.9345 | 1589.6 | 1607.0 | 3.2257 | 34.7305 |
| M188_1-1 | 2023-03-10T10:28:00 | -32.6665 | 6.9345 | 1590.6 | 1608.0 | 3.2251 | 34.7305 |
| M188_1-1 | 2023-03-10T10:28:00 | -32.6665 | 6.9345 | 1591.6 | 1609.0 | 3.2251 | 34.7308 |
| M188_1-1 | 2023-03-10T10:28:00 | -32.6665 | 6.9345 | 1592.5 | 1610.0 | 3.2239 | 34.7303 |
| M188_1-1 | 2023-03-10T10:28:00 | -32.6665 | 6.9345 | 1593.5 | 1611.0 | 3.2154 | 34.7298 |
| M188_1-1 | 2023-03-10T10:28:00 | -32.6665 | 6.9345 | 1594.5 | 1612.0 | 3.1959 | 34.7278 |
| M188_1-1 | 2023-03-10T10:28:00 | -32.6665 | 6.9345 | 1595.5 | 1613.0 | 3.1859 | 34.7268 |
| M188_1-1 | 2023-03-10T10:28:00 | -32.6665 | 6.9345 | 1596.5 | 1614.0 | 3.1803 | 34.7259 |
| M188_1-1 | 2023-03-10T10:28:00 | -32.6665 | 6.9345 | 1597.5 | 1615.0 | 3.1783 | 34.7257 |
| M188_1-1 | 2023-03-10T10:28:00 | -32.6665 | 6.9345 | 1598.5 | 1616.0 | 3.1630 | 34.7243 |
| M188_1-1 | 2023-03-10T10:28:00 | -32.6665 | 6.9345 | 1599.4 | 1617.0 | 3.1521 | 34.7231 |
| M188_1-1 | 2023-03-10T10:28:00 | -32.6665 | 6.9345 | 1600.4 | 1618.0 | 3.1352 | 34.7209 |
| M188_1-1 | 2023-03-10T10:28:00 | -32.6665 | 6.9345 | 1601.4 | 1619.0 | 3.1261 | 34.7197 |
| M188_1-1 | 2023-03-10T10:28:00 | -32.6665 | 6.9345 | 1602.4 | 1620.0 | 3.1237 | 34.7194 |
| M188_1-1 | 2023-03-10T10:28:00 | -32.6665 | 6.9345 | 1603.4 | 1621.0 | 3.1184 | 34.7185 |
| M188_1-1 | 2023-03-10T10:28:00 | -32.6665 | 6.9345 | 1604.4 | 1622.0 | 3.0934 | 34.7164 |
| M188_1-1 | 2023-03-10T10:28:00 | -32.6665 | 6.9345 | 1605.4 | 1623.0 | 3.0785 | 34.7156 |
| M188_1-1 | 2023-03-10T10:28:00 | -32.6665 | 6.9345 | 1606.3 | 1624.0 | 3.0730 | 34.7154 |
| M188_1-1 | 2023-03-10T10:28:00 | -32.6665 | 6.9345 | 1607.3 | 1625.0 | 3.0823 | 34.7170 |
| M188_1-1 | 2023-03-10T10:28:00 | -32.6665 | 6.9345 | 1608.3 | 1626.0 | 3.0917 | 34.7186 |
| M188_1-1 | 2023-03-10T10:28:00 | -32.6665 | 6.9345 | 1609.3 | 1627.0 | 3.1011 | 34.7200 |
| M188_1-1 | 2023-03-10T10:28:00 | -32.6665 | 6.9345 | 1610.3 | 1628.0 | 3.1109 | 34.7213 |
| M188_1-1 | 2023-03-10T10:28:00 | -32.6665 | 6.9345 | 1611.3 | 1629.0 | 3.1078 | 34.7227 |
| M188_1-1 | 2023-03-10T10:28:00 | -32.6665 | 6.9345 | 1612.3 | 1630.0 | 3.0662 | 34.7177 |
| M188_1-1 | 2023-03-10T10:28:00 | -32.6665 | 6.9345 | 1613.2 | 1631.0 | 3.0585 | 34.7169 |
| M188_1-1 | 2023-03-10T10:28:00 | -32.6665 | 6.9345 | 1614.2 | 1632.0 | 3.0551 | 34.7163 |
| M188_1-1 | 2023-03-10T10:28:00 | -32.6665 | 6.9345 | 1615.2 | 1633.0 | 3.0531 | 34.7158 |
| M188_1-1 | 2023-03-10T10:28:00 | -32.6665 | 6.9345 | 1616.2 | 1634.0 | 3.0478 | 34.7154 |
| M188_1-1 | 2023-03-10T10:28:00 | -32.6665 | 6.9345 | 1617.2 | 1635.0 | 3.0452 | 34.7155 |
| M188_1-1 | 2023-03-10T10:28:00 | -32.6665 | 6.9345 | 1618.2 | 1636.0 | 3.0449 | 34.7154 |
| M188_1-1 | 2023-03-10T10:28:00 | -32.6665 | 6.9345 | 1619.2 | 1637.0 | 3.0426 | 34.7152 |
| M188_1-1 | 2023-03-10T10:28:00 | -32.6665 | 6.9345 | 1620.1 | 1638.0 | 3.0414 | 34.7151 |
| M188_1-1 | 2023-03-10T10:28:00 | -32.6665 | 6.9345 | 1621.1 | 1639.0 | 3.0422 | 34.7149 |
| M188_1-1 | 2023-03-10T10:28:00 | -32.6665 | 6.9345 | 1622.1 | 1640.0 | 3.0422 | 34.7149 |
| M188_1-1 | 2023-03-10T10:28:00 | -32.6665 | 6.9345 | 1623.1 | 1641.0 | 3.0404 | 34.7148 |
| M188_1-1 | 2023-03-10T10:28:00 | -32.6665 | 6.9345 | 1624.1 | 1642.0 | 3.0406 | 34.7153 |
| M188_1-1 | 2023-03-10T10:28:00 | -32.6665 | 6.9345 | 1625.1 | 1643.0 | 3.0417 | 34.7159 |
| M188_1-1 | 2023-03-10T10:28:00 | -32.6665 | 6.9345 | 1626.0 | 1644.0 | 3.0419 | 34.7159 |
| M188_1-1 | 2023-03-10T10:28:00 | -32.6665 | 6.9345 | 1627.0 | 1645.0 | 3.0420 | 34.7160 |
| M188_1-1 | 2023-03-10T10:28:00 | -32.6665 | 6.9345 | 1628.0 | 1646.0 | 3.0424 | 34.7160 |
| M188_1-1 | 2023-03-10T10:28:00 | -32.6665 | 6.9345 | 1629.0 | 1647.0 | 3.0415 | 34.7163 |
| M188_1-1 | 2023-03-10T10:28:00 | -32.6665 | 6.9345 | 1630.0 | 1648.0 | 3.0411 | 34.7176 |
| M188_1-1 | 2023-03-10T10:28:00 | -32.6665 | 6.9345 | 1631.0 | 1649.0 | 3.0365 | 34.7174 |
| M188_1-1 | 2023-03-10T10:28:00 | -32.6665 | 6.9345 | 1632.0 | 1650.0 | 3.0332 | 34.7170 |
| M188_1-1 | 2023-03-10T10:28:00 | -32.6665 | 6.9345 | 1632.9 | 1651.0 | 3.0310 | 34.7170 |
| M188_1-1 | 2023-03-10T10:28:00 | -32.6665 | 6.9345 | 1633.9 | 1652.0 | 3.0300 | 34.7169 |
| M188_1-1 | 2023-03-10T10:28:00 | -32.6665 | 6.9345 | 1634.9 | 1653.0 | 3.0288 | 34.7170 |
| M188_1-1 | 2023-03-10T10:28:00 | -32.6665 | 6.9345 | 1635.9 | 1654.0 | 3.0284 | 34.7171 |
| M188_1-1 | 2023-03-10T10:28:00 | -32.6665 | 6.9345 | 1636.9 | 1655.0 | 3.0283 | 34.7172 |
| M188_1-1 | 2023-03-10T10:28:00 | -32.6665 | 6.9345 | 1637.9 | 1656.0 | 3.0284 | 34.7171 |
| M188_1-1 | 2023-03-10T10:28:00 | -32.6665 | 6.9345 | 1638.9 | 1657.0 | 3.0283 | 34.7171 |
| M188_1-1 | 2023-03-10T10:28:00 | -32.6665 | 6.9345 | 1639.8 | 1658.0 | 3.0273 | 34.7179 |
| M188_1-1 | 2023-03-10T10:28:00 | -32.6665 | 6.9345 | 1640.8 | 1659.0 | 3.0274 | 34.7182 |
| M188_1-1 | 2023-03-10T10:28:00 | -32.6665 | 6.9345 | 1641.8 | 1660.0 | 3.0276 | 34.7181 |
| M188_1-1 | 2023-03-10T10:28:00 | -32.6665 | 6.9345 | 1642.8 | 1661.0 | 3.0285 | 34.7193 |
| M188_1-1 | 2023-03-10T10:28:00 | -32.6665 | 6.9345 | 1643.8 | 1662.0 | 3.0280 | 34.7203 |
| M188_1-1 | 2023-03-10T10:28:00 | -32.6665 | 6.9345 | 1644.8 | 1663.0 | 3.0278 | 34.7207 |
| M188_1-1 | 2023-03-10T10:28:00 | -32.6665 | 6.9345 | 1645.8 | 1664.0 | 3.0280 | 34.7208 |
| M188_1-1 | 2023-03-10T10:28:00 | -32.6665 | 6.9345 | 1646.7 | 1665.0 | 3.0280 | 34.7214 |
| M188_1-1 | 2023-03-10T10:28:00 | -32.6665 | 6.9345 | 1647.7 | 1666.0 | 3.0280 | 34.7219 |
| M188_1-1 | 2023-03-10T10:28:00 | -32.6665 | 6.9345 | 1648.7 | 1667.0 | 3.0280 | 34.7223 |
| M188_1-1 | 2023-03-10T10:28:00 | -32.6665 | 6.9345 | 1649.7 | 1668.0 | 3.0283 | 34.7217 |
| M188_1-1 | 2023-03-10T10:28:00 | -32.6665 | 6.9345 | 1650.7 | 1669.0 | 3.0281 | 34.7233 |
| M188_1-1 | 2023-03-10T10:28:00 | -32.6665 | 6.9345 | 1651.7 | 1670.0 | 3.0283 | 34.7237 |
| M188_1-1 | 2023-03-10T10:28:00 | -32.6665 | 6.9345 | 1652.6 | 1671.0 | 3.0284 | 34.7240 |
| M188_1-1 | 2023-03-10T10:28:00 | -32.6665 | 6.9345 | 1653.6 | 1672.0 | 3.0286 | 34.7241 |
| M188_1-1 | 2023-03-10T10:28:00 | -32.6665 | 6.9345 | 1654.6 | 1673.0 | 3.0286 | 34.7242 |
| M188_1-1 | 2023-03-10T10:28:00 | -32.6665 | 6.9345 | 1655.6 | 1674.0 | 3.0287 | 34.7243 |
| M188_1-1 | 2023-03-10T10:28:00 | -32.6665 | 6.9345 | 1656.6 | 1675.0 | 3.0288 | 34.7242 |
| M188_1-1 | 2023-03-10T10:28:00 | -32.6665 | 6.9345 | 1657.6 | 1676.0 | 3.0287 | 34.7245 |
| M188_1-1 | 2023-03-10T10:28:00 | -32.6665 | 6.9345 | 1658.6 | 1677.0 | 3.0286 | 34.7248 |
| M188_1-1 | 2023-03-10T10:28:00 | -32.6665 | 6.9345 | 1659.5 | 1678.0 | 3.0282 | 34.7251 |
| M188_1-1 | 2023-03-10T10:28:00 | -32.6665 | 6.9345 | 1660.5 | 1679.0 | 3.0277 | 34.7253 |
| M188_1-1 | 2023-03-10T10:28:00 | -32.6665 | 6.9345 | 1661.5 | 1680.0 | 3.0260 | 34.7266 |
| M188_1-1 | 2023-03-10T10:28:00 | -32.6665 | 6.9345 | 1662.5 | 1681.0 | 3.0262 | 34.7268 |
| M188_1-1 | 2023-03-10T10:28:00 | -32.6665 | 6.9345 | 1663.5 | 1682.0 | 3.0263 | 34.7271 |
| M188_1-1 | 2023-03-10T10:28:00 | -32.6665 | 6.9345 | 1664.5 | 1683.0 | 3.0262 | 34.7272 |
| M188_1-1 | 2023-03-10T10:28:00 | -32.6665 | 6.9345 | 1665.5 | 1684.0 | 3.0256 | 34.7277 |
| M188_1-1 | 2023-03-10T10:28:00 | -32.6665 | 6.9345 | 1666.4 | 1685.0 | 3.0251 | 34.7278 |
| M188_1-1 | 2023-03-10T10:28:00 | -32.6665 | 6.9345 | 1667.4 | 1686.0 | 3.0249 | 34.7279 |
| M188_1-1 | 2023-03-10T10:28:00 | -32.6665 | 6.9345 | 1668.4 | 1687.0 | 3.0246 | 34.7277 |
| M188_1-1 | 2023-03-10T10:28:00 | -32.6665 | 6.9345 | 1669.4 | 1688.0 | 3.0246 | 34.7281 |
| M188_1-1 | 2023-03-10T10:28:00 | -32.6665 | 6.9345 | 1670.4 | 1689.0 | 3.0251 | 34.7281 |
| M188_1-1 | 2023-03-10T10:28:00 | -32.6665 | 6.9345 | 1671.4 | 1690.0 | 3.0252 | 34.7285 |
| M188_1-1 | 2023-03-10T10:28:00 | -32.6665 | 6.9345 | 1672.3 | 1691.0 | 3.0257 | 34.7289 |
| M188_1-1 | 2023-03-10T10:28:00 | -32.6665 | 6.9345 | 1673.3 | 1692.0 | 3.0255 | 34.7293 |
| M188_1-1 | 2023-03-10T10:28:00 | -32.6665 | 6.9345 | 1674.3 | 1693.0 | 3.0253 | 34.7297 |
| M188_1-1 | 2023-03-10T10:28:00 | -32.6665 | 6.9345 | 1675.3 | 1694.0 | 3.0249 | 34.7301 |
| M188_1-1 | 2023-03-10T10:28:00 | -32.6665 | 6.9345 | 1676.3 | 1695.0 | 3.0246 | 34.7311 |
| M188_1-1 | 2023-03-10T10:28:00 | -32.6665 | 6.9345 | 1677.3 | 1696.0 | 3.0245 | 34.7317 |
| M188_1-1 | 2023-03-10T10:28:00 | -32.6665 | 6.9345 | 1678.3 | 1697.0 | 3.0244 | 34.7317 |
| M188_1-1 | 2023-03-10T10:28:00 | -32.6665 | 6.9345 | 1679.2 | 1698.0 | 3.0245 | 34.7319 |
| M188_1-1 | 2023-03-10T10:28:00 | -32.6665 | 6.9345 | 1680.2 | 1699.0 | 3.0245 | 34.7325 |
| M188_1-1 | 2023-03-10T10:28:00 | -32.6665 | 6.9345 | 1681.2 | 1700.0 | 3.0246 | 34.7328 |
| M188_1-1 | 2023-03-10T10:28:00 | -32.6665 | 6.9345 | 1682.2 | 1701.0 | 3.0245 | 34.7328 |
| M188_1-1 | 2023-03-10T10:28:00 | -32.6665 | 6.9345 | 1683.2 | 1702.0 | 3.0241 | 34.7335 |
| M188_1-1 | 2023-03-10T10:28:00 | -32.6665 | 6.9345 | 1684.2 | 1703.0 | 3.0238 | 34.7343 |
| M188_1-1 | 2023-03-10T10:28:00 | -32.6665 | 6.9345 | 1685.2 | 1704.0 | 3.0217 | 34.7349 |
| M188_1-1 | 2023-03-10T10:28:00 | -32.6665 | 6.9345 | 1686.1 | 1705.0 | 3.0202 | 34.7357 |
| M188_1-1 | 2023-03-10T10:28:00 | -32.6665 | 6.9345 | 1687.1 | 1706.0 | 3.0201 | 34.7361 |
| M188_1-1 | 2023-03-10T10:28:00 | -32.6665 | 6.9345 | 1688.1 | 1707.0 | 3.0192 | 34.7362 |
| M188_1-1 | 2023-03-10T10:28:00 | -32.6665 | 6.9345 | 1689.1 | 1708.0 | 3.0225 | 34.7381 |
| M188_1-1 | 2023-03-10T10:28:00 | -32.6665 | 6.9345 | 1690.1 | 1709.0 | 3.0221 | 34.7383 |
| M188_1-1 | 2023-03-10T10:28:00 | -32.6665 | 6.9345 | 1691.1 | 1710.0 | 3.0219 | 34.7381 |
| M188_1-1 | 2023-03-10T10:28:00 | -32.6665 | 6.9345 | 1692.0 | 1711.0 | 3.0214 | 34.7383 |
| M188_1-1 | 2023-03-10T10:28:00 | -32.6665 | 6.9345 | 1693.0 | 1712.0 | 3.0198 | 34.7386 |
| M188_1-1 | 2023-03-10T10:28:00 | -32.6665 | 6.9345 | 1694.0 | 1713.0 | 3.0193 | 34.7386 |
| M188_1-1 | 2023-03-10T10:28:00 | -32.6665 | 6.9345 | 1695.0 | 1714.0 | 3.0183 | 34.7388 |
| M188_1-1 | 2023-03-10T10:28:00 | -32.6665 | 6.9345 | 1696.0 | 1715.0 | 3.0180 | 34.7389 |
| M188_1-1 | 2023-03-10T10:28:00 | -32.6665 | 6.9345 | 1697.0 | 1716.0 | 3.0179 | 34.7388 |
| M188_1-1 | 2023-03-10T10:28:00 | -32.6665 | 6.9345 | 1698.0 | 1717.0 | 3.0172 | 34.7389 |
| M188_1-1 | 2023-03-10T10:28:00 | -32.6665 | 6.9345 | 1698.9 | 1718.0 | 3.0174 | 34.7388 |
| M188_1-1 | 2023-03-10T10:28:00 | -32.6665 | 6.9345 | 1699.9 | 1719.0 | 3.0166 | 34.7393 |
| M188_1-1 | 2023-03-10T10:28:00 | -32.6665 | 6.9345 | 1700.9 | 1720.0 | 3.0165 | 34.7394 |
| M188_1-1 | 2023-03-10T10:28:00 | -32.6665 | 6.9345 | 1701.9 | 1721.0 | 3.0166 | 34.7395 |
| M188_1-1 | 2023-03-10T10:28:00 | -32.6665 | 6.9345 | 1702.9 | 1722.0 | 3.0166 | 34.7395 |
| M188_1-1 | 2023-03-10T10:28:00 | -32.6665 | 6.9345 | 1703.9 | 1723.0 | 3.0166 | 34.7397 |
| M188_1-1 | 2023-03-10T10:28:00 | -32.6665 | 6.9345 | 1704.9 | 1724.0 | 3.0166 | 34.7397 |
| M188_1-1 | 2023-03-10T10:28:00 | -32.6665 | 6.9345 | 1705.8 | 1725.0 | 3.0164 | 34.7399 |
| M188_1-1 | 2023-03-10T10:28:00 | -32.6665 | 6.9345 | 1706.8 | 1726.0 | 3.0163 | 34.7400 |
| M188_1-1 | 2023-03-10T10:28:00 | -32.6665 | 6.9345 | 1707.8 | 1727.0 | 3.0162 | 34.7400 |
| M188_1-1 | 2023-03-10T10:28:00 | -32.6665 | 6.9345 | 1708.8 | 1728.0 | 3.0159 | 34.7402 |
| M188_1-1 | 2023-03-10T10:28:00 | -32.6665 | 6.9345 | 1709.8 | 1729.0 | 3.0159 | 34.7403 |
| M188_1-1 | 2023-03-10T10:28:00 | -32.6665 | 6.9345 | 1710.8 | 1730.0 | 3.0156 | 34.7411 |
| M188_1-1 | 2023-03-10T10:28:00 | -32.6665 | 6.9345 | 1711.7 | 1731.0 | 3.0149 | 34.7425 |
| M188_1-1 | 2023-03-10T10:28:00 | -32.6665 | 6.9345 | 1712.7 | 1732.0 | 3.0150 | 34.7426 |
| M188_1-1 | 2023-03-10T10:28:00 | -32.6665 | 6.9345 | 1713.7 | 1733.0 | 3.0153 | 34.7430 |
| M188_1-1 | 2023-03-10T10:28:00 | -32.6665 | 6.9345 | 1714.7 | 1734.0 | 3.0159 | 34.7434 |
| M188_1-1 | 2023-03-10T10:28:00 | -32.6665 | 6.9345 | 1715.7 | 1735.0 | 3.0162 | 34.7434 |
| M188_1-1 | 2023-03-10T10:28:00 | -32.6665 | 6.9345 | 1716.7 | 1736.0 | 3.0179 | 34.7441 |
| M188_1-1 | 2023-03-10T10:28:00 | -32.6665 | 6.9345 | 1717.7 | 1737.0 | 3.0186 | 34.7445 |
| M188_1-1 | 2023-03-10T10:28:00 | -32.6665 | 6.9345 | 1718.6 | 1738.0 | 3.0195 | 34.7447 |
| M188_1-1 | 2023-03-10T10:28:00 | -32.6665 | 6.9345 | 1719.6 | 1739.0 | 3.0203 | 34.7452 |
| M188_1-1 | 2023-03-10T10:28:00 | -32.6665 | 6.9345 | 1720.6 | 1740.0 | 3.0229 | 34.7457 |
| M188_1-1 | 2023-03-10T10:28:00 | -32.6665 | 6.9345 | 1721.6 | 1741.0 | 3.0245 | 34.7462 |
| M188_1-1 | 2023-03-10T10:28:00 | -32.6665 | 6.9345 | 1722.6 | 1742.0 | 3.0244 | 34.7462 |
| M188_1-1 | 2023-03-10T10:28:00 | -32.6665 | 6.9345 | 1723.6 | 1743.0 | 3.0249 | 34.7466 |
| M188_1-1 | 2023-03-10T10:28:00 | -32.6665 | 6.9345 | 1724.5 | 1744.0 | 3.0246 | 34.7464 |
| M188_1-1 | 2023-03-10T10:28:00 | -32.6665 | 6.9345 | 1725.5 | 1745.0 | 3.0249 | 34.7464 |
| M188_1-1 | 2023-03-10T10:28:00 | -32.6665 | 6.9345 | 1726.5 | 1746.0 | 3.0246 | 34.7465 |
| M188_1-1 | 2023-03-10T10:28:00 | -32.6665 | 6.9345 | 1727.5 | 1747.0 | 3.0245 | 34.7466 |
| M188_1-1 | 2023-03-10T10:28:00 | -32.6665 | 6.9345 | 1728.5 | 1748.0 | 3.0245 | 34.7465 |
| M188_1-1 | 2023-03-10T10:28:00 | -32.6665 | 6.9345 | 1729.5 | 1749.0 | 3.0247 | 34.7471 |
| M188_1-1 | 2023-03-10T10:28:00 | -32.6665 | 6.9345 | 1730.5 | 1750.0 | 3.0238 | 34.7474 |
| M188_1-1 | 2023-03-10T10:28:00 | -32.6665 | 6.9345 | 1731.4 | 1751.0 | 3.0175 | 34.7475 |
| M188_1-1 | 2023-03-10T10:28:00 | -32.6665 | 6.9345 | 1732.4 | 1752.0 | 3.0142 | 34.7478 |
| M188_1-1 | 2023-03-10T10:28:00 | -32.6665 | 6.9345 | 1733.4 | 1753.0 | 3.0137 | 34.7481 |
| M188_1-1 | 2023-03-10T10:28:00 | -32.6665 | 6.9345 | 1734.4 | 1754.0 | 3.0142 | 34.7484 |
| M188_1-1 | 2023-03-10T10:28:00 | -32.6665 | 6.9345 | 1735.4 | 1755.0 | 3.0150 | 34.7487 |
| M188_1-1 | 2023-03-10T10:28:00 | -32.6665 | 6.9345 | 1736.4 | 1756.0 | 3.0158 | 34.7490 |
| M188_1-1 | 2023-03-10T10:28:00 | -32.6665 | 6.9345 | 1737.4 | 1757.0 | 3.0163 | 34.7493 |
| M188_1-1 | 2023-03-10T10:28:00 | -32.6665 | 6.9345 | 1738.3 | 1758.0 | 3.0188 | 34.7508 |
| M188_1-1 | 2023-03-10T10:28:00 | -32.6665 | 6.9345 | 1739.3 | 1759.0 | 3.0171 | 34.7516 |
| M188_1-1 | 2023-03-10T10:28:00 | -32.6665 | 6.9345 | 1740.3 | 1760.0 | 3.0170 | 34.7514 |
| M188_1-1 | 2023-03-10T10:28:00 | -32.6665 | 6.9345 | 1741.3 | 1761.0 | 3.0170 | 34.7513 |
| M188_1-1 | 2023-03-10T10:28:00 | -32.6665 | 6.9345 | 1742.3 | 1762.0 | 3.0190 | 34.7519 |
| M188_1-1 | 2023-03-10T10:28:00 | -32.6665 | 6.9345 | 1743.3 | 1763.0 | 3.0181 | 34.7513 |
| M188_1-1 | 2023-03-10T10:28:00 | -32.6665 | 6.9345 | 1744.2 | 1764.0 | 3.0322 | 34.7549 |
| M188_1-1 | 2023-03-10T10:28:00 | -32.6665 | 6.9345 | 1745.2 | 1765.0 | 3.0380 | 34.7563 |
| M188_1-1 | 2023-03-10T10:28:00 | -32.6665 | 6.9345 | 1746.2 | 1766.0 | 3.0346 | 34.7561 |
| M188_1-1 | 2023-03-10T10:28:00 | -32.6665 | 6.9345 | 1747.2 | 1767.0 | 3.0287 | 34.7556 |
| M188_1-1 | 2023-03-10T10:28:00 | -32.6665 | 6.9345 | 1748.2 | 1768.0 | 3.0253 | 34.7559 |
| M188_1-1 | 2023-03-10T10:28:00 | -32.6665 | 6.9345 | 1749.2 | 1769.0 | 3.0215 | 34.7557 |
| M188_1-1 | 2023-03-10T10:28:00 | -32.6665 | 6.9345 | 1750.2 | 1770.0 | 3.0226 | 34.7561 |
| M188_1-1 | 2023-03-10T10:28:00 | -32.6665 | 6.9345 | 1751.1 | 1771.0 | 3.0215 | 34.7560 |
| M188_1-1 | 2023-03-10T10:28:00 | -32.6665 | 6.9345 | 1752.1 | 1772.0 | 3.0219 | 34.7560 |
| M188_1-1 | 2023-03-10T10:28:00 | -32.6665 | 6.9345 | 1753.1 | 1773.0 | 3.0230 | 34.7567 |
| M188_1-1 | 2023-03-10T10:28:00 | -32.6665 | 6.9345 | 1754.1 | 1774.0 | 3.0232 | 34.7581 |
| M188_1-1 | 2023-03-10T10:28:00 | -32.6665 | 6.9345 | 1755.1 | 1775.0 | 3.0235 | 34.7582 |
| M188_1-1 | 2023-03-10T10:28:00 | -32.6665 | 6.9345 | 1756.1 | 1776.0 | 3.0261 | 34.7592 |
| M188_1-1 | 2023-03-10T10:28:00 | -32.6665 | 6.9345 | 1757.0 | 1777.0 | 3.0297 | 34.7604 |
| M188_1-1 | 2023-03-10T10:28:00 | -32.6665 | 6.9345 | 1758.0 | 1778.0 | 3.0318 | 34.7611 |
| M188_1-1 | 2023-03-10T10:28:00 | -32.6665 | 6.9345 | 1759.0 | 1779.0 | 3.0308 | 34.7604 |
| M188_1-1 | 2023-03-10T10:28:00 | -32.6665 | 6.9345 | 1760.0 | 1780.0 | 3.0410 | 34.7629 |
| M188_1-1 | 2023-03-10T10:28:00 | -32.6665 | 6.9345 | 1761.0 | 1781.0 | 3.0532 | 34.7659 |
| M188_1-1 | 2023-03-10T10:28:00 | -32.6665 | 6.9345 | 1762.0 | 1782.0 | 3.0556 | 34.7664 |
| M188_1-1 | 2023-03-10T10:28:00 | -32.6665 | 6.9345 | 1763.0 | 1783.0 | 3.0547 | 34.7670 |
| M188_1-1 | 2023-03-10T10:28:00 | -32.6665 | 6.9345 | 1763.9 | 1784.0 | 3.0947 | 34.7740 |
| M188_1-1 | 2023-03-10T10:28:00 | -32.6665 | 6.9345 | 1764.9 | 1785.0 | 3.1084 | 34.7772 |
| M188_1-1 | 2023-03-10T10:28:00 | -32.6665 | 6.9345 | 1765.9 | 1786.0 | 3.1118 | 34.7786 |
| M188_1-1 | 2023-03-10T10:28:00 | -32.6665 | 6.9345 | 1766.9 | 1787.0 | 3.1070 | 34.7784 |
| M188_1-1 | 2023-03-10T10:28:00 | -32.6665 | 6.9345 | 1767.9 | 1788.0 | 3.1007 | 34.7769 |
| M188_1-1 | 2023-03-10T10:28:00 | -32.6665 | 6.9345 | 1768.9 | 1789.0 | 3.0839 | 34.7756 |
| M188_1-1 | 2023-03-10T10:28:00 | -32.6665 | 6.9345 | 1769.8 | 1790.0 | 3.0880 | 34.7765 |
| M188_1-1 | 2023-03-10T10:28:00 | -32.6665 | 6.9345 | 1770.8 | 1791.0 | 3.0891 | 34.7771 |
| M188_1-1 | 2023-03-10T10:28:00 | -32.6665 | 6.9345 | 1771.8 | 1792.0 | 3.0860 | 34.7770 |
| M188_1-1 | 2023-03-10T10:28:00 | -32.6665 | 6.9345 | 1772.8 | 1793.0 | 3.0881 | 34.7774 |
| M188_1-1 | 2023-03-10T10:28:00 | -32.6665 | 6.9345 | 1773.8 | 1794.0 | 3.0930 | 34.7783 |
| M188_1-1 | 2023-03-10T10:28:00 | -32.6665 | 6.9345 | 1774.8 | 1795.0 | 3.0985 | 34.7794 |
| M188_1-1 | 2023-03-10T10:28:00 | -32.6665 | 6.9345 | 1775.8 | 1796.0 | 3.0957 | 34.7793 |
| M188_1-1 | 2023-03-10T10:28:00 | -32.6665 | 6.9345 | 1776.7 | 1797.0 | 3.0919 | 34.7793 |
| M188_1-1 | 2023-03-10T10:28:00 | -32.6665 | 6.9345 | 1777.7 | 1798.0 | 3.0906 | 34.7794 |
| M188_1-1 | 2023-03-10T10:28:00 | -32.6665 | 6.9345 | 1778.7 | 1799.0 | 3.0679 | 34.7773 |
| M188_1-1 | 2023-03-10T10:28:00 | -32.6665 | 6.9345 | 1779.7 | 1800.0 | 3.0656 | 34.7767 |
| M188_1-1 | 2023-03-10T10:28:00 | -32.6665 | 6.9345 | 1780.7 | 1801.0 | 3.0712 | 34.7774 |
| M188_1-1 | 2023-03-10T10:28:00 | -32.6665 | 6.9345 | 1781.7 | 1802.0 | 3.0767 | 34.7782 |
| M188_1-1 | 2023-03-10T10:28:00 | -32.6665 | 6.9345 | 1782.6 | 1803.0 | 3.0959 | 34.7830 |
| M188_1-1 | 2023-03-10T10:28:00 | -32.6665 | 6.9345 | 1783.6 | 1804.0 | 3.1029 | 34.7851 |
| M188_1-1 | 2023-03-10T10:28:00 | -32.6665 | 6.9345 | 1784.6 | 1805.0 | 3.1058 | 34.7858 |
| M188_1-1 | 2023-03-10T10:28:00 | -32.6665 | 6.9345 | 1785.6 | 1806.0 | 3.1053 | 34.7861 |
| M188_1-1 | 2023-03-10T10:28:00 | -32.6665 | 6.9345 | 1786.6 | 1807.0 | 3.1037 | 34.7862 |
| M188_1-1 | 2023-03-10T10:28:00 | -32.6665 | 6.9345 | 1787.6 | 1808.0 | 3.1002 | 34.7861 |
| M188_1-1 | 2023-03-10T10:28:00 | -32.6665 | 6.9345 | 1788.6 | 1809.0 | 3.0991 | 34.7861 |
| M188_1-1 | 2023-03-10T10:28:00 | -32.6665 | 6.9345 | 1789.5 | 1810.0 | 3.0980 | 34.7862 |
| M188_1-1 | 2023-03-10T10:28:00 | -32.6665 | 6.9345 | 1790.5 | 1811.0 | 3.0987 | 34.7863 |
| M188_1-1 | 2023-03-10T10:28:00 | -32.6665 | 6.9345 | 1791.5 | 1812.0 | 3.0988 | 34.7862 |
| M188_1-1 | 2023-03-10T10:28:00 | -32.6665 | 6.9345 | 1792.5 | 1813.0 | 3.0938 | 34.7858 |
| M188_1-1 | 2023-03-10T10:28:00 | -32.6665 | 6.9345 | 1793.5 | 1814.0 | 3.0878 | 34.7854 |
| M188_1-1 | 2023-03-10T10:28:00 | -32.6665 | 6.9345 | 1794.5 | 1815.0 | 3.0897 | 34.7858 |
| M188_1-1 | 2023-03-10T10:28:00 | -32.6665 | 6.9345 | 1795.4 | 1816.0 | 3.0889 | 34.7857 |
| M188_1-1 | 2023-03-10T10:28:00 | -32.6665 | 6.9345 | 1796.4 | 1817.0 | 3.0879 | 34.7858 |
| M188_1-1 | 2023-03-10T10:28:00 | -32.6665 | 6.9345 | 1797.4 | 1818.0 | 3.0845 | 34.7856 |
| M188_1-1 | 2023-03-10T10:28:00 | -32.6665 | 6.9345 | 1798.4 | 1819.0 | 3.0901 | 34.7869 |
| M188_1-1 | 2023-03-10T10:28:00 | -32.6665 | 6.9345 | 1799.4 | 1820.0 | 3.0979 | 34.7886 |
| M188_1-1 | 2023-03-10T10:28:00 | -32.6665 | 6.9345 | 1800.4 | 1821.0 | 3.1010 | 34.7892 |
| M188_1-1 | 2023-03-10T10:28:00 | -32.6665 | 6.9345 | 1801.3 | 1822.0 | 3.1038 | 34.7895 |
| M188_1-1 | 2023-03-10T10:28:00 | -32.6665 | 6.9345 | 1802.3 | 1823.0 | 3.1068 | 34.7908 |
| M188_1-1 | 2023-03-10T10:28:00 | -32.6665 | 6.9345 | 1803.3 | 1824.0 | 3.1131 | 34.7926 |
| M188_1-1 | 2023-03-10T10:28:00 | -32.6665 | 6.9345 | 1804.3 | 1825.0 | 3.1142 | 34.7931 |
| M188_1-1 | 2023-03-10T10:28:00 | -32.6665 | 6.9345 | 1805.3 | 1826.0 | 3.1188 | 34.7945 |
| M188_1-1 | 2023-03-10T10:28:00 | -32.6665 | 6.9345 | 1806.3 | 1827.0 | 3.1218 | 34.7951 |
| M188_1-1 | 2023-03-10T10:28:00 | -32.6665 | 6.9345 | 1807.3 | 1828.0 | 3.1211 | 34.7952 |
| M188_1-1 | 2023-03-10T10:28:00 | -32.6665 | 6.9345 | 1808.2 | 1829.0 | 3.1188 | 34.7948 |
| M188_1-1 | 2023-03-10T10:28:00 | -32.6665 | 6.9345 | 1809.2 | 1830.0 | 3.1178 | 34.7949 |
| M188_1-1 | 2023-03-10T10:28:00 | -32.6665 | 6.9345 | 1810.2 | 1831.0 | 3.1168 | 34.7954 |
| M188_1-1 | 2023-03-10T10:28:00 | -32.6665 | 6.9345 | 1811.2 | 1832.0 | 3.1093 | 34.7943 |
| M188_1-1 | 2023-03-10T10:28:00 | -32.6665 | 6.9345 | 1812.2 | 1833.0 | 3.1075 | 34.7942 |
| M188_1-1 | 2023-03-10T10:28:00 | -32.6665 | 6.9345 | 1813.2 | 1834.0 | 3.1174 | 34.7961 |
| M188_1-1 | 2023-03-10T10:28:00 | -32.6665 | 6.9345 | 1814.1 | 1835.0 | 3.1291 | 34.7982 |
| M188_1-1 | 2023-03-10T10:28:00 | -32.6665 | 6.9345 | 1815.1 | 1836.0 | 3.1360 | 34.8005 |
| M188_1-1 | 2023-03-10T10:28:00 | -32.6665 | 6.9345 | 1816.1 | 1837.0 | 3.1352 | 34.8009 |
| M188_1-1 | 2023-03-10T10:28:00 | -32.6665 | 6.9345 | 1817.1 | 1838.0 | 3.1351 | 34.8009 |
| M188_1-1 | 2023-03-10T10:28:00 | -32.6665 | 6.9345 | 1818.1 | 1839.0 | 3.1345 | 34.8008 |
| M188_1-1 | 2023-03-10T10:28:00 | -32.6665 | 6.9345 | 1819.1 | 1840.0 | 3.1362 | 34.8012 |
| M188_1-1 | 2023-03-10T10:28:00 | -32.6665 | 6.9345 | 1820.1 | 1841.0 | 3.1366 | 34.8014 |
| M188_1-1 | 2023-03-10T10:28:00 | -32.6665 | 6.9345 | 1821.0 | 1842.0 | 3.1367 | 34.8015 |
| M188_1-1 | 2023-03-10T10:28:00 | -32.6665 | 6.9345 | 1822.0 | 1843.0 | 3.1333 | 34.8010 |
| M188_1-1 | 2023-03-10T10:28:00 | -32.6665 | 6.9345 | 1823.0 | 1844.0 | 3.1224 | 34.7998 |
| M188_1-1 | 2023-03-10T10:28:00 | -32.6665 | 6.9345 | 1824.0 | 1845.0 | 3.1174 | 34.7992 |
| M188_1-1 | 2023-03-10T10:28:00 | -32.6665 | 6.9345 | 1825.0 | 1846.0 | 3.1215 | 34.8000 |
| M188_1-1 | 2023-03-10T10:28:00 | -32.6665 | 6.9345 | 1826.0 | 1847.0 | 3.1210 | 34.8001 |
| M188_1-1 | 2023-03-10T10:28:00 | -32.6665 | 6.9345 | 1826.9 | 1848.0 | 3.1201 | 34.8002 |
| M188_1-1 | 2023-03-10T10:28:00 | -32.6665 | 6.9345 | 1827.9 | 1849.0 | 3.1163 | 34.7998 |
| M188_1-1 | 2023-03-10T10:28:00 | -32.6665 | 6.9345 | 1828.9 | 1850.0 | 3.1112 | 34.7995 |
| M188_1-1 | 2023-03-10T10:28:00 | -32.6665 | 6.9345 | 1829.9 | 1851.0 | 3.1081 | 34.7990 |
| M188_1-1 | 2023-03-10T10:28:00 | -32.6665 | 6.9345 | 1830.9 | 1852.0 | 3.1050 | 34.7990 |
| M188_1-1 | 2023-03-10T10:28:00 | -32.6665 | 6.9345 | 1831.9 | 1853.0 | 3.1001 | 34.7982 |
| M188_1-1 | 2023-03-10T10:28:00 | -32.6665 | 6.9345 | 1832.8 | 1854.0 | 3.0939 | 34.7977 |
| M188_1-1 | 2023-03-10T10:28:00 | -32.6665 | 6.9345 | 1833.8 | 1855.0 | 3.0906 | 34.7974 |
| M188_1-1 | 2023-03-10T10:28:00 | -32.6665 | 6.9345 | 1834.8 | 1856.0 | 3.0867 | 34.7967 |
| M188_1-1 | 2023-03-10T10:28:00 | -32.6665 | 6.9345 | 1835.8 | 1857.0 | 3.0784 | 34.7957 |
| M188_1-1 | 2023-03-10T10:28:00 | -32.6665 | 6.9345 | 1836.8 | 1858.0 | 3.0732 | 34.7950 |
| M188_1-1 | 2023-03-10T10:28:00 | -32.6665 | 6.9345 | 1837.8 | 1859.0 | 3.0676 | 34.7948 |
| M188_1-1 | 2023-03-10T10:28:00 | -32.6665 | 6.9345 | 1838.8 | 1860.0 | 3.0710 | 34.7956 |
| M188_1-1 | 2023-03-10T10:28:00 | -32.6665 | 6.9345 | 1839.7 | 1861.0 | 3.0712 | 34.7957 |
| M188_1-1 | 2023-03-10T10:28:00 | -32.6665 | 6.9345 | 1840.7 | 1862.0 | 3.0677 | 34.7951 |
| M188_1-1 | 2023-03-10T10:28:00 | -32.6665 | 6.9345 | 1841.7 | 1863.0 | 3.0675 | 34.7948 |
| M188_1-1 | 2023-03-10T10:28:00 | -32.6665 | 6.9345 | 1842.7 | 1864.0 | 3.0705 | 34.7955 |
| M188_1-1 | 2023-03-10T10:28:00 | -32.6665 | 6.9345 | 1843.7 | 1865.0 | 3.0727 | 34.7959 |
| M188_1-1 | 2023-03-10T10:28:00 | -32.6665 | 6.9345 | 1844.7 | 1866.0 | 3.0783 | 34.7974 |
| M188_1-1 | 2023-03-10T10:28:00 | -32.6665 | 6.9345 | 1845.6 | 1867.0 | 3.0803 | 34.7981 |
| M188_1-1 | 2023-03-10T10:28:00 | -32.6665 | 6.9345 | 1846.6 | 1868.0 | 3.0845 | 34.7990 |
| M188_1-1 | 2023-03-10T10:28:00 | -32.6665 | 6.9345 | 1847.6 | 1869.0 | 3.0858 | 34.7994 |
| M188_1-1 | 2023-03-10T10:28:00 | -32.6665 | 6.9345 | 1848.6 | 1870.0 | 3.0823 | 34.7998 |
| M188_1-1 | 2023-03-10T10:28:00 | -32.6665 | 6.9345 | 1849.6 | 1871.0 | 3.0816 | 34.7997 |
| M188_1-1 | 2023-03-10T10:28:00 | -32.6665 | 6.9345 | 1850.6 | 1872.0 | 3.0810 | 34.7996 |
| M188_1-1 | 2023-03-10T10:28:00 | -32.6665 | 6.9345 | 1851.5 | 1873.0 | 3.0799 | 34.7996 |
| M188_1-1 | 2023-03-10T10:28:00 | -32.6665 | 6.9345 | 1852.5 | 1874.0 | 3.0790 | 34.7997 |
| M188_1-1 | 2023-03-10T10:28:00 | -32.6665 | 6.9345 | 1853.5 | 1875.0 | 3.0785 | 34.7995 |
| M188_1-1 | 2023-03-10T10:28:00 | -32.6665 | 6.9345 | 1854.5 | 1876.0 | 3.0769 | 34.7992 |
| M188_1-1 | 2023-03-10T10:28:00 | -32.6665 | 6.9345 | 1855.5 | 1877.0 | 3.0793 | 34.7995 |
| M188_1-1 | 2023-03-10T10:28:00 | -32.6665 | 6.9345 | 1856.5 | 1878.0 | 3.0744 | 34.7999 |
| M188_1-1 | 2023-03-10T10:28:00 | -32.6665 | 6.9345 | 1857.5 | 1879.0 | 3.0751 | 34.8002 |
| M188_1-1 | 2023-03-10T10:28:00 | -32.6665 | 6.9345 | 1858.4 | 1880.0 | 3.0749 | 34.8006 |
| M188_1-1 | 2023-03-10T10:28:00 | -32.6665 | 6.9345 | 1859.4 | 1881.0 | 3.0720 | 34.8004 |
| M188_1-1 | 2023-03-10T10:28:00 | -32.6665 | 6.9345 | 1860.4 | 1882.0 | 3.0694 | 34.8002 |
| M188_1-1 | 2023-03-10T10:28:00 | -32.6665 | 6.9345 | 1861.4 | 1883.0 | 3.0680 | 34.8004 |
| M188_1-1 | 2023-03-10T10:28:00 | -32.6665 | 6.9345 | 1862.4 | 1884.0 | 3.0675 | 34.8006 |
| M188_1-1 | 2023-03-10T10:28:00 | -32.6665 | 6.9345 | 1863.4 | 1885.0 | 3.0679 | 34.8010 |
| M188_1-1 | 2023-03-10T10:28:00 | -32.6665 | 6.9345 | 1864.3 | 1886.0 | 3.0709 | 34.8023 |
| M188_1-1 | 2023-03-10T10:28:00 | -32.6665 | 6.9345 | 1865.3 | 1887.0 | 3.0721 | 34.8025 |
| M188_1-1 | 2023-03-10T10:28:00 | -32.6665 | 6.9345 | 1866.3 | 1888.0 | 3.0747 | 34.8033 |
| M188_1-1 | 2023-03-10T10:28:00 | -32.6665 | 6.9345 | 1867.3 | 1889.0 | 3.0838 | 34.8052 |
| M188_1-1 | 2023-03-10T10:28:00 | -32.6665 | 6.9345 | 1868.3 | 1890.0 | 3.0859 | 34.8060 |
| M188_1-1 | 2023-03-10T10:28:00 | -32.6665 | 6.9345 | 1869.3 | 1891.0 | 3.0839 | 34.8062 |
| M188_1-1 | 2023-03-10T10:28:00 | -32.6665 | 6.9345 | 1870.2 | 1892.0 | 3.0845 | 34.8069 |
| M188_1-1 | 2023-03-10T10:28:00 | -32.6665 | 6.9345 | 1871.2 | 1893.0 | 3.0805 | 34.8067 |
| M188_1-1 | 2023-03-10T10:28:00 | -32.6665 | 6.9345 | 1872.2 | 1894.0 | 3.0731 | 34.8061 |
| M188_1-1 | 2023-03-10T10:28:00 | -32.6665 | 6.9345 | 1873.2 | 1895.0 | 3.0709 | 34.8061 |
| M188_1-1 | 2023-03-10T10:28:00 | -32.6665 | 6.9345 | 1874.2 | 1896.0 | 3.0706 | 34.8059 |
| M188_1-1 | 2023-03-10T10:28:00 | -32.6665 | 6.9345 | 1875.2 | 1897.0 | 3.0706 | 34.8060 |
| M188_1-1 | 2023-03-10T10:28:00 | -32.6665 | 6.9345 | 1876.2 | 1898.0 | 3.0706 | 34.8061 |
| M188_1-1 | 2023-03-10T10:28:00 | -32.6665 | 6.9345 | 1877.1 | 1899.0 | 3.0716 | 34.8060 |
| M188_1-1 | 2023-03-10T10:28:00 | -32.6665 | 6.9345 | 1878.1 | 1900.0 | 3.0716 | 34.8065 |
| M188_1-1 | 2023-03-10T10:28:00 | -32.6665 | 6.9345 | 1879.1 | 1901.0 | 3.0753 | 34.8077 |
| M188_1-1 | 2023-03-10T10:28:00 | -32.6665 | 6.9345 | 1880.1 | 1902.0 | 3.0731 | 34.8079 |
| M188_1-1 | 2023-03-10T10:28:00 | -32.6665 | 6.9345 | 1881.1 | 1903.0 | 3.0691 | 34.8075 |
| M188_1-1 | 2023-03-10T10:28:00 | -32.6665 | 6.9345 | 1882.1 | 1904.0 | 3.0676 | 34.8083 |
| M188_1-1 | 2023-03-10T10:28:00 | -32.6665 | 6.9345 | 1883.0 | 1905.0 | 3.0666 | 34.8087 |
| M188_1-1 | 2023-03-10T10:28:00 | -32.6665 | 6.9345 | 1884.0 | 1906.0 | 3.0653 | 34.8093 |
| M188_1-1 | 2023-03-10T10:28:00 | -32.6665 | 6.9345 | 1885.0 | 1907.0 | 3.0648 | 34.8091 |
| M188_1-1 | 2023-03-10T10:28:00 | -32.6665 | 6.9345 | 1886.0 | 1908.0 | 3.0659 | 34.8097 |
| M188_1-1 | 2023-03-10T10:28:00 | -32.6665 | 6.9345 | 1887.0 | 1909.0 | 3.0672 | 34.8105 |
| M188_1-1 | 2023-03-10T10:28:00 | -32.6665 | 6.9345 | 1888.0 | 1910.0 | 3.0676 | 34.8108 |
| M188_1-1 | 2023-03-10T10:28:00 | -32.6665 | 6.9345 | 1888.9 | 1911.0 | 3.0679 | 34.8109 |
| M188_1-1 | 2023-03-10T10:28:00 | -32.6665 | 6.9345 | 1889.9 | 1912.0 | 3.0682 | 34.8112 |
| M188_1-1 | 2023-03-10T10:28:00 | -32.6665 | 6.9345 | 1890.9 | 1913.0 | 3.0689 | 34.8115 |
| M188_1-1 | 2023-03-10T10:28:00 | -32.6665 | 6.9345 | 1891.9 | 1914.0 | 3.0689 | 34.8118 |
| M188_1-1 | 2023-03-10T10:28:00 | -32.6665 | 6.9345 | 1892.9 | 1915.0 | 3.0687 | 34.8119 |
| M188_1-1 | 2023-03-10T10:28:00 | -32.6665 | 6.9345 | 1893.9 | 1916.0 | 3.0681 | 34.8114 |
| M188_1-1 | 2023-03-10T10:28:00 | -32.6665 | 6.9345 | 1894.8 | 1917.0 | 3.0679 | 34.8117 |
| M188_1-1 | 2023-03-10T10:28:00 | -32.6665 | 6.9345 | 1895.8 | 1918.0 | 3.0674 | 34.8117 |
| M188_1-1 | 2023-03-10T10:28:00 | -32.6665 | 6.9345 | 1896.8 | 1919.0 | 3.0679 | 34.8122 |
| M188_1-1 | 2023-03-10T10:28:00 | -32.6665 | 6.9345 | 1897.8 | 1920.0 | 3.0684 | 34.8120 |
| M188_1-1 | 2023-03-10T10:28:00 | -32.6665 | 6.9345 | 1898.8 | 1921.0 | 3.0646 | 34.8118 |
| M188_1-1 | 2023-03-10T10:28:00 | -32.6665 | 6.9345 | 1899.8 | 1922.0 | 3.0551 | 34.8112 |
| M188_1-1 | 2023-03-10T10:28:00 | -32.6665 | 6.9345 | 1900.8 | 1923.0 | 3.0554 | 34.8116 |
| M188_1-1 | 2023-03-10T10:28:00 | -32.6665 | 6.9345 | 1901.7 | 1924.0 | 3.0589 | 34.8122 |
| M188_1-1 | 2023-03-10T10:28:00 | -32.6665 | 6.9345 | 1902.7 | 1925.0 | 3.0591 | 34.8123 |
| M188_1-1 | 2023-03-10T10:28:00 | -32.6665 | 6.9345 | 1903.7 | 1926.0 | 3.0603 | 34.8125 |
| M188_1-1 | 2023-03-10T10:28:00 | -32.6665 | 6.9345 | 1904.7 | 1927.0 | 3.0619 | 34.8132 |
| M188_1-1 | 2023-03-10T10:28:00 | -32.6665 | 6.9345 | 1905.7 | 1928.0 | 3.0642 | 34.8134 |
| M188_1-1 | 2023-03-10T10:28:00 | -32.6665 | 6.9345 | 1906.7 | 1929.0 | 3.0658 | 34.8140 |
| M188_1-1 | 2023-03-10T10:28:00 | -32.6665 | 6.9345 | 1907.6 | 1930.0 | 3.0666 | 34.8143 |
| M188_1-1 | 2023-03-10T10:28:00 | -32.6665 | 6.9345 | 1908.6 | 1931.0 | 3.0677 | 34.8146 |
| M188_1-1 | 2023-03-10T10:28:00 | -32.6665 | 6.9345 | 1909.6 | 1932.0 | 3.0691 | 34.8153 |
| M188_1-1 | 2023-03-10T10:28:00 | -32.6665 | 6.9345 | 1910.6 | 1933.0 | 3.0694 | 34.8153 |
| M188_1-1 | 2023-03-10T10:28:00 | -32.6665 | 6.9345 | 1911.6 | 1934.0 | 3.0696 | 34.8155 |
| M188_1-1 | 2023-03-10T10:28:00 | -32.6665 | 6.9345 | 1912.6 | 1935.0 | 3.0697 | 34.8154 |
| M188_1-1 | 2023-03-10T10:28:00 | -32.6665 | 6.9345 | 1913.5 | 1936.0 | 3.0697 | 34.8156 |
| M188_1-1 | 2023-03-10T10:28:00 | -32.6665 | 6.9345 | 1914.5 | 1937.0 | 3.0702 | 34.8157 |
| M188_1-1 | 2023-03-10T10:28:00 | -32.6665 | 6.9345 | 1915.5 | 1938.0 | 3.0705 | 34.8158 |
| M188_1-1 | 2023-03-10T10:28:00 | -32.6665 | 6.9345 | 1916.5 | 1939.0 | 3.0706 | 34.8159 |
| M188_1-1 | 2023-03-10T10:28:00 | -32.6665 | 6.9345 | 1917.5 | 1940.0 | 3.0709 | 34.8162 |
| M188_1-1 | 2023-03-10T10:28:00 | -32.6665 | 6.9345 | 1918.5 | 1941.0 | 3.0697 | 34.8164 |
| M188_1-1 | 2023-03-10T10:28:00 | -32.6665 | 6.9345 | 1919.4 | 1942.0 | 3.0666 | 34.8171 |
| M188_1-1 | 2023-03-10T10:28:00 | -32.6665 | 6.9345 | 1920.4 | 1943.0 | 3.0653 | 34.8173 |
| M188_1-1 | 2023-03-10T10:28:00 | -32.6665 | 6.9345 | 1921.4 | 1944.0 | 3.0659 | 34.8170 |
| M188_1-1 | 2023-03-10T10:28:00 | -32.6665 | 6.9345 | 1922.4 | 1945.0 | 3.0640 | 34.8168 |
| M188_1-1 | 2023-03-10T10:28:00 | -32.6665 | 6.9345 | 1923.4 | 1946.0 | 3.0621 | 34.8170 |
| M188_1-1 | 2023-03-10T10:28:00 | -32.6665 | 6.9345 | 1924.4 | 1947.0 | 3.0532 | 34.8161 |
| M188_1-1 | 2023-03-10T10:28:00 | -32.6665 | 6.9345 | 1925.4 | 1948.0 | 3.0488 | 34.8158 |
| M188_1-1 | 2023-03-10T10:28:00 | -32.6665 | 6.9345 | 1926.3 | 1949.0 | 3.0440 | 34.8153 |
| M188_1-1 | 2023-03-10T10:28:00 | -32.6665 | 6.9345 | 1927.3 | 1950.0 | 3.0376 | 34.8148 |
| M188_1-1 | 2023-03-10T10:28:00 | -32.6665 | 6.9345 | 1928.3 | 1951.0 | 3.0317 | 34.8143 |
| M188_1-1 | 2023-03-10T10:28:00 | -32.6665 | 6.9345 | 1929.3 | 1952.0 | 3.0312 | 34.8141 |
| M188_1-1 | 2023-03-10T10:28:00 | -32.6665 | 6.9345 | 1930.3 | 1953.0 | 3.0308 | 34.8140 |
| M188_1-1 | 2023-03-10T10:28:00 | -32.6665 | 6.9345 | 1931.3 | 1954.0 | 3.0308 | 34.8138 |
| M188_1-1 | 2023-03-10T10:28:00 | -32.6665 | 6.9345 | 1932.2 | 1955.0 | 3.0310 | 34.8137 |
| M188_1-1 | 2023-03-10T10:28:00 | -32.6665 | 6.9345 | 1933.2 | 1956.0 | 3.0327 | 34.8142 |
| M188_1-1 | 2023-03-10T10:28:00 | -32.6665 | 6.9345 | 1934.2 | 1957.0 | 3.0359 | 34.8151 |
| M188_1-1 | 2023-03-10T10:28:00 | -32.6665 | 6.9345 | 1935.2 | 1958.0 | 3.0369 | 34.8152 |
| M188_1-1 | 2023-03-10T10:28:00 | -32.6665 | 6.9345 | 1936.2 | 1959.0 | 3.0374 | 34.8157 |
| M188_1-1 | 2023-03-10T10:28:00 | -32.6665 | 6.9345 | 1937.2 | 1960.0 | 3.0371 | 34.8158 |
| M188_1-1 | 2023-03-10T10:28:00 | -32.6665 | 6.9345 | 1938.1 | 1961.0 | 3.0368 | 34.8158 |
| M188_1-1 | 2023-03-10T10:28:00 | -32.6665 | 6.9345 | 1939.1 | 1962.0 | 3.0368 | 34.8158 |
| M188_1-1 | 2023-03-10T10:28:00 | -32.6665 | 6.9345 | 1940.1 | 1963.0 | 3.0366 | 34.8156 |
| M188_1-1 | 2023-03-10T10:28:00 | -32.6665 | 6.9345 | 1941.1 | 1964.0 | 3.0362 | 34.8158 |
| M188_1-1 | 2023-03-10T10:28:00 | -32.6665 | 6.9345 | 1942.1 | 1965.0 | 3.0364 | 34.8159 |
| M188_1-1 | 2023-03-10T10:28:00 | -32.6665 | 6.9345 | 1943.1 | 1966.0 | 3.0363 | 34.8159 |
| M188_1-1 | 2023-03-10T10:28:00 | -32.6665 | 6.9345 | 1944.0 | 1967.0 | 3.0360 | 34.8160 |
| M188_1-1 | 2023-03-10T10:28:00 | -32.6665 | 6.9345 | 1945.0 | 1968.0 | 3.0359 | 34.8160 |
| M188_1-1 | 2023-03-10T10:28:00 | -32.6665 | 6.9345 | 1946.0 | 1969.0 | 3.0355 | 34.8161 |
| M188_1-1 | 2023-03-10T10:28:00 | -32.6665 | 6.9345 | 1947.0 | 1970.0 | 3.0347 | 34.8159 |
| M188_1-1 | 2023-03-10T10:28:00 | -32.6665 | 6.9345 | 1948.0 | 1971.0 | 3.0344 | 34.8159 |
| M188_1-1 | 2023-03-10T10:28:00 | -32.6665 | 6.9345 | 1949.0 | 1972.0 | 3.0343 | 34.8159 |
| M188_1-1 | 2023-03-10T10:28:00 | -32.6665 | 6.9345 | 1949.9 | 1973.0 | 3.0346 | 34.8160 |
| M188_1-1 | 2023-03-10T10:28:00 | -32.6665 | 6.9345 | 1950.9 | 1974.0 | 3.0328 | 34.8160 |
| M188_1-1 | 2023-03-10T10:28:00 | -32.6665 | 6.9345 | 1951.9 | 1975.0 | 3.0275 | 34.8157 |
| M188_1-1 | 2023-03-10T10:28:00 | -32.6665 | 6.9345 | 1952.9 | 1976.0 | 3.0231 | 34.8168 |
| M188_1-1 | 2023-03-10T10:28:00 | -32.6665 | 6.9345 | 1953.9 | 1977.0 | 3.0264 | 34.8182 |
| M188_1-1 | 2023-03-10T10:28:00 | -32.6665 | 6.9345 | 1954.9 | 1978.0 | 3.0286 | 34.8188 |
| M188_1-1 | 2023-03-10T10:28:00 | -32.6665 | 6.9345 | 1955.8 | 1979.0 | 3.0279 | 34.8186 |
| M188_1-1 | 2023-03-10T10:28:00 | -32.6665 | 6.9345 | 1956.8 | 1980.0 | 3.0288 | 34.8189 |
| M188_1-1 | 2023-03-10T10:28:00 | -32.6665 | 6.9345 | 1957.8 | 1981.0 | 3.0314 | 34.8200 |
| M188_1-1 | 2023-03-10T10:28:00 | -32.6665 | 6.9345 | 1958.8 | 1982.0 | 3.0318 | 34.8209 |
| M188_1-1 | 2023-03-10T10:28:00 | -32.6665 | 6.9345 | 1959.8 | 1983.0 | 3.0349 | 34.8222 |
| M188_1-1 | 2023-03-10T10:28:00 | -32.6665 | 6.9345 | 1960.8 | 1984.0 | 3.0364 | 34.8226 |
| M188_1-1 | 2023-03-10T10:28:00 | -32.6665 | 6.9345 | 1961.7 | 1985.0 | 3.0374 | 34.8230 |
| M188_1-1 | 2023-03-10T10:28:00 | -32.6665 | 6.9345 | 1962.7 | 1986.0 | 3.0377 | 34.8228 |
| M188_1-1 | 2023-03-10T10:28:00 | -32.6665 | 6.9345 | 1963.7 | 1987.0 | 3.0399 | 34.8238 |
| M188_1-1 | 2023-03-10T10:28:00 | -32.6665 | 6.9345 | 1964.7 | 1988.0 | 3.0414 | 34.8241 |
| M188_1-1 | 2023-03-10T10:28:00 | -32.6665 | 6.9345 | 1965.7 | 1989.0 | 3.0417 | 34.8242 |
| M188_1-1 | 2023-03-10T10:28:00 | -32.6665 | 6.9345 | 1966.7 | 1990.0 | 3.0418 | 34.8245 |
| M188_1-1 | 2023-03-10T10:28:00 | -32.6665 | 6.9345 | 1967.7 | 1991.0 | 3.0437 | 34.8256 |
| M188_1-1 | 2023-03-10T10:28:00 | -32.6665 | 6.9345 | 1968.6 | 1992.0 | 3.0421 | 34.8261 |
| M188_1-1 | 2023-03-10T10:28:00 | -32.6665 | 6.9345 | 1969.6 | 1993.0 | 3.0375 | 34.8255 |
| M188_1-1 | 2023-03-10T10:28:00 | -32.6665 | 6.9345 | 1970.6 | 1994.0 | 3.0330 | 34.8249 |
| M188_1-1 | 2023-03-10T10:28:00 | -32.6665 | 6.9345 | 1971.6 | 1995.0 | 3.0306 | 34.8244 |
| M188_1-1 | 2023-03-10T10:28:00 | -32.6665 | 6.9345 | 1972.6 | 1996.0 | 3.0355 | 34.8250 |
| M188_1-1 | 2023-03-10T10:28:00 | -32.6665 | 6.9345 | 1973.6 | 1997.0 | 3.0244 | 34.8236 |
| M188_1-1 | 2023-03-10T10:28:00 | -32.6665 | 6.9345 | 1974.5 | 1998.0 | 3.0242 | 34.8235 |
| M188_1-1 | 2023-03-10T10:28:00 | -32.6665 | 6.9345 | 1975.5 | 1999.0 | 3.0242 | 34.8236 |
Only the first 2000 rows were shown. To view the complete dataset, download it as tab-delimited text. You can still view the full matrix in your browser, but be aware that this may crash the browser due to the huge size.
